<?xml version="1.0" encoding="UTF-8" standalone="no" ?>
<gpx xmlns="http://www.topografix.com/GPX/1/1" xmlns:xsi="http://www.w3.org/2001/XMLSchema-instance" xsi:schemaLocation="http://www.topografix.com/GPX/1/1 http://www.topografix.com/GPX/1/1/gpx.xsd" version="1.1" creator="VisuGPX - https://www.visugpx.com">
  <metadata>
    <name>SALT EN DONZY 26KM</name>
    <desc><![CDATA[SALT EN DONZY PANISSIERES 26 KM .RANDO DU MONORAIL]]></desc>
  </metadata>
  <trk>
    <name><![CDATA[SALT]]></name>
    <trkseg>
      <trkpt lat="45.73859" lon="4.28866">
        <ele>358.23</ele>
        <time>2016-08-04T07:29:25Z</time>
      </trkpt>
      <trkpt lat="45.73858" lon="4.28867">
        <ele>359.19</ele>
        <time>2016-08-04T07:29:40Z</time>
      </trkpt>
      <trkpt lat="45.73861" lon="4.2887">
        <ele>359.67</ele>
        <time>2016-08-04T07:29:58Z</time>
      </trkpt>
      <trkpt lat="45.73859" lon="4.28872">
        <ele>361.11</ele>
        <time>2016-08-04T07:30:08Z</time>
      </trkpt>
      <trkpt lat="45.7386" lon="4.28872">
        <ele>363.04</ele>
        <time>2016-08-04T07:30:26Z</time>
      </trkpt>
      <trkpt lat="45.73861" lon="4.28872">
        <ele>363.04</ele>
        <time>2016-08-04T07:30:42Z</time>
      </trkpt>
      <trkpt lat="45.73861" lon="4.28872">
        <ele>363.04</ele>
        <time>2016-08-04T07:30:59Z</time>
      </trkpt>
      <trkpt lat="45.73861" lon="4.28873">
        <ele>361.59</ele>
        <time>2016-08-04T07:31:18Z</time>
      </trkpt>
      <trkpt lat="45.73861" lon="4.28874">
        <ele>362.55</ele>
        <time>2016-08-04T07:31:33Z</time>
      </trkpt>
      <trkpt lat="45.73859" lon="4.28873">
        <ele>362.07</ele>
        <time>2016-08-04T07:31:44Z</time>
      </trkpt>
      <trkpt lat="45.73848" lon="4.28878">
        <ele>363.04</ele>
        <time>2016-08-04T07:32:01Z</time>
      </trkpt>
      <trkpt lat="45.73834" lon="4.28879">
        <ele>362.55</ele>
        <time>2016-08-04T07:32:16Z</time>
      </trkpt>
      <trkpt lat="45.73827" lon="4.28868">
        <ele>364.48</ele>
        <time>2016-08-04T07:32:29Z</time>
      </trkpt>
      <trkpt lat="45.73819" lon="4.28856">
        <ele>364</ele>
        <time>2016-08-04T07:32:41Z</time>
      </trkpt>
      <trkpt lat="45.73801" lon="4.28861">
        <ele>365.92</ele>
        <time>2016-08-04T07:32:57Z</time>
      </trkpt>
      <trkpt lat="45.73781" lon="4.28861">
        <ele>366.88</ele>
        <time>2016-08-04T07:33:12Z</time>
      </trkpt>
      <trkpt lat="45.73766" lon="4.28848">
        <ele>367.36</ele>
        <time>2016-08-04T07:33:27Z</time>
      </trkpt>
      <trkpt lat="45.73743" lon="4.28833">
        <ele>368.8</ele>
        <time>2016-08-04T07:33:44Z</time>
      </trkpt>
      <trkpt lat="45.73724" lon="4.28826">
        <ele>369.76</ele>
        <time>2016-08-04T07:33:59Z</time>
      </trkpt>
      <trkpt lat="45.7371" lon="4.28826">
        <ele>369.76</ele>
        <time>2016-08-04T07:34:13Z</time>
      </trkpt>
      <trkpt lat="45.7369" lon="4.28822">
        <ele>370.73</ele>
        <time>2016-08-04T07:34:28Z</time>
      </trkpt>
      <trkpt lat="45.73679" lon="4.28825">
        <ele>369.76</ele>
        <time>2016-08-04T07:34:42Z</time>
      </trkpt>
      <trkpt lat="45.73675" lon="4.28824">
        <ele>368.32</ele>
        <time>2016-08-04T07:34:55Z</time>
      </trkpt>
      <trkpt lat="45.73664" lon="4.28828">
        <ele>368.32</ele>
        <time>2016-08-04T07:35:10Z</time>
      </trkpt>
      <trkpt lat="45.73664" lon="4.28832">
        <ele>368.32</ele>
        <time>2016-08-04T07:35:20Z</time>
      </trkpt>
      <trkpt lat="45.73664" lon="4.28848">
        <ele>372.65</ele>
        <time>2016-08-04T07:35:32Z</time>
      </trkpt>
      <trkpt lat="45.73669" lon="4.28874">
        <ele>374.09</ele>
        <time>2016-08-04T07:35:49Z</time>
      </trkpt>
      <trkpt lat="45.73668" lon="4.28875">
        <ele>374.57</ele>
        <time>2016-08-04T07:35:54Z</time>
      </trkpt>
      <trkpt lat="45.73672" lon="4.28894">
        <ele>376.49</ele>
        <time>2016-08-04T07:36:07Z</time>
      </trkpt>
      <trkpt lat="45.73674" lon="4.28916">
        <ele>377.94</ele>
        <time>2016-08-04T07:36:20Z</time>
      </trkpt>
      <trkpt lat="45.73672" lon="4.28945">
        <ele>381.78</ele>
        <time>2016-08-04T07:36:36Z</time>
      </trkpt>
      <trkpt lat="45.73672" lon="4.28961">
        <ele>385.15</ele>
        <time>2016-08-04T07:36:46Z</time>
      </trkpt>
      <trkpt lat="45.73673" lon="4.28983">
        <ele>389.47</ele>
        <time>2016-08-04T07:37:00Z</time>
      </trkpt>
      <trkpt lat="45.73674" lon="4.28993">
        <ele>390.43</ele>
        <time>2016-08-04T07:37:06Z</time>
      </trkpt>
      <trkpt lat="45.73685" lon="4.2901">
        <ele>392.84</ele>
        <time>2016-08-04T07:37:21Z</time>
      </trkpt>
      <trkpt lat="45.73692" lon="4.2902">
        <ele>389.47</ele>
        <time>2016-08-04T07:37:36Z</time>
      </trkpt>
      <trkpt lat="45.73694" lon="4.29023">
        <ele>385.15</ele>
        <time>2016-08-04T07:37:52Z</time>
      </trkpt>
      <trkpt lat="45.73688" lon="4.29013">
        <ele>384.18</ele>
        <time>2016-08-04T07:38:05Z</time>
      </trkpt>
      <trkpt lat="45.73674" lon="4.28994">
        <ele>383.22</ele>
        <time>2016-08-04T07:38:20Z</time>
      </trkpt>
      <trkpt lat="45.73673" lon="4.28965">
        <ele>380.34</ele>
        <time>2016-08-04T07:38:37Z</time>
      </trkpt>
      <trkpt lat="45.73673" lon="4.28936">
        <ele>379.86</ele>
        <time>2016-08-04T07:38:56Z</time>
      </trkpt>
      <trkpt lat="45.73675" lon="4.28931">
        <ele>378.9</ele>
        <time>2016-08-04T07:39:03Z</time>
      </trkpt>
      <trkpt lat="45.7368" lon="4.28934">
        <ele>378.9</ele>
        <time>2016-08-04T07:39:08Z</time>
      </trkpt>
      <trkpt lat="45.73699" lon="4.2894">
        <ele>378.42</ele>
        <time>2016-08-04T07:39:24Z</time>
      </trkpt>
      <trkpt lat="45.7372" lon="4.28945">
        <ele>378.42</ele>
        <time>2016-08-04T07:39:41Z</time>
      </trkpt>
      <trkpt lat="45.73733" lon="4.28948">
        <ele>379.38</ele>
        <time>2016-08-04T07:39:56Z</time>
      </trkpt>
      <trkpt lat="45.73744" lon="4.28977">
        <ele>376.97</ele>
        <time>2016-08-04T07:40:13Z</time>
      </trkpt>
      <trkpt lat="45.73746" lon="4.29008">
        <ele>376.01</ele>
        <time>2016-08-04T07:40:30Z</time>
      </trkpt>
      <trkpt lat="45.73746" lon="4.29028">
        <ele>375.53</ele>
        <time>2016-08-04T07:40:41Z</time>
      </trkpt>
      <trkpt lat="45.73745" lon="4.29059">
        <ele>376.49</ele>
        <time>2016-08-04T07:40:59Z</time>
      </trkpt>
      <trkpt lat="45.7374" lon="4.29088">
        <ele>375.05</ele>
        <time>2016-08-04T07:41:14Z</time>
      </trkpt>
      <trkpt lat="45.73742" lon="4.29125">
        <ele>375.53</ele>
        <time>2016-08-04T07:41:34Z</time>
      </trkpt>
      <trkpt lat="45.73745" lon="4.29157">
        <ele>376.01</ele>
        <time>2016-08-04T07:41:51Z</time>
      </trkpt>
      <trkpt lat="45.73744" lon="4.29194">
        <ele>375.05</ele>
        <time>2016-08-04T07:42:10Z</time>
      </trkpt>
      <trkpt lat="45.73742" lon="4.29205">
        <ele>375.53</ele>
        <time>2016-08-04T07:42:16Z</time>
      </trkpt>
      <trkpt lat="45.73732" lon="4.29236">
        <ele>379.38</ele>
        <time>2016-08-04T07:42:34Z</time>
      </trkpt>
      <trkpt lat="45.73727" lon="4.29247">
        <ele>381.78</ele>
        <time>2016-08-04T07:42:41Z</time>
      </trkpt>
      <trkpt lat="45.73726" lon="4.29257">
        <ele>384.18</ele>
        <time>2016-08-04T07:42:47Z</time>
      </trkpt>
      <trkpt lat="45.73719" lon="4.29281">
        <ele>391.87</ele>
        <time>2016-08-04T07:43:03Z</time>
      </trkpt>
      <trkpt lat="45.73715" lon="4.29303">
        <ele>399.57</ele>
        <time>2016-08-04T07:43:18Z</time>
      </trkpt>
      <trkpt lat="45.73709" lon="4.29319">
        <ele>404.85</ele>
        <time>2016-08-04T07:43:30Z</time>
      </trkpt>
      <trkpt lat="45.737" lon="4.29347">
        <ele>409.18</ele>
        <time>2016-08-04T07:43:46Z</time>
      </trkpt>
      <trkpt lat="45.73699" lon="4.29358">
        <ele>410.14</ele>
        <time>2016-08-04T07:43:53Z</time>
      </trkpt>
      <trkpt lat="45.73695" lon="4.29374">
        <ele>411.1</ele>
        <time>2016-08-04T07:44:02Z</time>
      </trkpt>
      <trkpt lat="45.73677" lon="4.29411">
        <ele>405.81</ele>
        <time>2016-08-04T07:44:20Z</time>
      </trkpt>
      <trkpt lat="45.73677" lon="4.29413">
        <ele>404.85</ele>
        <time>2016-08-04T07:44:21Z</time>
      </trkpt>
      <trkpt lat="45.73678" lon="4.29418">
        <ele>403.41</ele>
        <time>2016-08-04T07:44:24Z</time>
      </trkpt>
      <trkpt lat="45.73681" lon="4.29431">
        <ele>400.05</ele>
        <time>2016-08-04T07:44:32Z</time>
      </trkpt>
      <trkpt lat="45.73692" lon="4.29466">
        <ele>399.08</ele>
        <time>2016-08-04T07:44:47Z</time>
      </trkpt>
      <trkpt lat="45.73696" lon="4.29501">
        <ele>394.76</ele>
        <time>2016-08-04T07:45:03Z</time>
      </trkpt>
      <trkpt lat="45.73695" lon="4.29528">
        <ele>391.87</ele>
        <time>2016-08-04T07:45:20Z</time>
      </trkpt>
      <trkpt lat="45.73698" lon="4.29541">
        <ele>393.32</ele>
        <time>2016-08-04T07:45:34Z</time>
      </trkpt>
      <trkpt lat="45.73704" lon="4.29564">
        <ele>398.6</ele>
        <time>2016-08-04T07:45:49Z</time>
      </trkpt>
      <trkpt lat="45.73711" lon="4.29591">
        <ele>406.77</ele>
        <time>2016-08-04T07:46:05Z</time>
      </trkpt>
      <trkpt lat="45.73712" lon="4.29597">
        <ele>408.22</ele>
        <time>2016-08-04T07:46:08Z</time>
      </trkpt>
      <trkpt lat="45.73719" lon="4.29615">
        <ele>411.58</ele>
        <time>2016-08-04T07:46:18Z</time>
      </trkpt>
      <trkpt lat="45.73726" lon="4.29615">
        <ele>411.58</ele>
        <time>2016-08-04T07:46:22Z</time>
      </trkpt>
      <trkpt lat="45.73743" lon="4.29605">
        <ele>412.54</ele>
        <time>2016-08-04T07:46:38Z</time>
      </trkpt>
      <trkpt lat="45.73756" lon="4.29619">
        <ele>415.43</ele>
        <time>2016-08-04T07:46:53Z</time>
      </trkpt>
      <trkpt lat="45.73766" lon="4.29642">
        <ele>412.06</ele>
        <time>2016-08-04T07:47:06Z</time>
      </trkpt>
      <trkpt lat="45.73767" lon="4.29647">
        <ele>411.1</ele>
        <time>2016-08-04T07:47:09Z</time>
      </trkpt>
      <trkpt lat="45.73772" lon="4.29671">
        <ele>408.22</ele>
        <time>2016-08-04T07:47:23Z</time>
      </trkpt>
      <trkpt lat="45.73776" lon="4.29694">
        <ele>407.26</ele>
        <time>2016-08-04T07:47:36Z</time>
      </trkpt>
      <trkpt lat="45.73775" lon="4.29703">
        <ele>407.26</ele>
        <time>2016-08-04T07:47:41Z</time>
      </trkpt>
      <trkpt lat="45.73776" lon="4.29714">
        <ele>404.37</ele>
        <time>2016-08-04T07:47:47Z</time>
      </trkpt>
      <trkpt lat="45.73771" lon="4.29735">
        <ele>405.81</ele>
        <time>2016-08-04T07:48:03Z</time>
      </trkpt>
      <trkpt lat="45.73767" lon="4.29747">
        <ele>410.62</ele>
        <time>2016-08-04T07:48:15Z</time>
      </trkpt>
      <trkpt lat="45.73767" lon="4.29748">
        <ele>411.1</ele>
        <time>2016-08-04T07:48:16Z</time>
      </trkpt>
      <trkpt lat="45.73764" lon="4.29767">
        <ele>415.91</ele>
        <time>2016-08-04T07:48:30Z</time>
      </trkpt>
      <trkpt lat="45.73762" lon="4.29775">
        <ele>418.31</ele>
        <time>2016-08-04T07:48:36Z</time>
      </trkpt>
      <trkpt lat="45.73751" lon="4.29795">
        <ele>420.23</ele>
        <time>2016-08-04T07:48:51Z</time>
      </trkpt>
      <trkpt lat="45.73743" lon="4.29813">
        <ele>425.52</ele>
        <time>2016-08-04T07:49:08Z</time>
      </trkpt>
      <trkpt lat="45.73739" lon="4.29824">
        <ele>428.4</ele>
        <time>2016-08-04T07:49:16Z</time>
      </trkpt>
      <trkpt lat="45.7374" lon="4.29836">
        <ele>430.81</ele>
        <time>2016-08-04T07:49:24Z</time>
      </trkpt>
      <trkpt lat="45.73738" lon="4.29839">
        <ele>430.81</ele>
        <time>2016-08-04T07:49:27Z</time>
      </trkpt>
      <trkpt lat="45.73734" lon="4.29846">
        <ele>433.69</ele>
        <time>2016-08-04T07:49:40Z</time>
      </trkpt>
      <trkpt lat="45.73742" lon="4.29853">
        <ele>438.02</ele>
        <time>2016-08-04T07:49:52Z</time>
      </trkpt>
      <trkpt lat="45.73748" lon="4.29864">
        <ele>442.82</ele>
        <time>2016-08-04T07:50:05Z</time>
      </trkpt>
      <trkpt lat="45.73761" lon="4.29875">
        <ele>445.71</ele>
        <time>2016-08-04T07:50:16Z</time>
      </trkpt>
      <trkpt lat="45.73771" lon="4.29882">
        <ele>449.55</ele>
        <time>2016-08-04T07:50:25Z</time>
      </trkpt>
      <trkpt lat="45.7378" lon="4.299">
        <ele>458.69</ele>
        <time>2016-08-04T07:50:41Z</time>
      </trkpt>
      <trkpt lat="45.73786" lon="4.29915">
        <ele>463.97</ele>
        <time>2016-08-04T07:50:56Z</time>
      </trkpt>
      <trkpt lat="45.73793" lon="4.29936">
        <ele>467.34</ele>
        <time>2016-08-04T07:51:10Z</time>
      </trkpt>
      <trkpt lat="45.73804" lon="4.29959">
        <ele>464.93</ele>
        <time>2016-08-04T07:51:25Z</time>
      </trkpt>
      <trkpt lat="45.73809" lon="4.29975">
        <ele>466.86</ele>
        <time>2016-08-04T07:51:39Z</time>
      </trkpt>
      <trkpt lat="45.73817" lon="4.29993">
        <ele>466.86</ele>
        <time>2016-08-04T07:51:53Z</time>
      </trkpt>
      <trkpt lat="45.73823" lon="4.30013">
        <ele>471.66</ele>
        <time>2016-08-04T07:52:08Z</time>
      </trkpt>
      <trkpt lat="45.7383" lon="4.30038">
        <ele>468.3</ele>
        <time>2016-08-04T07:52:22Z</time>
      </trkpt>
      <trkpt lat="45.73834" lon="4.30058">
        <ele>468.3</ele>
        <time>2016-08-04T07:52:35Z</time>
      </trkpt>
      <trkpt lat="45.73837" lon="4.30078">
        <ele>465.9</ele>
        <time>2016-08-04T07:52:48Z</time>
      </trkpt>
      <trkpt lat="45.73841" lon="4.30106">
        <ele>464.45</ele>
        <time>2016-08-04T07:53:02Z</time>
      </trkpt>
      <trkpt lat="45.73848" lon="4.30128">
        <ele>462.05</ele>
        <time>2016-08-04T07:53:16Z</time>
      </trkpt>
      <trkpt lat="45.73848" lon="4.30131">
        <ele>461.57</ele>
        <time>2016-08-04T07:53:18Z</time>
      </trkpt>
      <trkpt lat="45.7385" lon="4.30135">
        <ele>461.57</ele>
        <time>2016-08-04T07:53:21Z</time>
      </trkpt>
      <trkpt lat="45.73854" lon="4.30158">
        <ele>464.93</ele>
        <time>2016-08-04T07:53:36Z</time>
      </trkpt>
      <trkpt lat="45.7386" lon="4.30185">
        <ele>466.38</ele>
        <time>2016-08-04T07:53:53Z</time>
      </trkpt>
      <trkpt lat="45.73869" lon="4.3021">
        <ele>466.86</ele>
        <time>2016-08-04T07:54:09Z</time>
      </trkpt>
      <trkpt lat="45.73881" lon="4.30238">
        <ele>463.49</ele>
        <time>2016-08-04T07:54:25Z</time>
      </trkpt>
      <trkpt lat="45.73892" lon="4.30262">
        <ele>464.45</ele>
        <time>2016-08-04T07:54:40Z</time>
      </trkpt>
      <trkpt lat="45.73905" lon="4.30278">
        <ele>466.86</ele>
        <time>2016-08-04T07:54:54Z</time>
      </trkpt>
      <trkpt lat="45.73921" lon="4.30291">
        <ele>469.74</ele>
        <time>2016-08-04T07:55:10Z</time>
      </trkpt>
      <trkpt lat="45.73935" lon="4.30306">
        <ele>471.18</ele>
        <time>2016-08-04T07:55:24Z</time>
      </trkpt>
      <trkpt lat="45.73951" lon="4.30326">
        <ele>469.26</ele>
        <time>2016-08-04T07:55:39Z</time>
      </trkpt>
      <trkpt lat="45.73968" lon="4.30349">
        <ele>468.78</ele>
        <time>2016-08-04T07:55:56Z</time>
      </trkpt>
      <trkpt lat="45.73982" lon="4.30374">
        <ele>469.26</ele>
        <time>2016-08-04T07:56:13Z</time>
      </trkpt>
      <trkpt lat="45.7399" lon="4.30392">
        <ele>471.18</ele>
        <time>2016-08-04T07:56:25Z</time>
      </trkpt>
      <trkpt lat="45.74" lon="4.30415">
        <ele>473.59</ele>
        <time>2016-08-04T07:56:40Z</time>
      </trkpt>
      <trkpt lat="45.74013" lon="4.30446">
        <ele>475.51</ele>
        <time>2016-08-04T07:56:58Z</time>
      </trkpt>
      <trkpt lat="45.74033" lon="4.30466">
        <ele>474.07</ele>
        <time>2016-08-04T07:57:16Z</time>
      </trkpt>
      <trkpt lat="45.74045" lon="4.30486">
        <ele>478.39</ele>
        <time>2016-08-04T07:57:31Z</time>
      </trkpt>
      <trkpt lat="45.74056" lon="4.3051">
        <ele>479.35</ele>
        <time>2016-08-04T07:57:46Z</time>
      </trkpt>
      <trkpt lat="45.74067" lon="4.30539">
        <ele>479.35</ele>
        <time>2016-08-04T07:58:04Z</time>
      </trkpt>
      <trkpt lat="45.74074" lon="4.30564">
        <ele>479.84</ele>
        <time>2016-08-04T07:58:19Z</time>
      </trkpt>
      <trkpt lat="45.74082" lon="4.30587">
        <ele>481.76</ele>
        <time>2016-08-04T07:58:34Z</time>
      </trkpt>
      <trkpt lat="45.74093" lon="4.30613">
        <ele>483.68</ele>
        <time>2016-08-04T07:58:51Z</time>
      </trkpt>
      <trkpt lat="45.74103" lon="4.30632">
        <ele>484.64</ele>
        <time>2016-08-04T07:59:05Z</time>
      </trkpt>
      <trkpt lat="45.74115" lon="4.30646">
        <ele>487.53</ele>
        <time>2016-08-04T07:59:18Z</time>
      </trkpt>
      <trkpt lat="45.7413" lon="4.30664">
        <ele>491.37</ele>
        <time>2016-08-04T07:59:34Z</time>
      </trkpt>
      <trkpt lat="45.74143" lon="4.30682">
        <ele>492.33</ele>
        <time>2016-08-04T07:59:48Z</time>
      </trkpt>
      <trkpt lat="45.74158" lon="4.30701">
        <ele>494.74</ele>
        <time>2016-08-04T08:00:04Z</time>
      </trkpt>
      <trkpt lat="45.74173" lon="4.30726">
        <ele>496.66</ele>
        <time>2016-08-04T08:00:21Z</time>
      </trkpt>
      <trkpt lat="45.74186" lon="4.30746">
        <ele>498.58</ele>
        <time>2016-08-04T08:00:36Z</time>
      </trkpt>
      <trkpt lat="45.742" lon="4.30772">
        <ele>500.02</ele>
        <time>2016-08-04T08:00:53Z</time>
      </trkpt>
      <trkpt lat="45.74215" lon="4.30797">
        <ele>499.54</ele>
        <time>2016-08-04T08:01:11Z</time>
      </trkpt>
      <trkpt lat="45.74228" lon="4.30824">
        <ele>500.02</ele>
        <time>2016-08-04T08:01:28Z</time>
      </trkpt>
      <trkpt lat="45.74235" lon="4.30841">
        <ele>500.5</ele>
        <time>2016-08-04T08:01:39Z</time>
      </trkpt>
      <trkpt lat="45.74245" lon="4.30866">
        <ele>502.91</ele>
        <time>2016-08-04T08:01:55Z</time>
      </trkpt>
      <trkpt lat="45.74257" lon="4.30896">
        <ele>506.27</ele>
        <time>2016-08-04T08:02:13Z</time>
      </trkpt>
      <trkpt lat="45.74269" lon="4.30927">
        <ele>508.19</ele>
        <time>2016-08-04T08:02:32Z</time>
      </trkpt>
      <trkpt lat="45.74284" lon="4.30958">
        <ele>508.67</ele>
        <time>2016-08-04T08:02:51Z</time>
      </trkpt>
      <trkpt lat="45.743" lon="4.30981">
        <ele>508.67</ele>
        <time>2016-08-04T08:03:07Z</time>
      </trkpt>
      <trkpt lat="45.74318" lon="4.30994">
        <ele>510.12</ele>
        <time>2016-08-04T08:03:22Z</time>
      </trkpt>
      <trkpt lat="45.74343" lon="4.30999">
        <ele>509.64</ele>
        <time>2016-08-04T08:03:40Z</time>
      </trkpt>
      <trkpt lat="45.74364" lon="4.30997">
        <ele>511.56</ele>
        <time>2016-08-04T08:03:56Z</time>
      </trkpt>
      <trkpt lat="45.74386" lon="4.30994">
        <ele>512.04</ele>
        <time>2016-08-04T08:04:13Z</time>
      </trkpt>
      <trkpt lat="45.7441" lon="4.30991">
        <ele>513</ele>
        <time>2016-08-04T08:04:31Z</time>
      </trkpt>
      <trkpt lat="45.74429" lon="4.3099">
        <ele>513.48</ele>
        <time>2016-08-04T08:04:45Z</time>
      </trkpt>
      <trkpt lat="45.74448" lon="4.30996">
        <ele>515.88</ele>
        <time>2016-08-04T08:05:00Z</time>
      </trkpt>
      <trkpt lat="45.74466" lon="4.31004">
        <ele>518.77</ele>
        <time>2016-08-04T08:05:15Z</time>
      </trkpt>
      <trkpt lat="45.74483" lon="4.3101">
        <ele>522.13</ele>
        <time>2016-08-04T08:05:28Z</time>
      </trkpt>
      <trkpt lat="45.74494" lon="4.31017">
        <ele>524.06</ele>
        <time>2016-08-04T08:05:44Z</time>
      </trkpt>
      <trkpt lat="45.74495" lon="4.31022">
        <ele>522.61</ele>
        <time>2016-08-04T08:05:58Z</time>
      </trkpt>
      <trkpt lat="45.74498" lon="4.31026">
        <ele>521.17</ele>
        <time>2016-08-04T08:06:09Z</time>
      </trkpt>
      <trkpt lat="45.74498" lon="4.31029">
        <ele>519.73</ele>
        <time>2016-08-04T08:06:27Z</time>
      </trkpt>
      <trkpt lat="45.74497" lon="4.31029">
        <ele>518.77</ele>
        <time>2016-08-04T08:06:45Z</time>
      </trkpt>
      <trkpt lat="45.74498" lon="4.3103">
        <ele>518.77</ele>
        <time>2016-08-04T08:07:06Z</time>
      </trkpt>
      <trkpt lat="45.74497" lon="4.3103">
        <ele>518.77</ele>
        <time>2016-08-04T08:07:25Z</time>
      </trkpt>
      <trkpt lat="45.74497" lon="4.3103">
        <ele>518.29</ele>
        <time>2016-08-04T08:07:49Z</time>
      </trkpt>
      <trkpt lat="45.74498" lon="4.3103">
        <ele>518.29</ele>
        <time>2016-08-04T08:08:22Z</time>
      </trkpt>
      <trkpt lat="45.74498" lon="4.31029">
        <ele>517.81</ele>
        <time>2016-08-04T08:08:47Z</time>
      </trkpt>
      <trkpt lat="45.74498" lon="4.3103">
        <ele>517.33</ele>
        <time>2016-08-04T08:09:09Z</time>
      </trkpt>
      <trkpt lat="45.74498" lon="4.3103">
        <ele>517.33</ele>
        <time>2016-08-04T08:09:29Z</time>
      </trkpt>
      <trkpt lat="45.74498" lon="4.31031">
        <ele>516.85</ele>
        <time>2016-08-04T08:09:50Z</time>
      </trkpt>
      <trkpt lat="45.74497" lon="4.31031">
        <ele>516.85</ele>
        <time>2016-08-04T08:10:08Z</time>
      </trkpt>
      <trkpt lat="45.74497" lon="4.31031">
        <ele>516.37</ele>
        <time>2016-08-04T08:10:32Z</time>
      </trkpt>
      <trkpt lat="45.74497" lon="4.31032">
        <ele>515.88</ele>
        <time>2016-08-04T08:11:05Z</time>
      </trkpt>
      <trkpt lat="45.74497" lon="4.31032">
        <ele>515.88</ele>
        <time>2016-08-04T08:11:26Z</time>
      </trkpt>
      <trkpt lat="45.74497" lon="4.31032">
        <ele>515.4</ele>
        <time>2016-08-04T08:11:45Z</time>
      </trkpt>
      <trkpt lat="45.74496" lon="4.31032">
        <ele>515.88</ele>
        <time>2016-08-04T08:12:01Z</time>
      </trkpt>
      <trkpt lat="45.74496" lon="4.31028">
        <ele>516.37</ele>
        <time>2016-08-04T08:12:09Z</time>
      </trkpt>
      <trkpt lat="45.74497" lon="4.31014">
        <ele>518.29</ele>
        <time>2016-08-04T08:12:19Z</time>
      </trkpt>
      <trkpt lat="45.74514" lon="4.3099">
        <ele>521.65</ele>
        <time>2016-08-04T08:12:37Z</time>
      </trkpt>
      <trkpt lat="45.74528" lon="4.30979">
        <ele>523.09</ele>
        <time>2016-08-04T08:12:50Z</time>
      </trkpt>
      <trkpt lat="45.74543" lon="4.30963">
        <ele>525.5</ele>
        <time>2016-08-04T08:13:06Z</time>
      </trkpt>
      <trkpt lat="45.74546" lon="4.30944">
        <ele>526.46</ele>
        <time>2016-08-04T08:13:19Z</time>
      </trkpt>
      <trkpt lat="45.74548" lon="4.30929">
        <ele>528.38</ele>
        <time>2016-08-04T08:13:29Z</time>
      </trkpt>
      <trkpt lat="45.74554" lon="4.30919">
        <ele>528.86</ele>
        <time>2016-08-04T08:13:42Z</time>
      </trkpt>
      <trkpt lat="45.74554" lon="4.30911">
        <ele>528.86</ele>
        <time>2016-08-04T08:13:53Z</time>
      </trkpt>
      <trkpt lat="45.74559" lon="4.30889">
        <ele>529.34</ele>
        <time>2016-08-04T08:14:09Z</time>
      </trkpt>
      <trkpt lat="45.7456" lon="4.30886">
        <ele>528.86</ele>
        <time>2016-08-04T08:14:23Z</time>
      </trkpt>
      <trkpt lat="45.74562" lon="4.30886">
        <ele>528.86</ele>
        <time>2016-08-04T08:14:42Z</time>
      </trkpt>
      <trkpt lat="45.74563" lon="4.30884">
        <ele>528.86</ele>
        <time>2016-08-04T08:14:57Z</time>
      </trkpt>
      <trkpt lat="45.74562" lon="4.30884">
        <ele>529.34</ele>
        <time>2016-08-04T08:15:21Z</time>
      </trkpt>
      <trkpt lat="45.74562" lon="4.30883">
        <ele>529.34</ele>
        <time>2016-08-04T08:15:38Z</time>
      </trkpt>
      <trkpt lat="45.74562" lon="4.30883">
        <ele>529.82</ele>
        <time>2016-08-04T08:15:58Z</time>
      </trkpt>
      <trkpt lat="45.74563" lon="4.30887">
        <ele>529.82</ele>
        <time>2016-08-04T08:16:10Z</time>
      </trkpt>
      <trkpt lat="45.74563" lon="4.30888">
        <ele>530.3</ele>
        <time>2016-08-04T08:16:33Z</time>
      </trkpt>
      <trkpt lat="45.74563" lon="4.30887">
        <ele>530.3</ele>
        <time>2016-08-04T08:16:53Z</time>
      </trkpt>
      <trkpt lat="45.74564" lon="4.30887">
        <ele>529.82</ele>
        <time>2016-08-04T08:17:07Z</time>
      </trkpt>
      <trkpt lat="45.74564" lon="4.30887">
        <ele>529.34</ele>
        <time>2016-08-04T08:17:24Z</time>
      </trkpt>
      <trkpt lat="45.74564" lon="4.30886">
        <ele>529.82</ele>
        <time>2016-08-04T08:17:52Z</time>
      </trkpt>
      <trkpt lat="45.74566" lon="4.30885">
        <ele>528.38</ele>
        <time>2016-08-04T08:18:09Z</time>
      </trkpt>
      <trkpt lat="45.74565" lon="4.30885">
        <ele>527.9</ele>
        <time>2016-08-04T08:18:33Z</time>
      </trkpt>
      <trkpt lat="45.74564" lon="4.30886">
        <ele>527.42</ele>
        <time>2016-08-04T08:18:45Z</time>
      </trkpt>
      <trkpt lat="45.74564" lon="4.30886">
        <ele>527.42</ele>
        <time>2016-08-04T08:18:59Z</time>
      </trkpt>
      <trkpt lat="45.74566" lon="4.30886">
        <ele>527.42</ele>
        <time>2016-08-04T08:19:11Z</time>
      </trkpt>
      <trkpt lat="45.74567" lon="4.30882">
        <ele>527.42</ele>
        <time>2016-08-04T08:19:25Z</time>
      </trkpt>
      <trkpt lat="45.74566" lon="4.30882">
        <ele>527.9</ele>
        <time>2016-08-04T08:19:47Z</time>
      </trkpt>
      <trkpt lat="45.74566" lon="4.30882">
        <ele>527.9</ele>
        <time>2016-08-04T08:20:07Z</time>
      </trkpt>
      <trkpt lat="45.74563" lon="4.30887">
        <ele>528.86</ele>
        <time>2016-08-04T08:20:24Z</time>
      </trkpt>
      <trkpt lat="45.74563" lon="4.30886">
        <ele>528.86</ele>
        <time>2016-08-04T08:20:39Z</time>
      </trkpt>
      <trkpt lat="45.74562" lon="4.30886">
        <ele>528.38</ele>
        <time>2016-08-04T08:20:58Z</time>
      </trkpt>
      <trkpt lat="45.74562" lon="4.30888">
        <ele>528.38</ele>
        <time>2016-08-04T08:21:14Z</time>
      </trkpt>
      <trkpt lat="45.74562" lon="4.30889">
        <ele>528.86</ele>
        <time>2016-08-04T08:21:28Z</time>
      </trkpt>
      <trkpt lat="45.74562" lon="4.3089">
        <ele>528.86</ele>
        <time>2016-08-04T08:21:53Z</time>
      </trkpt>
      <trkpt lat="45.7456" lon="4.30892">
        <ele>529.34</ele>
        <time>2016-08-04T08:22:08Z</time>
      </trkpt>
      <trkpt lat="45.74559" lon="4.30894">
        <ele>530.3</ele>
        <time>2016-08-04T08:22:23Z</time>
      </trkpt>
      <trkpt lat="45.74559" lon="4.30901">
        <ele>531.27</ele>
        <time>2016-08-04T08:22:35Z</time>
      </trkpt>
      <trkpt lat="45.74558" lon="4.3091">
        <ele>532.23</ele>
        <time>2016-08-04T08:22:49Z</time>
      </trkpt>
      <trkpt lat="45.74555" lon="4.30921">
        <ele>534.63</ele>
        <time>2016-08-04T08:23:02Z</time>
      </trkpt>
      <trkpt lat="45.74551" lon="4.30923">
        <ele>536.07</ele>
        <time>2016-08-04T08:23:07Z</time>
      </trkpt>
      <trkpt lat="45.74548" lon="4.3094">
        <ele>538.96</ele>
        <time>2016-08-04T08:23:22Z</time>
      </trkpt>
      <trkpt lat="45.74544" lon="4.30962">
        <ele>537.51</ele>
        <time>2016-08-04T08:23:37Z</time>
      </trkpt>
      <trkpt lat="45.74543" lon="4.30965">
        <ele>536.07</ele>
        <time>2016-08-04T08:23:40Z</time>
      </trkpt>
      <trkpt lat="45.74529" lon="4.30975">
        <ele>532.71</ele>
        <time>2016-08-04T08:23:56Z</time>
      </trkpt>
      <trkpt lat="45.74516" lon="4.30986">
        <ele>530.79</ele>
        <time>2016-08-04T08:24:12Z</time>
      </trkpt>
      <trkpt lat="45.74509" lon="4.30993">
        <ele>530.3</ele>
        <time>2016-08-04T08:24:19Z</time>
      </trkpt>
      <trkpt lat="45.74508" lon="4.30996">
        <ele>530.3</ele>
        <time>2016-08-04T08:24:21Z</time>
      </trkpt>
      <trkpt lat="45.74504" lon="4.31001">
        <ele>529.82</ele>
        <time>2016-08-04T08:24:26Z</time>
      </trkpt>
      <trkpt lat="45.74504" lon="4.31009">
        <ele>528.86</ele>
        <time>2016-08-04T08:24:31Z</time>
      </trkpt>
      <trkpt lat="45.74506" lon="4.31036">
        <ele>530.3</ele>
        <time>2016-08-04T08:24:48Z</time>
      </trkpt>
      <trkpt lat="45.74514" lon="4.31059">
        <ele>532.23</ele>
        <time>2016-08-04T08:25:03Z</time>
      </trkpt>
      <trkpt lat="45.74518" lon="4.31064">
        <ele>533.19</ele>
        <time>2016-08-04T08:25:07Z</time>
      </trkpt>
      <trkpt lat="45.74531" lon="4.31087">
        <ele>537.51</ele>
        <time>2016-08-04T08:25:24Z</time>
      </trkpt>
      <trkpt lat="45.7454" lon="4.3111">
        <ele>540.4</ele>
        <time>2016-08-04T08:25:39Z</time>
      </trkpt>
      <trkpt lat="45.74538" lon="4.3113">
        <ele>555.3</ele>
        <time>2016-08-04T08:25:57Z</time>
      </trkpt>
      <trkpt lat="45.74535" lon="4.31144">
        <ele>561.07</ele>
        <time>2016-08-04T08:26:06Z</time>
      </trkpt>
      <trkpt lat="45.74533" lon="4.31172">
        <ele>562.99</ele>
        <time>2016-08-04T08:26:24Z</time>
      </trkpt>
      <trkpt lat="45.74529" lon="4.31198">
        <ele>570.2</ele>
        <time>2016-08-04T08:26:42Z</time>
      </trkpt>
      <trkpt lat="45.74529" lon="4.31208">
        <ele>570.68</ele>
        <time>2016-08-04T08:26:48Z</time>
      </trkpt>
      <trkpt lat="45.74548" lon="4.31245">
        <ele>552.9</ele>
        <time>2016-08-04T08:27:08Z</time>
      </trkpt>
      <trkpt lat="45.7456" lon="4.31273">
        <ele>539.92</ele>
        <time>2016-08-04T08:27:24Z</time>
      </trkpt>
      <trkpt lat="45.74577" lon="4.3128">
        <ele>530.3</ele>
        <time>2016-08-04T08:27:38Z</time>
      </trkpt>
      <trkpt lat="45.74593" lon="4.31287">
        <ele>527.9</ele>
        <time>2016-08-04T08:27:52Z</time>
      </trkpt>
      <trkpt lat="45.74615" lon="4.31294">
        <ele>525.02</ele>
        <time>2016-08-04T08:28:09Z</time>
      </trkpt>
      <trkpt lat="45.74638" lon="4.31296">
        <ele>521.65</ele>
        <time>2016-08-04T08:28:26Z</time>
      </trkpt>
      <trkpt lat="45.74659" lon="4.313">
        <ele>519.25</ele>
        <time>2016-08-04T08:28:43Z</time>
      </trkpt>
      <trkpt lat="45.74676" lon="4.31308">
        <ele>516.85</ele>
        <time>2016-08-04T08:28:59Z</time>
      </trkpt>
      <trkpt lat="45.74694" lon="4.31318">
        <ele>513</ele>
        <time>2016-08-04T08:29:15Z</time>
      </trkpt>
      <trkpt lat="45.74711" lon="4.31331">
        <ele>509.64</ele>
        <time>2016-08-04T08:29:31Z</time>
      </trkpt>
      <trkpt lat="45.74729" lon="4.31348">
        <ele>507.23</ele>
        <time>2016-08-04T08:29:49Z</time>
      </trkpt>
      <trkpt lat="45.74744" lon="4.31363">
        <ele>506.27</ele>
        <time>2016-08-04T08:30:04Z</time>
      </trkpt>
      <trkpt lat="45.74759" lon="4.31366">
        <ele>502.43</ele>
        <time>2016-08-04T08:30:19Z</time>
      </trkpt>
      <trkpt lat="45.74776" lon="4.31362">
        <ele>501.95</ele>
        <time>2016-08-04T08:30:33Z</time>
      </trkpt>
      <trkpt lat="45.74795" lon="4.3136">
        <ele>501.95</ele>
        <time>2016-08-04T08:30:48Z</time>
      </trkpt>
      <trkpt lat="45.74816" lon="4.31352">
        <ele>502.43</ele>
        <time>2016-08-04T08:31:04Z</time>
      </trkpt>
      <trkpt lat="45.74828" lon="4.31347">
        <ele>501.95</ele>
        <time>2016-08-04T08:31:17Z</time>
      </trkpt>
      <trkpt lat="45.74838" lon="4.31346">
        <ele>499.06</ele>
        <time>2016-08-04T08:31:28Z</time>
      </trkpt>
      <trkpt lat="45.74851" lon="4.31344">
        <ele>494.74</ele>
        <time>2016-08-04T08:31:43Z</time>
      </trkpt>
      <trkpt lat="45.74865" lon="4.3134">
        <ele>490.41</ele>
        <time>2016-08-04T08:31:58Z</time>
      </trkpt>
      <trkpt lat="45.74881" lon="4.31331">
        <ele>487.05</ele>
        <time>2016-08-04T08:32:15Z</time>
      </trkpt>
      <trkpt lat="45.74895" lon="4.31323">
        <ele>484.16</ele>
        <time>2016-08-04T08:32:28Z</time>
      </trkpt>
      <trkpt lat="45.74912" lon="4.31313">
        <ele>481.76</ele>
        <time>2016-08-04T08:32:43Z</time>
      </trkpt>
      <trkpt lat="45.7493" lon="4.31302">
        <ele>478.87</ele>
        <time>2016-08-04T08:33:01Z</time>
      </trkpt>
      <trkpt lat="45.74946" lon="4.31289">
        <ele>475.99</ele>
        <time>2016-08-04T08:33:17Z</time>
      </trkpt>
      <trkpt lat="45.74959" lon="4.31278">
        <ele>476.47</ele>
        <time>2016-08-04T08:33:32Z</time>
      </trkpt>
      <trkpt lat="45.74973" lon="4.3127">
        <ele>476.47</ele>
        <time>2016-08-04T08:33:44Z</time>
      </trkpt>
      <trkpt lat="45.74984" lon="4.31256">
        <ele>474.55</ele>
        <time>2016-08-04T08:33:57Z</time>
      </trkpt>
      <trkpt lat="45.7499" lon="4.31235">
        <ele>472.14</ele>
        <time>2016-08-04T08:34:13Z</time>
      </trkpt>
      <trkpt lat="45.74995" lon="4.31234">
        <ele>470.7</ele>
        <time>2016-08-04T08:34:18Z</time>
      </trkpt>
      <trkpt lat="45.75012" lon="4.31239">
        <ele>471.66</ele>
        <time>2016-08-04T08:34:35Z</time>
      </trkpt>
      <trkpt lat="45.75031" lon="4.3125">
        <ele>468.3</ele>
        <time>2016-08-04T08:34:53Z</time>
      </trkpt>
      <trkpt lat="45.75045" lon="4.31261">
        <ele>469.74</ele>
        <time>2016-08-04T08:35:07Z</time>
      </trkpt>
      <trkpt lat="45.75056" lon="4.31267">
        <ele>477.91</ele>
        <time>2016-08-04T08:35:20Z</time>
      </trkpt>
      <trkpt lat="45.75074" lon="4.3127">
        <ele>489.45</ele>
        <time>2016-08-04T08:35:35Z</time>
      </trkpt>
      <trkpt lat="45.75088" lon="4.31278">
        <ele>500.5</ele>
        <time>2016-08-04T08:35:50Z</time>
      </trkpt>
      <trkpt lat="45.75099" lon="4.31284">
        <ele>508.67</ele>
        <time>2016-08-04T08:36:02Z</time>
      </trkpt>
      <trkpt lat="45.75112" lon="4.31294">
        <ele>517.33</ele>
        <time>2016-08-04T08:36:17Z</time>
      </trkpt>
      <trkpt lat="45.75125" lon="4.31302">
        <ele>527.9</ele>
        <time>2016-08-04T08:36:33Z</time>
      </trkpt>
      <trkpt lat="45.7513" lon="4.31302">
        <ele>530.3</ele>
        <time>2016-08-04T08:36:37Z</time>
      </trkpt>
      <trkpt lat="45.75141" lon="4.31309">
        <ele>537.99</ele>
        <time>2016-08-04T08:36:51Z</time>
      </trkpt>
      <trkpt lat="45.75142" lon="4.31311">
        <ele>538.48</ele>
        <time>2016-08-04T08:36:53Z</time>
      </trkpt>
      <trkpt lat="45.75143" lon="4.31313">
        <ele>539.44</ele>
        <time>2016-08-04T08:36:55Z</time>
      </trkpt>
      <trkpt lat="45.75157" lon="4.31322">
        <ele>542.32</ele>
        <time>2016-08-04T08:37:11Z</time>
      </trkpt>
      <trkpt lat="45.75173" lon="4.31332">
        <ele>546.65</ele>
        <time>2016-08-04T08:37:27Z</time>
      </trkpt>
      <trkpt lat="45.7519" lon="4.31338">
        <ele>550.49</ele>
        <time>2016-08-04T08:37:40Z</time>
      </trkpt>
      <trkpt lat="45.75196" lon="4.31347">
        <ele>548.57</ele>
        <time>2016-08-04T08:37:53Z</time>
      </trkpt>
      <trkpt lat="45.75204" lon="4.31348">
        <ele>547.13</ele>
        <time>2016-08-04T08:38:08Z</time>
      </trkpt>
      <trkpt lat="45.75209" lon="4.3135">
        <ele>545.2</ele>
        <time>2016-08-04T08:38:20Z</time>
      </trkpt>
      <trkpt lat="45.75214" lon="4.31359">
        <ele>545.69</ele>
        <time>2016-08-04T08:38:32Z</time>
      </trkpt>
      <trkpt lat="45.75222" lon="4.31369">
        <ele>541.36</ele>
        <time>2016-08-04T08:38:47Z</time>
      </trkpt>
      <trkpt lat="45.75228" lon="4.31382">
        <ele>534.15</ele>
        <time>2016-08-04T08:38:53Z</time>
      </trkpt>
      <trkpt lat="45.75243" lon="4.31404">
        <ele>524.54</ele>
        <time>2016-08-04T08:39:08Z</time>
      </trkpt>
      <trkpt lat="45.75251" lon="4.31409">
        <ele>525.98</ele>
        <time>2016-08-04T08:39:16Z</time>
      </trkpt>
      <trkpt lat="45.75271" lon="4.31427">
        <ele>521.65</ele>
        <time>2016-08-04T08:39:33Z</time>
      </trkpt>
      <trkpt lat="45.75275" lon="4.31431">
        <ele>520.21</ele>
        <time>2016-08-04T08:39:36Z</time>
      </trkpt>
      <trkpt lat="45.75277" lon="4.31437">
        <ele>515.88</ele>
        <time>2016-08-04T08:39:38Z</time>
      </trkpt>
      <trkpt lat="45.75283" lon="4.31445">
        <ele>514.44</ele>
        <time>2016-08-04T08:39:44Z</time>
      </trkpt>
      <trkpt lat="45.753" lon="4.31461">
        <ele>507.71</ele>
        <time>2016-08-04T08:39:58Z</time>
      </trkpt>
      <trkpt lat="45.75309" lon="4.31492">
        <ele>493.29</ele>
        <time>2016-08-04T08:40:13Z</time>
      </trkpt>
      <trkpt lat="45.75314" lon="4.31512">
        <ele>497.14</ele>
        <time>2016-08-04T08:40:27Z</time>
      </trkpt>
      <trkpt lat="45.7532" lon="4.3153">
        <ele>503.87</ele>
        <time>2016-08-04T08:40:40Z</time>
      </trkpt>
      <trkpt lat="45.75323" lon="4.31553">
        <ele>507.71</ele>
        <time>2016-08-04T08:40:54Z</time>
      </trkpt>
      <trkpt lat="45.75324" lon="4.31555">
        <ele>508.19</ele>
        <time>2016-08-04T08:40:55Z</time>
      </trkpt>
      <trkpt lat="45.7533" lon="4.3158">
        <ele>506.75</ele>
        <time>2016-08-04T08:41:09Z</time>
      </trkpt>
      <trkpt lat="45.75335" lon="4.31609">
        <ele>498.1</ele>
        <time>2016-08-04T08:41:24Z</time>
      </trkpt>
      <trkpt lat="45.75342" lon="4.31629">
        <ele>494.26</ele>
        <time>2016-08-04T08:41:38Z</time>
      </trkpt>
      <trkpt lat="45.75349" lon="4.31646">
        <ele>502.43</ele>
        <time>2016-08-04T08:41:53Z</time>
      </trkpt>
      <trkpt lat="45.75358" lon="4.31666">
        <ele>508.67</ele>
        <time>2016-08-04T08:42:07Z</time>
      </trkpt>
      <trkpt lat="45.75357" lon="4.31669">
        <ele>511.08</ele>
        <time>2016-08-04T08:42:23Z</time>
      </trkpt>
      <trkpt lat="45.75365" lon="4.31668">
        <ele>511.08</ele>
        <time>2016-08-04T08:42:34Z</time>
      </trkpt>
      <trkpt lat="45.75373" lon="4.31669">
        <ele>510.6</ele>
        <time>2016-08-04T08:42:46Z</time>
      </trkpt>
      <trkpt lat="45.75386" lon="4.31663">
        <ele>509.16</ele>
        <time>2016-08-04T08:43:01Z</time>
      </trkpt>
      <trkpt lat="45.7539" lon="4.31682">
        <ele>490.89</ele>
        <time>2016-08-04T08:43:13Z</time>
      </trkpt>
      <trkpt lat="45.75392" lon="4.31685">
        <ele>490.41</ele>
        <time>2016-08-04T08:43:16Z</time>
      </trkpt>
      <trkpt lat="45.75402" lon="4.31702">
        <ele>484.16</ele>
        <time>2016-08-04T08:43:32Z</time>
      </trkpt>
      <trkpt lat="45.75409" lon="4.31694">
        <ele>479.35</ele>
        <time>2016-08-04T08:43:45Z</time>
      </trkpt>
      <trkpt lat="45.7541" lon="4.31693">
        <ele>479.35</ele>
        <time>2016-08-04T08:43:46Z</time>
      </trkpt>
      <trkpt lat="45.75427" lon="4.31685">
        <ele>475.03</ele>
        <time>2016-08-04T08:44:02Z</time>
      </trkpt>
      <trkpt lat="45.75428" lon="4.31684">
        <ele>474.07</ele>
        <time>2016-08-04T08:44:03Z</time>
      </trkpt>
      <trkpt lat="45.75428" lon="4.31678">
        <ele>472.63</ele>
        <time>2016-08-04T08:44:08Z</time>
      </trkpt>
      <trkpt lat="45.75425" lon="4.31662">
        <ele>472.63</ele>
        <time>2016-08-04T08:44:23Z</time>
      </trkpt>
      <trkpt lat="45.75428" lon="4.31653">
        <ele>471.18</ele>
        <time>2016-08-04T08:44:36Z</time>
      </trkpt>
      <trkpt lat="45.75427" lon="4.31647">
        <ele>470.22</ele>
        <time>2016-08-04T08:44:49Z</time>
      </trkpt>
      <trkpt lat="45.75424" lon="4.31644">
        <ele>470.22</ele>
        <time>2016-08-04T08:45:04Z</time>
      </trkpt>
      <trkpt lat="45.75415" lon="4.31623">
        <ele>472.63</ele>
        <time>2016-08-04T08:45:22Z</time>
      </trkpt>
      <trkpt lat="45.75414" lon="4.31622">
        <ele>472.63</ele>
        <time>2016-08-04T08:45:23Z</time>
      </trkpt>
      <trkpt lat="45.754" lon="4.31602">
        <ele>475.99</ele>
        <time>2016-08-04T08:45:40Z</time>
      </trkpt>
      <trkpt lat="45.75388" lon="4.3158">
        <ele>475.51</ele>
        <time>2016-08-04T08:45:55Z</time>
      </trkpt>
      <trkpt lat="45.75385" lon="4.31551">
        <ele>469.26</ele>
        <time>2016-08-04T08:46:11Z</time>
      </trkpt>
      <trkpt lat="45.754" lon="4.31546">
        <ele>468.3</ele>
        <time>2016-08-04T08:46:23Z</time>
      </trkpt>
      <trkpt lat="45.75407" lon="4.3156">
        <ele>470.22</ele>
        <time>2016-08-04T08:46:34Z</time>
      </trkpt>
      <trkpt lat="45.75409" lon="4.31566">
        <ele>471.18</ele>
        <time>2016-08-04T08:46:39Z</time>
      </trkpt>
      <trkpt lat="45.7542" lon="4.31584">
        <ele>474.55</ele>
        <time>2016-08-04T08:46:55Z</time>
      </trkpt>
      <trkpt lat="45.75434" lon="4.31598">
        <ele>475.51</ele>
        <time>2016-08-04T08:47:11Z</time>
      </trkpt>
      <trkpt lat="45.75435" lon="4.316">
        <ele>475.51</ele>
        <time>2016-08-04T08:47:13Z</time>
      </trkpt>
      <trkpt lat="45.7544" lon="4.31607">
        <ele>476.47</ele>
        <time>2016-08-04T08:47:18Z</time>
      </trkpt>
      <trkpt lat="45.75453" lon="4.31626">
        <ele>478.87</ele>
        <time>2016-08-04T08:47:35Z</time>
      </trkpt>
      <trkpt lat="45.7547" lon="4.31635">
        <ele>480.32</ele>
        <time>2016-08-04T08:47:50Z</time>
      </trkpt>
      <trkpt lat="45.75488" lon="4.31631">
        <ele>483.2</ele>
        <time>2016-08-04T08:48:07Z</time>
      </trkpt>
      <trkpt lat="45.75505" lon="4.31626">
        <ele>486.08</ele>
        <time>2016-08-04T08:48:22Z</time>
      </trkpt>
      <trkpt lat="45.75522" lon="4.3162">
        <ele>487.53</ele>
        <time>2016-08-04T08:48:37Z</time>
      </trkpt>
      <trkpt lat="45.75542" lon="4.31614">
        <ele>489.93</ele>
        <time>2016-08-04T08:48:54Z</time>
      </trkpt>
      <trkpt lat="45.7556" lon="4.31605">
        <ele>489.45</ele>
        <time>2016-08-04T08:49:12Z</time>
      </trkpt>
      <trkpt lat="45.75578" lon="4.31595">
        <ele>492.81</ele>
        <time>2016-08-04T08:49:27Z</time>
      </trkpt>
      <trkpt lat="45.75582" lon="4.31596">
        <ele>494.74</ele>
        <time>2016-08-04T08:49:33Z</time>
      </trkpt>
      <trkpt lat="45.75601" lon="4.31593">
        <ele>497.14</ele>
        <time>2016-08-04T08:49:50Z</time>
      </trkpt>
      <trkpt lat="45.75618" lon="4.3159">
        <ele>500.98</ele>
        <time>2016-08-04T08:50:03Z</time>
      </trkpt>
      <trkpt lat="45.75627" lon="4.31591">
        <ele>503.39</ele>
        <time>2016-08-04T08:50:09Z</time>
      </trkpt>
      <trkpt lat="45.75646" lon="4.31595">
        <ele>507.71</ele>
        <time>2016-08-04T08:50:22Z</time>
      </trkpt>
      <trkpt lat="45.75665" lon="4.31596">
        <ele>511.56</ele>
        <time>2016-08-04T08:50:37Z</time>
      </trkpt>
      <trkpt lat="45.75685" lon="4.31597">
        <ele>514.92</ele>
        <time>2016-08-04T08:50:52Z</time>
      </trkpt>
      <trkpt lat="45.75699" lon="4.31605">
        <ele>514.92</ele>
        <time>2016-08-04T08:51:04Z</time>
      </trkpt>
      <trkpt lat="45.75719" lon="4.3161">
        <ele>514.92</ele>
        <time>2016-08-04T08:51:19Z</time>
      </trkpt>
      <trkpt lat="45.75737" lon="4.31618">
        <ele>513</ele>
        <time>2016-08-04T08:51:33Z</time>
      </trkpt>
      <trkpt lat="45.75753" lon="4.31629">
        <ele>512.52</ele>
        <time>2016-08-04T08:51:46Z</time>
      </trkpt>
      <trkpt lat="45.75764" lon="4.31639">
        <ele>512.04</ele>
        <time>2016-08-04T08:51:57Z</time>
      </trkpt>
      <trkpt lat="45.75773" lon="4.31646">
        <ele>511.08</ele>
        <time>2016-08-04T08:52:05Z</time>
      </trkpt>
      <trkpt lat="45.75787" lon="4.31637">
        <ele>509.16</ele>
        <time>2016-08-04T08:52:18Z</time>
      </trkpt>
      <trkpt lat="45.75805" lon="4.31636">
        <ele>500.5</ele>
        <time>2016-08-04T08:52:37Z</time>
      </trkpt>
      <trkpt lat="45.75812" lon="4.31637">
        <ele>493.29</ele>
        <time>2016-08-04T08:52:42Z</time>
      </trkpt>
      <trkpt lat="45.7582" lon="4.31631">
        <ele>492.33</ele>
        <time>2016-08-04T08:52:48Z</time>
      </trkpt>
      <trkpt lat="45.75823" lon="4.31631">
        <ele>492.81</ele>
        <time>2016-08-04T08:52:50Z</time>
      </trkpt>
      <trkpt lat="45.75833" lon="4.31641">
        <ele>493.77</ele>
        <time>2016-08-04T08:53:04Z</time>
      </trkpt>
      <trkpt lat="45.75834" lon="4.31644">
        <ele>494.26</ele>
        <time>2016-08-04T08:53:06Z</time>
      </trkpt>
      <trkpt lat="45.7584" lon="4.31666">
        <ele>494.26</ele>
        <time>2016-08-04T08:53:18Z</time>
      </trkpt>
      <trkpt lat="45.7584" lon="4.31669">
        <ele>495.7</ele>
        <time>2016-08-04T08:53:21Z</time>
      </trkpt>
      <trkpt lat="45.75841" lon="4.31678">
        <ele>497.14</ele>
        <time>2016-08-04T08:53:25Z</time>
      </trkpt>
      <trkpt lat="45.75844" lon="4.31694">
        <ele>498.1</ele>
        <time>2016-08-04T08:53:34Z</time>
      </trkpt>
      <trkpt lat="45.75855" lon="4.31703">
        <ele>502.43</ele>
        <time>2016-08-04T08:53:48Z</time>
      </trkpt>
      <trkpt lat="45.75862" lon="4.31713">
        <ele>504.83</ele>
        <time>2016-08-04T08:53:58Z</time>
      </trkpt>
      <trkpt lat="45.75871" lon="4.31737">
        <ele>501.95</ele>
        <time>2016-08-04T08:54:12Z</time>
      </trkpt>
      <trkpt lat="45.75877" lon="4.31751">
        <ele>499.54</ele>
        <time>2016-08-04T08:54:23Z</time>
      </trkpt>
      <trkpt lat="45.75887" lon="4.31765">
        <ele>497.14</ele>
        <time>2016-08-04T08:54:35Z</time>
      </trkpt>
      <trkpt lat="45.75897" lon="4.31777">
        <ele>500.02</ele>
        <time>2016-08-04T08:54:48Z</time>
      </trkpt>
      <trkpt lat="45.75908" lon="4.31793">
        <ele>505.31</ele>
        <time>2016-08-04T08:55:03Z</time>
      </trkpt>
      <trkpt lat="45.75923" lon="4.31819">
        <ele>500.5</ele>
        <time>2016-08-04T08:55:18Z</time>
      </trkpt>
      <trkpt lat="45.75935" lon="4.31826">
        <ele>503.87</ele>
        <time>2016-08-04T08:55:31Z</time>
      </trkpt>
      <trkpt lat="45.75938" lon="4.31826">
        <ele>504.83</ele>
        <time>2016-08-04T08:55:33Z</time>
      </trkpt>
      <trkpt lat="45.75953" lon="4.31824">
        <ele>513.96</ele>
        <time>2016-08-04T08:55:45Z</time>
      </trkpt>
      <trkpt lat="45.7596" lon="4.3183">
        <ele>515.88</ele>
        <time>2016-08-04T08:55:55Z</time>
      </trkpt>
      <trkpt lat="45.75974" lon="4.31832">
        <ele>521.17</ele>
        <time>2016-08-04T08:56:06Z</time>
      </trkpt>
      <trkpt lat="45.7598" lon="4.31841">
        <ele>518.77</ele>
        <time>2016-08-04T08:56:13Z</time>
      </trkpt>
      <trkpt lat="45.75983" lon="4.31844">
        <ele>519.25</ele>
        <time>2016-08-04T08:56:16Z</time>
      </trkpt>
      <trkpt lat="45.75991" lon="4.31853">
        <ele>516.85</ele>
        <time>2016-08-04T08:56:23Z</time>
      </trkpt>
      <trkpt lat="45.76" lon="4.3187">
        <ele>511.08</ele>
        <time>2016-08-04T08:56:34Z</time>
      </trkpt>
      <trkpt lat="45.76017" lon="4.31884">
        <ele>514.92</ele>
        <time>2016-08-04T08:56:50Z</time>
      </trkpt>
      <trkpt lat="45.76031" lon="4.31902">
        <ele>515.88</ele>
        <time>2016-08-04T08:57:06Z</time>
      </trkpt>
      <trkpt lat="45.76045" lon="4.31921">
        <ele>518.29</ele>
        <time>2016-08-04T08:57:21Z</time>
      </trkpt>
      <trkpt lat="45.76054" lon="4.31928">
        <ele>519.73</ele>
        <time>2016-08-04T08:57:32Z</time>
      </trkpt>
      <trkpt lat="45.76065" lon="4.31939">
        <ele>524.06</ele>
        <time>2016-08-04T08:57:43Z</time>
      </trkpt>
      <trkpt lat="45.76081" lon="4.31956">
        <ele>521.65</ele>
        <time>2016-08-04T08:57:57Z</time>
      </trkpt>
      <trkpt lat="45.76098" lon="4.31965">
        <ele>524.54</ele>
        <time>2016-08-04T08:58:12Z</time>
      </trkpt>
      <trkpt lat="45.7611" lon="4.31974">
        <ele>527.9</ele>
        <time>2016-08-04T08:58:21Z</time>
      </trkpt>
      <trkpt lat="45.76129" lon="4.3199">
        <ele>534.15</ele>
        <time>2016-08-04T08:58:38Z</time>
      </trkpt>
      <trkpt lat="45.76137" lon="4.32003">
        <ele>537.51</ele>
        <time>2016-08-04T08:58:52Z</time>
      </trkpt>
      <trkpt lat="45.76144" lon="4.32006">
        <ele>541.84</ele>
        <time>2016-08-04T08:58:58Z</time>
      </trkpt>
      <trkpt lat="45.76166" lon="4.3201">
        <ele>548.09</ele>
        <time>2016-08-04T08:59:15Z</time>
      </trkpt>
      <trkpt lat="45.76176" lon="4.32029">
        <ele>546.65</ele>
        <time>2016-08-04T08:59:26Z</time>
      </trkpt>
      <trkpt lat="45.76192" lon="4.32046">
        <ele>539.44</ele>
        <time>2016-08-04T08:59:45Z</time>
      </trkpt>
      <trkpt lat="45.762" lon="4.32055">
        <ele>544.72</ele>
        <time>2016-08-04T08:59:59Z</time>
      </trkpt>
      <trkpt lat="45.76208" lon="4.32069">
        <ele>547.61</ele>
        <time>2016-08-04T09:00:13Z</time>
      </trkpt>
      <trkpt lat="45.76223" lon="4.32078">
        <ele>558.18</ele>
        <time>2016-08-04T09:00:29Z</time>
      </trkpt>
      <trkpt lat="45.76228" lon="4.32086">
        <ele>563.95</ele>
        <time>2016-08-04T09:00:42Z</time>
      </trkpt>
      <trkpt lat="45.7623" lon="4.32108">
        <ele>568.76</ele>
        <time>2016-08-04T09:00:54Z</time>
      </trkpt>
      <trkpt lat="45.76241" lon="4.32131">
        <ele>569.72</ele>
        <time>2016-08-04T09:01:10Z</time>
      </trkpt>
      <trkpt lat="45.76247" lon="4.32156">
        <ele>568.76</ele>
        <time>2016-08-04T09:01:25Z</time>
      </trkpt>
      <trkpt lat="45.76251" lon="4.32168">
        <ele>567.8</ele>
        <time>2016-08-04T09:01:33Z</time>
      </trkpt>
      <trkpt lat="45.76256" lon="4.32188">
        <ele>565.39</ele>
        <time>2016-08-04T09:01:48Z</time>
      </trkpt>
      <trkpt lat="45.76259" lon="4.32213">
        <ele>559.14</ele>
        <time>2016-08-04T09:02:02Z</time>
      </trkpt>
      <trkpt lat="45.76261" lon="4.3225">
        <ele>547.61</ele>
        <time>2016-08-04T09:02:19Z</time>
      </trkpt>
      <trkpt lat="45.76265" lon="4.32291">
        <ele>526.46</ele>
        <time>2016-08-04T09:02:39Z</time>
      </trkpt>
      <trkpt lat="45.76264" lon="4.32293">
        <ele>526.46</ele>
        <time>2016-08-04T09:03:03Z</time>
      </trkpt>
      <trkpt lat="45.76264" lon="4.32295">
        <ele>526.46</ele>
        <time>2016-08-04T09:03:32Z</time>
      </trkpt>
      <trkpt lat="45.76264" lon="4.32297">
        <ele>525.02</ele>
        <time>2016-08-04T09:04:05Z</time>
      </trkpt>
      <trkpt lat="45.76265" lon="4.32299">
        <ele>524.54</ele>
        <time>2016-08-04T09:04:39Z</time>
      </trkpt>
      <trkpt lat="45.76264" lon="4.32301">
        <ele>524.06</ele>
        <time>2016-08-04T09:05:16Z</time>
      </trkpt>
      <trkpt lat="45.76264" lon="4.32302">
        <ele>524.54</ele>
        <time>2016-08-04T09:05:53Z</time>
      </trkpt>
      <trkpt lat="45.76264" lon="4.32304">
        <ele>524.06</ele>
        <time>2016-08-04T09:06:26Z</time>
      </trkpt>
      <trkpt lat="45.76267" lon="4.32309">
        <ele>525.98</ele>
        <time>2016-08-04T09:06:44Z</time>
      </trkpt>
      <trkpt lat="45.76272" lon="4.32318">
        <ele>532.71</ele>
        <time>2016-08-04T09:06:58Z</time>
      </trkpt>
      <trkpt lat="45.76279" lon="4.32353">
        <ele>531.27</ele>
        <time>2016-08-04T09:07:12Z</time>
      </trkpt>
      <trkpt lat="45.76289" lon="4.32363">
        <ele>538.48</ele>
        <time>2016-08-04T09:07:26Z</time>
      </trkpt>
      <trkpt lat="45.763" lon="4.32362">
        <ele>546.65</ele>
        <time>2016-08-04T09:07:36Z</time>
      </trkpt>
      <trkpt lat="45.76318" lon="4.32357">
        <ele>557.22</ele>
        <time>2016-08-04T09:07:53Z</time>
      </trkpt>
      <trkpt lat="45.76336" lon="4.32361">
        <ele>562.99</ele>
        <time>2016-08-04T09:08:07Z</time>
      </trkpt>
      <trkpt lat="45.76353" lon="4.3236">
        <ele>563.47</ele>
        <time>2016-08-04T09:08:22Z</time>
      </trkpt>
      <trkpt lat="45.76365" lon="4.32371">
        <ele>551.93</ele>
        <time>2016-08-04T09:08:35Z</time>
      </trkpt>
      <trkpt lat="45.76376" lon="4.32374">
        <ele>552.9</ele>
        <time>2016-08-04T09:08:48Z</time>
      </trkpt>
      <trkpt lat="45.76389" lon="4.32387">
        <ele>548.57</ele>
        <time>2016-08-04T09:09:06Z</time>
      </trkpt>
      <trkpt lat="45.76406" lon="4.32395">
        <ele>547.13</ele>
        <time>2016-08-04T09:09:21Z</time>
      </trkpt>
      <trkpt lat="45.76419" lon="4.32397">
        <ele>545.69</ele>
        <time>2016-08-04T09:09:35Z</time>
      </trkpt>
      <trkpt lat="45.76432" lon="4.32402">
        <ele>550.49</ele>
        <time>2016-08-04T09:09:52Z</time>
      </trkpt>
      <trkpt lat="45.76439" lon="4.32406">
        <ele>552.9</ele>
        <time>2016-08-04T09:10:06Z</time>
      </trkpt>
      <trkpt lat="45.76449" lon="4.32408">
        <ele>554.82</ele>
        <time>2016-08-04T09:10:16Z</time>
      </trkpt>
      <trkpt lat="45.76468" lon="4.32413">
        <ele>555.78</ele>
        <time>2016-08-04T09:10:33Z</time>
      </trkpt>
      <trkpt lat="45.76482" lon="4.32416">
        <ele>556.26</ele>
        <time>2016-08-04T09:10:47Z</time>
      </trkpt>
      <trkpt lat="45.76491" lon="4.32415">
        <ele>556.26</ele>
        <time>2016-08-04T09:10:58Z</time>
      </trkpt>
      <trkpt lat="45.765" lon="4.32415">
        <ele>555.78</ele>
        <time>2016-08-04T09:11:08Z</time>
      </trkpt>
      <trkpt lat="45.76516" lon="4.32414">
        <ele>558.18</ele>
        <time>2016-08-04T09:11:22Z</time>
      </trkpt>
      <trkpt lat="45.76532" lon="4.32417">
        <ele>562.03</ele>
        <time>2016-08-04T09:11:38Z</time>
      </trkpt>
      <trkpt lat="45.76537" lon="4.32417">
        <ele>562.03</ele>
        <time>2016-08-04T09:11:43Z</time>
      </trkpt>
      <trkpt lat="45.7655" lon="4.32421">
        <ele>564.91</ele>
        <time>2016-08-04T09:11:56Z</time>
      </trkpt>
      <trkpt lat="45.76563" lon="4.32428">
        <ele>567.32</ele>
        <time>2016-08-04T09:12:11Z</time>
      </trkpt>
      <trkpt lat="45.76575" lon="4.32433">
        <ele>569.24</ele>
        <time>2016-08-04T09:12:23Z</time>
      </trkpt>
      <trkpt lat="45.76594" lon="4.32441">
        <ele>570.2</ele>
        <time>2016-08-04T09:12:40Z</time>
      </trkpt>
      <trkpt lat="45.76609" lon="4.32447">
        <ele>571.64</ele>
        <time>2016-08-04T09:12:54Z</time>
      </trkpt>
      <trkpt lat="45.76626" lon="4.32454">
        <ele>573.08</ele>
        <time>2016-08-04T09:13:09Z</time>
      </trkpt>
      <trkpt lat="45.76641" lon="4.32461">
        <ele>575.97</ele>
        <time>2016-08-04T09:13:24Z</time>
      </trkpt>
      <trkpt lat="45.76658" lon="4.32469">
        <ele>576.93</ele>
        <time>2016-08-04T09:13:39Z</time>
      </trkpt>
      <trkpt lat="45.76669" lon="4.32475">
        <ele>577.89</ele>
        <time>2016-08-04T09:13:49Z</time>
      </trkpt>
      <trkpt lat="45.76689" lon="4.32484">
        <ele>578.85</ele>
        <time>2016-08-04T09:14:06Z</time>
      </trkpt>
      <trkpt lat="45.76708" lon="4.32494">
        <ele>579.81</ele>
        <time>2016-08-04T09:14:23Z</time>
      </trkpt>
      <trkpt lat="45.76725" lon="4.32502">
        <ele>580.77</ele>
        <time>2016-08-04T09:14:40Z</time>
      </trkpt>
      <trkpt lat="45.76742" lon="4.32511">
        <ele>582.7</ele>
        <time>2016-08-04T09:14:56Z</time>
      </trkpt>
      <trkpt lat="45.76746" lon="4.32515">
        <ele>581.25</ele>
        <time>2016-08-04T09:15:06Z</time>
      </trkpt>
      <trkpt lat="45.76751" lon="4.32517">
        <ele>580.77</ele>
        <time>2016-08-04T09:15:17Z</time>
      </trkpt>
      <trkpt lat="45.76752" lon="4.32517">
        <ele>580.77</ele>
        <time>2016-08-04T09:15:34Z</time>
      </trkpt>
      <trkpt lat="45.7675" lon="4.32515">
        <ele>580.77</ele>
        <time>2016-08-04T09:15:45Z</time>
      </trkpt>
      <trkpt lat="45.76751" lon="4.32515">
        <ele>580.77</ele>
        <time>2016-08-04T09:16:01Z</time>
      </trkpt>
      <trkpt lat="45.76751" lon="4.32516">
        <ele>579.81</ele>
        <time>2016-08-04T09:16:19Z</time>
      </trkpt>
      <trkpt lat="45.76751" lon="4.32515">
        <ele>579.81</ele>
        <time>2016-08-04T09:16:41Z</time>
      </trkpt>
      <trkpt lat="45.76761" lon="4.32519">
        <ele>582.22</ele>
        <time>2016-08-04T09:16:55Z</time>
      </trkpt>
      <trkpt lat="45.76765" lon="4.3252">
        <ele>583.18</ele>
        <time>2016-08-04T09:17:07Z</time>
      </trkpt>
      <trkpt lat="45.76771" lon="4.32522">
        <ele>583.66</ele>
        <time>2016-08-04T09:17:20Z</time>
      </trkpt>
      <trkpt lat="45.76785" lon="4.32529">
        <ele>585.1</ele>
        <time>2016-08-04T09:17:36Z</time>
      </trkpt>
      <trkpt lat="45.76796" lon="4.32535">
        <ele>587.02</ele>
        <time>2016-08-04T09:17:51Z</time>
      </trkpt>
      <trkpt lat="45.76809" lon="4.32541">
        <ele>587.5</ele>
        <time>2016-08-04T09:18:07Z</time>
      </trkpt>
      <trkpt lat="45.76823" lon="4.32549">
        <ele>588.95</ele>
        <time>2016-08-04T09:18:23Z</time>
      </trkpt>
      <trkpt lat="45.76841" lon="4.32555">
        <ele>589.91</ele>
        <time>2016-08-04T09:18:40Z</time>
      </trkpt>
      <trkpt lat="45.76856" lon="4.32559">
        <ele>590.39</ele>
        <time>2016-08-04T09:18:56Z</time>
      </trkpt>
      <trkpt lat="45.76875" lon="4.32561">
        <ele>591.35</ele>
        <time>2016-08-04T09:19:13Z</time>
      </trkpt>
      <trkpt lat="45.7689" lon="4.32563">
        <ele>592.79</ele>
        <time>2016-08-04T09:19:28Z</time>
      </trkpt>
      <trkpt lat="45.76907" lon="4.32561">
        <ele>595.19</ele>
        <time>2016-08-04T09:19:43Z</time>
      </trkpt>
      <trkpt lat="45.76928" lon="4.32556">
        <ele>596.64</ele>
        <time>2016-08-04T09:20:01Z</time>
      </trkpt>
      <trkpt lat="45.76947" lon="4.32551">
        <ele>598.56</ele>
        <time>2016-08-04T09:20:18Z</time>
      </trkpt>
      <trkpt lat="45.76967" lon="4.32543">
        <ele>599.52</ele>
        <time>2016-08-04T09:20:35Z</time>
      </trkpt>
      <trkpt lat="45.76987" lon="4.32531">
        <ele>601.92</ele>
        <time>2016-08-04T09:20:53Z</time>
      </trkpt>
      <trkpt lat="45.77007" lon="4.32524">
        <ele>600.48</ele>
        <time>2016-08-04T09:21:09Z</time>
      </trkpt>
      <trkpt lat="45.77027" lon="4.32514">
        <ele>597.6</ele>
        <time>2016-08-04T09:21:26Z</time>
      </trkpt>
      <trkpt lat="45.77044" lon="4.32496">
        <ele>596.64</ele>
        <time>2016-08-04T09:21:42Z</time>
      </trkpt>
      <trkpt lat="45.77057" lon="4.32469">
        <ele>594.71</ele>
        <time>2016-08-04T09:22:00Z</time>
      </trkpt>
      <trkpt lat="45.7707" lon="4.32443">
        <ele>594.23</ele>
        <time>2016-08-04T09:22:17Z</time>
      </trkpt>
      <trkpt lat="45.77082" lon="4.32416">
        <ele>594.23</ele>
        <time>2016-08-04T09:22:35Z</time>
      </trkpt>
      <trkpt lat="45.77096" lon="4.32387">
        <ele>594.23</ele>
        <time>2016-08-04T09:22:56Z</time>
      </trkpt>
      <trkpt lat="45.77111" lon="4.32366">
        <ele>593.75</ele>
        <time>2016-08-04T09:23:15Z</time>
      </trkpt>
      <trkpt lat="45.77121" lon="4.32362">
        <ele>594.23</ele>
        <time>2016-08-04T09:23:30Z</time>
      </trkpt>
      <trkpt lat="45.77123" lon="4.3236">
        <ele>594.71</ele>
        <time>2016-08-04T09:23:41Z</time>
      </trkpt>
      <trkpt lat="45.77121" lon="4.32358">
        <ele>595.19</ele>
        <time>2016-08-04T09:23:57Z</time>
      </trkpt>
      <trkpt lat="45.77122" lon="4.32356">
        <ele>595.19</ele>
        <time>2016-08-04T09:24:09Z</time>
      </trkpt>
      <trkpt lat="45.77121" lon="4.32357">
        <ele>595.67</ele>
        <time>2016-08-04T09:24:33Z</time>
      </trkpt>
      <trkpt lat="45.77123" lon="4.32359">
        <ele>596.64</ele>
        <time>2016-08-04T09:24:48Z</time>
      </trkpt>
      <trkpt lat="45.77126" lon="4.32365">
        <ele>598.08</ele>
        <time>2016-08-04T09:24:56Z</time>
      </trkpt>
      <trkpt lat="45.77141" lon="4.32385">
        <ele>595.67</ele>
        <time>2016-08-04T09:25:14Z</time>
      </trkpt>
      <trkpt lat="45.77157" lon="4.32411">
        <ele>592.79</ele>
        <time>2016-08-04T09:25:33Z</time>
      </trkpt>
      <trkpt lat="45.77158" lon="4.32414">
        <ele>592.79</ele>
        <time>2016-08-04T09:25:35Z</time>
      </trkpt>
      <trkpt lat="45.77159" lon="4.32417">
        <ele>592.31</ele>
        <time>2016-08-04T09:25:37Z</time>
      </trkpt>
      <trkpt lat="45.77162" lon="4.32423">
        <ele>591.35</ele>
        <time>2016-08-04T09:25:41Z</time>
      </trkpt>
      <trkpt lat="45.77176" lon="4.32458">
        <ele>589.91</ele>
        <time>2016-08-04T09:26:03Z</time>
      </trkpt>
      <trkpt lat="45.77188" lon="4.32492">
        <ele>588.46</ele>
        <time>2016-08-04T09:26:25Z</time>
      </trkpt>
      <trkpt lat="45.77204" lon="4.32513">
        <ele>588.95</ele>
        <time>2016-08-04T09:26:44Z</time>
      </trkpt>
      <trkpt lat="45.7722" lon="4.32535">
        <ele>590.39</ele>
        <time>2016-08-04T09:27:01Z</time>
      </trkpt>
      <trkpt lat="45.77225" lon="4.32545">
        <ele>590.87</ele>
        <time>2016-08-04T09:27:08Z</time>
      </trkpt>
      <trkpt lat="45.77228" lon="4.3255">
        <ele>590.87</ele>
        <time>2016-08-04T09:27:12Z</time>
      </trkpt>
      <trkpt lat="45.77239" lon="4.3257">
        <ele>592.31</ele>
        <time>2016-08-04T09:27:28Z</time>
      </trkpt>
      <trkpt lat="45.77243" lon="4.32576">
        <ele>592.31</ele>
        <time>2016-08-04T09:27:32Z</time>
      </trkpt>
      <trkpt lat="45.77257" lon="4.32602">
        <ele>592.79</ele>
        <time>2016-08-04T09:27:51Z</time>
      </trkpt>
      <trkpt lat="45.77273" lon="4.32631">
        <ele>594.23</ele>
        <time>2016-08-04T09:28:10Z</time>
      </trkpt>
      <trkpt lat="45.7729" lon="4.32661">
        <ele>594.23</ele>
        <time>2016-08-04T09:28:30Z</time>
      </trkpt>
      <trkpt lat="45.77308" lon="4.32693">
        <ele>593.27</ele>
        <time>2016-08-04T09:28:52Z</time>
      </trkpt>
      <trkpt lat="45.77312" lon="4.32699">
        <ele>593.27</ele>
        <time>2016-08-04T09:28:57Z</time>
      </trkpt>
      <trkpt lat="45.77313" lon="4.32703">
        <ele>592.79</ele>
        <time>2016-08-04T09:29:00Z</time>
      </trkpt>
      <trkpt lat="45.77302" lon="4.32688">
        <ele>591.83</ele>
        <time>2016-08-04T09:29:13Z</time>
      </trkpt>
      <trkpt lat="45.77299" lon="4.32686">
        <ele>591.83</ele>
        <time>2016-08-04T09:29:16Z</time>
      </trkpt>
      <trkpt lat="45.77295" lon="4.32699">
        <ele>590.87</ele>
        <time>2016-08-04T09:29:24Z</time>
      </trkpt>
      <trkpt lat="45.77299" lon="4.32732">
        <ele>591.83</ele>
        <time>2016-08-04T09:29:42Z</time>
      </trkpt>
      <trkpt lat="45.77303" lon="4.32763">
        <ele>595.19</ele>
        <time>2016-08-04T09:30:00Z</time>
      </trkpt>
      <trkpt lat="45.77308" lon="4.32793">
        <ele>594.71</ele>
        <time>2016-08-04T09:30:16Z</time>
      </trkpt>
      <trkpt lat="45.77313" lon="4.32823">
        <ele>594.23</ele>
        <time>2016-08-04T09:30:33Z</time>
      </trkpt>
      <trkpt lat="45.77318" lon="4.32849">
        <ele>593.27</ele>
        <time>2016-08-04T09:30:50Z</time>
      </trkpt>
      <trkpt lat="45.7732" lon="4.32856">
        <ele>593.75</ele>
        <time>2016-08-04T09:30:55Z</time>
      </trkpt>
      <trkpt lat="45.7733" lon="4.32884">
        <ele>593.27</ele>
        <time>2016-08-04T09:31:14Z</time>
      </trkpt>
      <trkpt lat="45.77338" lon="4.329">
        <ele>595.67</ele>
        <time>2016-08-04T09:31:29Z</time>
      </trkpt>
      <trkpt lat="45.77341" lon="4.32912">
        <ele>596.15</ele>
        <time>2016-08-04T09:31:43Z</time>
      </trkpt>
      <trkpt lat="45.77345" lon="4.32919">
        <ele>594.71</ele>
        <time>2016-08-04T09:31:54Z</time>
      </trkpt>
      <trkpt lat="45.77346" lon="4.32922">
        <ele>594.23</ele>
        <time>2016-08-04T09:31:58Z</time>
      </trkpt>
      <trkpt lat="45.77348" lon="4.32939">
        <ele>591.83</ele>
        <time>2016-08-04T09:32:10Z</time>
      </trkpt>
      <trkpt lat="45.77345" lon="4.32975">
        <ele>588.46</ele>
        <time>2016-08-04T09:32:29Z</time>
      </trkpt>
      <trkpt lat="45.77348" lon="4.33009">
        <ele>587.02</ele>
        <time>2016-08-04T09:32:47Z</time>
      </trkpt>
      <trkpt lat="45.7735" lon="4.33027">
        <ele>587.02</ele>
        <time>2016-08-04T09:32:57Z</time>
      </trkpt>
      <trkpt lat="45.77354" lon="4.33059">
        <ele>586.54</ele>
        <time>2016-08-04T09:33:14Z</time>
      </trkpt>
      <trkpt lat="45.77358" lon="4.33087">
        <ele>585.58</ele>
        <time>2016-08-04T09:33:30Z</time>
      </trkpt>
      <trkpt lat="45.7736" lon="4.33117">
        <ele>584.62</ele>
        <time>2016-08-04T09:33:48Z</time>
      </trkpt>
      <trkpt lat="45.77352" lon="4.33152">
        <ele>584.14</ele>
        <time>2016-08-04T09:34:07Z</time>
      </trkpt>
      <trkpt lat="45.77335" lon="4.33175">
        <ele>585.58</ele>
        <time>2016-08-04T09:34:24Z</time>
      </trkpt>
      <trkpt lat="45.77317" lon="4.33197">
        <ele>587.5</ele>
        <time>2016-08-04T09:34:43Z</time>
      </trkpt>
      <trkpt lat="45.77302" lon="4.3322">
        <ele>587.98</ele>
        <time>2016-08-04T09:35:00Z</time>
      </trkpt>
      <trkpt lat="45.77294" lon="4.33244">
        <ele>590.39</ele>
        <time>2016-08-04T09:35:16Z</time>
      </trkpt>
      <trkpt lat="45.77288" lon="4.33275">
        <ele>590.39</ele>
        <time>2016-08-04T09:35:34Z</time>
      </trkpt>
      <trkpt lat="45.77292" lon="4.33305">
        <ele>591.35</ele>
        <time>2016-08-04T09:35:52Z</time>
      </trkpt>
      <trkpt lat="45.77297" lon="4.33315">
        <ele>593.27</ele>
        <time>2016-08-04T09:36:01Z</time>
      </trkpt>
      <trkpt lat="45.77315" lon="4.33321">
        <ele>596.64</ele>
        <time>2016-08-04T09:36:18Z</time>
      </trkpt>
      <trkpt lat="45.77333" lon="4.33324">
        <ele>600</ele>
        <time>2016-08-04T09:36:35Z</time>
      </trkpt>
      <trkpt lat="45.77351" lon="4.33327">
        <ele>604.81</ele>
        <time>2016-08-04T09:36:52Z</time>
      </trkpt>
      <trkpt lat="45.77366" lon="4.33338">
        <ele>608.17</ele>
        <time>2016-08-04T09:37:07Z</time>
      </trkpt>
      <trkpt lat="45.77381" lon="4.3335">
        <ele>610.57</ele>
        <time>2016-08-04T09:37:23Z</time>
      </trkpt>
      <trkpt lat="45.77392" lon="4.33369">
        <ele>611.54</ele>
        <time>2016-08-04T09:37:38Z</time>
      </trkpt>
      <trkpt lat="45.77403" lon="4.33387">
        <ele>611.54</ele>
        <time>2016-08-04T09:37:52Z</time>
      </trkpt>
      <trkpt lat="45.77411" lon="4.33402">
        <ele>612.98</ele>
        <time>2016-08-04T09:38:05Z</time>
      </trkpt>
      <trkpt lat="45.77419" lon="4.33417">
        <ele>613.46</ele>
        <time>2016-08-04T09:38:16Z</time>
      </trkpt>
      <trkpt lat="45.77432" lon="4.33435">
        <ele>614.9</ele>
        <time>2016-08-04T09:38:32Z</time>
      </trkpt>
      <trkpt lat="45.77451" lon="4.33445">
        <ele>616.34</ele>
        <time>2016-08-04T09:38:49Z</time>
      </trkpt>
      <trkpt lat="45.77472" lon="4.33448">
        <ele>616.34</ele>
        <time>2016-08-04T09:39:06Z</time>
      </trkpt>
      <trkpt lat="45.77492" lon="4.33448">
        <ele>616.82</ele>
        <time>2016-08-04T09:39:23Z</time>
      </trkpt>
      <trkpt lat="45.77516" lon="4.33448">
        <ele>617.78</ele>
        <time>2016-08-04T09:39:42Z</time>
      </trkpt>
      <trkpt lat="45.77541" lon="4.33447">
        <ele>619.23</ele>
        <time>2016-08-04T09:40:02Z</time>
      </trkpt>
      <trkpt lat="45.77561" lon="4.33445">
        <ele>618.75</ele>
        <time>2016-08-04T09:40:19Z</time>
      </trkpt>
      <trkpt lat="45.77583" lon="4.33444">
        <ele>619.71</ele>
        <time>2016-08-04T09:40:37Z</time>
      </trkpt>
      <trkpt lat="45.77605" lon="4.33444">
        <ele>621.15</ele>
        <time>2016-08-04T09:40:56Z</time>
      </trkpt>
      <trkpt lat="45.77627" lon="4.33447">
        <ele>622.11</ele>
        <time>2016-08-04T09:41:14Z</time>
      </trkpt>
      <trkpt lat="45.77651" lon="4.33446">
        <ele>622.59</ele>
        <time>2016-08-04T09:41:32Z</time>
      </trkpt>
      <trkpt lat="45.77677" lon="4.33442">
        <ele>623.07</ele>
        <time>2016-08-04T09:41:53Z</time>
      </trkpt>
      <trkpt lat="45.77698" lon="4.33438">
        <ele>623.07</ele>
        <time>2016-08-04T09:42:11Z</time>
      </trkpt>
      <trkpt lat="45.77714" lon="4.33436">
        <ele>623.07</ele>
        <time>2016-08-04T09:42:24Z</time>
      </trkpt>
      <trkpt lat="45.77737" lon="4.3343">
        <ele>624.99</ele>
        <time>2016-08-04T09:42:43Z</time>
      </trkpt>
      <trkpt lat="45.77755" lon="4.33426">
        <ele>626.44</ele>
        <time>2016-08-04T09:42:58Z</time>
      </trkpt>
      <trkpt lat="45.77778" lon="4.33421">
        <ele>628.36</ele>
        <time>2016-08-04T09:43:17Z</time>
      </trkpt>
      <trkpt lat="45.77791" lon="4.33417">
        <ele>630.76</ele>
        <time>2016-08-04T09:43:28Z</time>
      </trkpt>
      <trkpt lat="45.77793" lon="4.33417">
        <ele>630.76</ele>
        <time>2016-08-04T09:43:30Z</time>
      </trkpt>
      <trkpt lat="45.77803" lon="4.33415">
        <ele>631.72</ele>
        <time>2016-08-04T09:43:46Z</time>
      </trkpt>
      <trkpt lat="45.77807" lon="4.33412">
        <ele>629.8</ele>
        <time>2016-08-04T09:43:58Z</time>
      </trkpt>
      <trkpt lat="45.77814" lon="4.33405">
        <ele>629.8</ele>
        <time>2016-08-04T09:44:10Z</time>
      </trkpt>
      <trkpt lat="45.77831" lon="4.33393">
        <ele>631.72</ele>
        <time>2016-08-04T09:44:26Z</time>
      </trkpt>
      <trkpt lat="45.77855" lon="4.33377">
        <ele>632.2</ele>
        <time>2016-08-04T09:44:46Z</time>
      </trkpt>
      <trkpt lat="45.7788" lon="4.3336">
        <ele>632.68</ele>
        <time>2016-08-04T09:45:06Z</time>
      </trkpt>
      <trkpt lat="45.779" lon="4.33345">
        <ele>634.61</ele>
        <time>2016-08-04T09:45:24Z</time>
      </trkpt>
      <trkpt lat="45.77918" lon="4.33328">
        <ele>635.09</ele>
        <time>2016-08-04T09:45:41Z</time>
      </trkpt>
      <trkpt lat="45.77944" lon="4.3331">
        <ele>634.61</ele>
        <time>2016-08-04T09:46:02Z</time>
      </trkpt>
      <trkpt lat="45.7797" lon="4.33298">
        <ele>634.61</ele>
        <time>2016-08-04T09:46:23Z</time>
      </trkpt>
      <trkpt lat="45.77996" lon="4.3329">
        <ele>633.65</ele>
        <time>2016-08-04T09:46:44Z</time>
      </trkpt>
      <trkpt lat="45.78018" lon="4.33287">
        <ele>633.17</ele>
        <time>2016-08-04T09:47:02Z</time>
      </trkpt>
      <trkpt lat="45.78038" lon="4.3329">
        <ele>634.61</ele>
        <time>2016-08-04T09:47:19Z</time>
      </trkpt>
      <trkpt lat="45.78056" lon="4.33297">
        <ele>635.09</ele>
        <time>2016-08-04T09:47:35Z</time>
      </trkpt>
      <trkpt lat="45.78064" lon="4.33303">
        <ele>635.09</ele>
        <time>2016-08-04T09:47:50Z</time>
      </trkpt>
      <trkpt lat="45.78066" lon="4.33307">
        <ele>634.61</ele>
        <time>2016-08-04T09:48:05Z</time>
      </trkpt>
      <trkpt lat="45.78067" lon="4.3331">
        <ele>633.17</ele>
        <time>2016-08-04T09:48:24Z</time>
      </trkpt>
      <trkpt lat="45.7807" lon="4.33314">
        <ele>631.24</ele>
        <time>2016-08-04T09:48:49Z</time>
      </trkpt>
      <trkpt lat="45.78072" lon="4.33316">
        <ele>630.28</ele>
        <time>2016-08-04T09:49:18Z</time>
      </trkpt>
      <trkpt lat="45.78072" lon="4.33316">
        <ele>630.28</ele>
        <time>2016-08-04T09:49:33Z</time>
      </trkpt>
      <trkpt lat="45.78073" lon="4.33318">
        <ele>630.28</ele>
        <time>2016-08-04T09:49:54Z</time>
      </trkpt>
      <trkpt lat="45.78072" lon="4.3332">
        <ele>629.8</ele>
        <time>2016-08-04T09:50:19Z</time>
      </trkpt>
      <trkpt lat="45.78072" lon="4.33321">
        <ele>629.8</ele>
        <time>2016-08-04T09:50:30Z</time>
      </trkpt>
      <trkpt lat="45.78079" lon="4.3335">
        <ele>633.17</ele>
        <time>2016-08-04T09:50:49Z</time>
      </trkpt>
      <trkpt lat="45.78081" lon="4.3336">
        <ele>634.61</ele>
        <time>2016-08-04T09:50:56Z</time>
      </trkpt>
      <trkpt lat="45.7809" lon="4.33388">
        <ele>637.49</ele>
        <time>2016-08-04T09:51:14Z</time>
      </trkpt>
      <trkpt lat="45.78096" lon="4.33411">
        <ele>641.82</ele>
        <time>2016-08-04T09:51:29Z</time>
      </trkpt>
      <trkpt lat="45.78101" lon="4.33426">
        <ele>648.55</ele>
        <time>2016-08-04T09:51:43Z</time>
      </trkpt>
      <trkpt lat="45.7811" lon="4.3345">
        <ele>657.2</ele>
        <time>2016-08-04T09:52:00Z</time>
      </trkpt>
      <trkpt lat="45.78117" lon="4.33473">
        <ele>663.45</ele>
        <time>2016-08-04T09:52:17Z</time>
      </trkpt>
      <trkpt lat="45.78127" lon="4.33491">
        <ele>667.77</ele>
        <time>2016-08-04T09:52:31Z</time>
      </trkpt>
      <trkpt lat="45.78138" lon="4.33511">
        <ele>671.62</ele>
        <time>2016-08-04T09:52:45Z</time>
      </trkpt>
      <trkpt lat="45.78151" lon="4.33531">
        <ele>672.58</ele>
        <time>2016-08-04T09:53:00Z</time>
      </trkpt>
      <trkpt lat="45.78163" lon="4.33549">
        <ele>677.87</ele>
        <time>2016-08-04T09:53:15Z</time>
      </trkpt>
      <trkpt lat="45.78174" lon="4.33564">
        <ele>684.6</ele>
        <time>2016-08-04T09:53:29Z</time>
      </trkpt>
      <trkpt lat="45.78175" lon="4.33565">
        <ele>685.08</ele>
        <time>2016-08-04T09:53:31Z</time>
      </trkpt>
      <trkpt lat="45.78189" lon="4.33584">
        <ele>690.84</ele>
        <time>2016-08-04T09:53:46Z</time>
      </trkpt>
      <trkpt lat="45.78202" lon="4.33603">
        <ele>697.09</ele>
        <time>2016-08-04T09:54:02Z</time>
      </trkpt>
      <trkpt lat="45.78209" lon="4.33614">
        <ele>702.86</ele>
        <time>2016-08-04T09:54:12Z</time>
      </trkpt>
      <trkpt lat="45.78217" lon="4.33638">
        <ele>704.3</ele>
        <time>2016-08-04T09:54:27Z</time>
      </trkpt>
      <trkpt lat="45.78224" lon="4.33658">
        <ele>707.67</ele>
        <time>2016-08-04T09:54:42Z</time>
      </trkpt>
      <trkpt lat="45.7823" lon="4.33675">
        <ele>708.15</ele>
        <time>2016-08-04T09:54:54Z</time>
      </trkpt>
      <trkpt lat="45.78243" lon="4.33705">
        <ele>710.55</ele>
        <time>2016-08-04T09:55:12Z</time>
      </trkpt>
      <trkpt lat="45.78253" lon="4.33726">
        <ele>715.36</ele>
        <time>2016-08-04T09:55:28Z</time>
      </trkpt>
      <trkpt lat="45.78259" lon="4.33751">
        <ele>716.32</ele>
        <time>2016-08-04T09:55:43Z</time>
      </trkpt>
      <trkpt lat="45.78265" lon="4.33784">
        <ele>711.51</ele>
        <time>2016-08-04T09:56:01Z</time>
      </trkpt>
      <trkpt lat="45.7827" lon="4.33821">
        <ele>701.42</ele>
        <time>2016-08-04T09:56:20Z</time>
      </trkpt>
      <trkpt lat="45.78268" lon="4.33846">
        <ele>697.57</ele>
        <time>2016-08-04T09:56:37Z</time>
      </trkpt>
      <trkpt lat="45.78263" lon="4.33866">
        <ele>692.29</ele>
        <time>2016-08-04T09:56:52Z</time>
      </trkpt>
      <trkpt lat="45.78262" lon="4.33877">
        <ele>686.04</ele>
        <time>2016-08-04T09:57:06Z</time>
      </trkpt>
      <trkpt lat="45.78251" lon="4.33906">
        <ele>679.31</ele>
        <time>2016-08-04T09:57:26Z</time>
      </trkpt>
      <trkpt lat="45.78243" lon="4.3394">
        <ele>672.1</ele>
        <time>2016-08-04T09:57:39Z</time>
      </trkpt>
      <trkpt lat="45.78238" lon="4.33955">
        <ele>672.58</ele>
        <time>2016-08-04T09:57:46Z</time>
      </trkpt>
      <trkpt lat="45.78245" lon="4.33985">
        <ele>671.62</ele>
        <time>2016-08-04T09:58:02Z</time>
      </trkpt>
      <trkpt lat="45.78241" lon="4.34">
        <ele>668.73</ele>
        <time>2016-08-04T09:58:19Z</time>
      </trkpt>
      <trkpt lat="45.78235" lon="4.34004">
        <ele>663.45</ele>
        <time>2016-08-04T09:58:34Z</time>
      </trkpt>
      <trkpt lat="45.78217" lon="4.34011">
        <ele>653.35</ele>
        <time>2016-08-04T09:58:56Z</time>
      </trkpt>
      <trkpt lat="45.78213" lon="4.34013">
        <ele>650.47</ele>
        <time>2016-08-04T09:59:19Z</time>
      </trkpt>
      <trkpt lat="45.7821" lon="4.34015">
        <ele>646.14</ele>
        <time>2016-08-04T09:59:35Z</time>
      </trkpt>
      <trkpt lat="45.78209" lon="4.34016">
        <ele>643.74</ele>
        <time>2016-08-04T10:00:09Z</time>
      </trkpt>
      <trkpt lat="45.7821" lon="4.34017">
        <ele>642.3</ele>
        <time>2016-08-04T10:00:37Z</time>
      </trkpt>
      <trkpt lat="45.7821" lon="4.34017">
        <ele>641.34</ele>
        <time>2016-08-04T10:01:01Z</time>
      </trkpt>
      <trkpt lat="45.78212" lon="4.34039">
        <ele>639.89</ele>
        <time>2016-08-04T10:01:17Z</time>
      </trkpt>
      <trkpt lat="45.78208" lon="4.34069">
        <ele>641.34</ele>
        <time>2016-08-04T10:01:33Z</time>
      </trkpt>
      <trkpt lat="45.78205" lon="4.34107">
        <ele>639.89</ele>
        <time>2016-08-04T10:01:53Z</time>
      </trkpt>
      <trkpt lat="45.782" lon="4.34136">
        <ele>638.93</ele>
        <time>2016-08-04T10:02:08Z</time>
      </trkpt>
      <trkpt lat="45.78194" lon="4.34175">
        <ele>636.05</ele>
        <time>2016-08-04T10:02:28Z</time>
      </trkpt>
      <trkpt lat="45.78191" lon="4.34214">
        <ele>637.49</ele>
        <time>2016-08-04T10:02:49Z</time>
      </trkpt>
      <trkpt lat="45.78191" lon="4.34251">
        <ele>632.68</ele>
        <time>2016-08-04T10:03:07Z</time>
      </trkpt>
      <trkpt lat="45.78198" lon="4.34288">
        <ele>632.2</ele>
        <time>2016-08-04T10:03:28Z</time>
      </trkpt>
      <trkpt lat="45.78206" lon="4.34316">
        <ele>632.68</ele>
        <time>2016-08-04T10:03:46Z</time>
      </trkpt>
      <trkpt lat="45.78209" lon="4.34325">
        <ele>632.68</ele>
        <time>2016-08-04T10:04:03Z</time>
      </trkpt>
      <trkpt lat="45.78215" lon="4.34341">
        <ele>633.17</ele>
        <time>2016-08-04T10:04:18Z</time>
      </trkpt>
      <trkpt lat="45.78219" lon="4.34367">
        <ele>634.61</ele>
        <time>2016-08-04T10:04:36Z</time>
      </trkpt>
      <trkpt lat="45.78224" lon="4.34392">
        <ele>634.61</ele>
        <time>2016-08-04T10:04:50Z</time>
      </trkpt>
      <trkpt lat="45.78231" lon="4.34417">
        <ele>637.01</ele>
        <time>2016-08-04T10:05:06Z</time>
      </trkpt>
      <trkpt lat="45.78234" lon="4.34424">
        <ele>637.97</ele>
        <time>2016-08-04T10:05:11Z</time>
      </trkpt>
      <trkpt lat="45.78243" lon="4.34443">
        <ele>639.41</ele>
        <time>2016-08-04T10:05:24Z</time>
      </trkpt>
      <trkpt lat="45.78255" lon="4.34461">
        <ele>642.78</ele>
        <time>2016-08-04T10:05:39Z</time>
      </trkpt>
      <trkpt lat="45.78268" lon="4.34479">
        <ele>644.7</ele>
        <time>2016-08-04T10:05:54Z</time>
      </trkpt>
      <trkpt lat="45.78282" lon="4.34499">
        <ele>646.14</ele>
        <time>2016-08-04T10:06:10Z</time>
      </trkpt>
      <trkpt lat="45.78296" lon="4.34523">
        <ele>646.62</ele>
        <time>2016-08-04T10:06:28Z</time>
      </trkpt>
      <trkpt lat="45.7831" lon="4.34545">
        <ele>646.14</ele>
        <time>2016-08-04T10:06:45Z</time>
      </trkpt>
      <trkpt lat="45.78324" lon="4.34571">
        <ele>644.7</ele>
        <time>2016-08-04T10:07:03Z</time>
      </trkpt>
      <trkpt lat="45.78337" lon="4.34599">
        <ele>643.26</ele>
        <time>2016-08-04T10:07:22Z</time>
      </trkpt>
      <trkpt lat="45.78348" lon="4.34631">
        <ele>640.86</ele>
        <time>2016-08-04T10:07:40Z</time>
      </trkpt>
      <trkpt lat="45.78355" lon="4.34672">
        <ele>638.45</ele>
        <time>2016-08-04T10:08:02Z</time>
      </trkpt>
      <trkpt lat="45.7836" lon="4.34679">
        <ele>638.45</ele>
        <time>2016-08-04T10:08:12Z</time>
      </trkpt>
      <trkpt lat="45.78381" lon="4.34674">
        <ele>636.53</ele>
        <time>2016-08-04T10:08:31Z</time>
      </trkpt>
      <trkpt lat="45.78403" lon="4.34669">
        <ele>636.05</ele>
        <time>2016-08-04T10:08:48Z</time>
      </trkpt>
      <trkpt lat="45.78427" lon="4.34656">
        <ele>632.68</ele>
        <time>2016-08-04T10:09:09Z</time>
      </trkpt>
      <trkpt lat="45.7843" lon="4.34656">
        <ele>632.68</ele>
        <time>2016-08-04T10:09:11Z</time>
      </trkpt>
      <trkpt lat="45.78448" lon="4.34643">
        <ele>630.28</ele>
        <time>2016-08-04T10:09:29Z</time>
      </trkpt>
      <trkpt lat="45.78473" lon="4.34632">
        <ele>624.51</ele>
        <time>2016-08-04T10:09:47Z</time>
      </trkpt>
      <trkpt lat="45.78496" lon="4.34617">
        <ele>620.19</ele>
        <time>2016-08-04T10:10:06Z</time>
      </trkpt>
      <trkpt lat="45.78519" lon="4.34606">
        <ele>616.34</ele>
        <time>2016-08-04T10:10:25Z</time>
      </trkpt>
      <trkpt lat="45.78541" lon="4.34596">
        <ele>612.02</ele>
        <time>2016-08-04T10:10:43Z</time>
      </trkpt>
      <trkpt lat="45.78563" lon="4.34586">
        <ele>611.06</ele>
        <time>2016-08-04T10:11:01Z</time>
      </trkpt>
      <trkpt lat="45.78567" lon="4.34578">
        <ele>609.61</ele>
        <time>2016-08-04T10:11:12Z</time>
      </trkpt>
      <trkpt lat="45.78571" lon="4.34563">
        <ele>609.13</ele>
        <time>2016-08-04T10:11:27Z</time>
      </trkpt>
      <trkpt lat="45.78572" lon="4.34562">
        <ele>609.13</ele>
        <time>2016-08-04T10:11:39Z</time>
      </trkpt>
      <trkpt lat="45.78572" lon="4.34562">
        <ele>605.29</ele>
        <time>2016-08-04T10:12:02Z</time>
      </trkpt>
      <trkpt lat="45.78572" lon="4.34561">
        <ele>605.77</ele>
        <time>2016-08-04T10:12:20Z</time>
      </trkpt>
      <trkpt lat="45.78572" lon="4.34561">
        <ele>606.25</ele>
        <time>2016-08-04T10:12:45Z</time>
      </trkpt>
      <trkpt lat="45.78577" lon="4.34551">
        <ele>607.21</ele>
        <time>2016-08-04T10:13:00Z</time>
      </trkpt>
      <trkpt lat="45.78585" lon="4.3453">
        <ele>606.73</ele>
        <time>2016-08-04T10:13:18Z</time>
      </trkpt>
      <trkpt lat="45.78586" lon="4.34521">
        <ele>606.25</ele>
        <time>2016-08-04T10:13:32Z</time>
      </trkpt>
      <trkpt lat="45.78587" lon="4.34515">
        <ele>605.29</ele>
        <time>2016-08-04T10:13:46Z</time>
      </trkpt>
      <trkpt lat="45.78587" lon="4.34514">
        <ele>605.77</ele>
        <time>2016-08-04T10:14:01Z</time>
      </trkpt>
      <trkpt lat="45.78586" lon="4.34513">
        <ele>605.77</ele>
        <time>2016-08-04T10:14:12Z</time>
      </trkpt>
      <trkpt lat="45.78587" lon="4.34514">
        <ele>605.77</ele>
        <time>2016-08-04T10:14:24Z</time>
      </trkpt>
      <trkpt lat="45.78603" lon="4.34524">
        <ele>604.81</ele>
        <time>2016-08-04T10:14:42Z</time>
      </trkpt>
      <trkpt lat="45.78586" lon="4.34514">
        <ele>606.73</ele>
        <time>2016-08-04T10:14:59Z</time>
      </trkpt>
      <trkpt lat="45.78586" lon="4.34515">
        <ele>606.25</ele>
        <time>2016-08-04T10:15:12Z</time>
      </trkpt>
      <trkpt lat="45.78587" lon="4.34516">
        <ele>606.25</ele>
        <time>2016-08-04T10:15:26Z</time>
      </trkpt>
      <trkpt lat="45.78588" lon="4.34513">
        <ele>604.81</ele>
        <time>2016-08-04T10:15:38Z</time>
      </trkpt>
      <trkpt lat="45.78589" lon="4.34512">
        <ele>604.81</ele>
        <time>2016-08-04T10:16:03Z</time>
      </trkpt>
      <trkpt lat="45.78588" lon="4.34513">
        <ele>604.33</ele>
        <time>2016-08-04T10:16:42Z</time>
      </trkpt>
      <trkpt lat="45.78588" lon="4.34512">
        <ele>604.81</ele>
        <time>2016-08-04T10:17:20Z</time>
      </trkpt>
      <trkpt lat="45.78588" lon="4.34512">
        <ele>605.77</ele>
        <time>2016-08-04T10:17:51Z</time>
      </trkpt>
      <trkpt lat="45.78588" lon="4.34511">
        <ele>605.77</ele>
        <time>2016-08-04T10:18:22Z</time>
      </trkpt>
      <trkpt lat="45.78588" lon="4.34512">
        <ele>605.77</ele>
        <time>2016-08-04T10:18:52Z</time>
      </trkpt>
      <trkpt lat="45.78588" lon="4.34513">
        <ele>605.77</ele>
        <time>2016-08-04T10:19:27Z</time>
      </trkpt>
      <trkpt lat="45.78588" lon="4.34513">
        <ele>605.29</ele>
        <time>2016-08-04T10:20:00Z</time>
      </trkpt>
      <trkpt lat="45.78588" lon="4.34513">
        <ele>605.29</ele>
        <time>2016-08-04T10:20:30Z</time>
      </trkpt>
      <trkpt lat="45.78588" lon="4.34514">
        <ele>605.29</ele>
        <time>2016-08-04T10:21:00Z</time>
      </trkpt>
      <trkpt lat="45.78588" lon="4.34513">
        <ele>604.81</ele>
        <time>2016-08-04T10:21:30Z</time>
      </trkpt>
      <trkpt lat="45.78588" lon="4.34514">
        <ele>604.81</ele>
        <time>2016-08-04T10:22:04Z</time>
      </trkpt>
      <trkpt lat="45.78587" lon="4.34513">
        <ele>604.81</ele>
        <time>2016-08-04T10:22:37Z</time>
      </trkpt>
      <trkpt lat="45.78588" lon="4.34513">
        <ele>604.81</ele>
        <time>2016-08-04T10:23:03Z</time>
      </trkpt>
      <trkpt lat="45.78588" lon="4.34513">
        <ele>604.81</ele>
        <time>2016-08-04T10:23:32Z</time>
      </trkpt>
      <trkpt lat="45.78588" lon="4.34513">
        <ele>604.81</ele>
        <time>2016-08-04T10:24:03Z</time>
      </trkpt>
      <trkpt lat="45.78588" lon="4.34513">
        <ele>604.33</ele>
        <time>2016-08-04T10:24:36Z</time>
      </trkpt>
      <trkpt lat="45.78588" lon="4.34514">
        <ele>605.29</ele>
        <time>2016-08-04T10:25:09Z</time>
      </trkpt>
      <trkpt lat="45.78588" lon="4.34513">
        <ele>604.81</ele>
        <time>2016-08-04T10:25:41Z</time>
      </trkpt>
      <trkpt lat="45.78588" lon="4.34513">
        <ele>604.81</ele>
        <time>2016-08-04T10:26:12Z</time>
      </trkpt>
      <trkpt lat="45.78587" lon="4.34513">
        <ele>604.33</ele>
        <time>2016-08-04T10:26:46Z</time>
      </trkpt>
      <trkpt lat="45.78587" lon="4.34513">
        <ele>603.85</ele>
        <time>2016-08-04T10:27:19Z</time>
      </trkpt>
      <trkpt lat="45.78587" lon="4.34513">
        <ele>603.36</ele>
        <time>2016-08-04T10:27:45Z</time>
      </trkpt>
      <trkpt lat="45.78586" lon="4.34513">
        <ele>602.88</ele>
        <time>2016-08-04T10:28:17Z</time>
      </trkpt>
      <trkpt lat="45.78587" lon="4.34514">
        <ele>603.85</ele>
        <time>2016-08-04T10:28:48Z</time>
      </trkpt>
      <trkpt lat="45.78587" lon="4.34514">
        <ele>604.33</ele>
        <time>2016-08-04T10:29:27Z</time>
      </trkpt>
      <trkpt lat="45.78588" lon="4.34514">
        <ele>604.81</ele>
        <time>2016-08-04T10:29:59Z</time>
      </trkpt>
      <trkpt lat="45.78587" lon="4.34514">
        <ele>604.33</ele>
        <time>2016-08-04T10:30:28Z</time>
      </trkpt>
      <trkpt lat="45.78588" lon="4.34514">
        <ele>604.81</ele>
        <time>2016-08-04T10:30:56Z</time>
      </trkpt>
      <trkpt lat="45.78588" lon="4.34514">
        <ele>604.81</ele>
        <time>2016-08-04T10:31:25Z</time>
      </trkpt>
      <trkpt lat="45.78588" lon="4.34514">
        <ele>604.81</ele>
        <time>2016-08-04T10:32:00Z</time>
      </trkpt>
      <trkpt lat="45.78588" lon="4.34514">
        <ele>604.81</ele>
        <time>2016-08-04T10:32:30Z</time>
      </trkpt>
      <trkpt lat="45.78588" lon="4.34513">
        <ele>604.33</ele>
        <time>2016-08-04T10:33:01Z</time>
      </trkpt>
      <trkpt lat="45.78589" lon="4.34514">
        <ele>604.33</ele>
        <time>2016-08-04T10:33:39Z</time>
      </trkpt>
      <trkpt lat="45.78588" lon="4.34514">
        <ele>603.85</ele>
        <time>2016-08-04T10:34:11Z</time>
      </trkpt>
      <trkpt lat="45.78588" lon="4.34513">
        <ele>603.85</ele>
        <time>2016-08-04T10:34:38Z</time>
      </trkpt>
      <trkpt lat="45.78588" lon="4.34513">
        <ele>603.85</ele>
        <time>2016-08-04T10:35:12Z</time>
      </trkpt>
      <trkpt lat="45.78588" lon="4.34513">
        <ele>604.33</ele>
        <time>2016-08-04T10:35:39Z</time>
      </trkpt>
      <trkpt lat="45.78588" lon="4.34513">
        <ele>604.33</ele>
        <time>2016-08-04T10:36:10Z</time>
      </trkpt>
      <trkpt lat="45.78588" lon="4.34513">
        <ele>604.33</ele>
        <time>2016-08-04T10:36:46Z</time>
      </trkpt>
      <trkpt lat="45.78588" lon="4.34514">
        <ele>603.36</ele>
        <time>2016-08-04T10:37:17Z</time>
      </trkpt>
      <trkpt lat="45.78588" lon="4.34514">
        <ele>604.33</ele>
        <time>2016-08-04T10:37:46Z</time>
      </trkpt>
      <trkpt lat="45.78589" lon="4.34514">
        <ele>605.29</ele>
        <time>2016-08-04T10:38:19Z</time>
      </trkpt>
      <trkpt lat="45.78588" lon="4.34513">
        <ele>605.29</ele>
        <time>2016-08-04T10:38:51Z</time>
      </trkpt>
      <trkpt lat="45.78588" lon="4.34512">
        <ele>604.81</ele>
        <time>2016-08-04T10:39:17Z</time>
      </trkpt>
      <trkpt lat="45.78588" lon="4.34513">
        <ele>605.29</ele>
        <time>2016-08-04T10:39:47Z</time>
      </trkpt>
      <trkpt lat="45.78588" lon="4.34514">
        <ele>605.29</ele>
        <time>2016-08-04T10:40:21Z</time>
      </trkpt>
      <trkpt lat="45.78589" lon="4.34514">
        <ele>605.77</ele>
        <time>2016-08-04T10:40:47Z</time>
      </trkpt>
      <trkpt lat="45.78589" lon="4.34514">
        <ele>605.77</ele>
        <time>2016-08-04T10:41:12Z</time>
      </trkpt>
      <trkpt lat="45.78589" lon="4.34514">
        <ele>605.77</ele>
        <time>2016-08-04T10:41:41Z</time>
      </trkpt>
      <trkpt lat="45.78589" lon="4.34514">
        <ele>605.29</ele>
        <time>2016-08-04T10:42:06Z</time>
      </trkpt>
      <trkpt lat="45.78589" lon="4.34514">
        <ele>606.25</ele>
        <time>2016-08-04T10:42:42Z</time>
      </trkpt>
      <trkpt lat="45.78589" lon="4.34514">
        <ele>606.73</ele>
        <time>2016-08-04T10:43:13Z</time>
      </trkpt>
      <trkpt lat="45.78589" lon="4.34513">
        <ele>605.77</ele>
        <time>2016-08-04T10:43:42Z</time>
      </trkpt>
      <trkpt lat="45.78588" lon="4.34513">
        <ele>604.33</ele>
        <time>2016-08-04T10:44:12Z</time>
      </trkpt>
      <trkpt lat="45.78588" lon="4.34513">
        <ele>604.33</ele>
        <time>2016-08-04T10:44:40Z</time>
      </trkpt>
      <trkpt lat="45.78587" lon="4.34513">
        <ele>603.36</ele>
        <time>2016-08-04T10:45:10Z</time>
      </trkpt>
      <trkpt lat="45.78587" lon="4.34513">
        <ele>603.36</ele>
        <time>2016-08-04T10:45:39Z</time>
      </trkpt>
      <trkpt lat="45.78587" lon="4.34513">
        <ele>603.36</ele>
        <time>2016-08-04T10:46:10Z</time>
      </trkpt>
      <trkpt lat="45.78587" lon="4.34513">
        <ele>604.33</ele>
        <time>2016-08-04T10:46:45Z</time>
      </trkpt>
      <trkpt lat="45.78588" lon="4.34513">
        <ele>604.33</ele>
        <time>2016-08-04T10:47:19Z</time>
      </trkpt>
      <trkpt lat="45.78588" lon="4.34514">
        <ele>603.36</ele>
        <time>2016-08-04T10:47:54Z</time>
      </trkpt>
      <trkpt lat="45.78588" lon="4.34515">
        <ele>604.81</ele>
        <time>2016-08-04T10:48:20Z</time>
      </trkpt>
      <trkpt lat="45.78588" lon="4.34514">
        <ele>604.81</ele>
        <time>2016-08-04T10:48:41Z</time>
      </trkpt>
      <trkpt lat="45.78588" lon="4.34513">
        <ele>605.29</ele>
        <time>2016-08-04T10:49:11Z</time>
      </trkpt>
      <trkpt lat="45.78588" lon="4.34514">
        <ele>606.25</ele>
        <time>2016-08-04T10:49:42Z</time>
      </trkpt>
      <trkpt lat="45.78588" lon="4.34514">
        <ele>606.25</ele>
        <time>2016-08-04T10:50:06Z</time>
      </trkpt>
      <trkpt lat="45.78588" lon="4.34513">
        <ele>605.77</ele>
        <time>2016-08-04T10:50:33Z</time>
      </trkpt>
      <trkpt lat="45.78588" lon="4.34512">
        <ele>605.29</ele>
        <time>2016-08-04T10:51:07Z</time>
      </trkpt>
      <trkpt lat="45.78587" lon="4.34512">
        <ele>604.81</ele>
        <time>2016-08-04T10:51:37Z</time>
      </trkpt>
      <trkpt lat="45.78587" lon="4.34513">
        <ele>604.81</ele>
        <time>2016-08-04T10:52:08Z</time>
      </trkpt>
      <trkpt lat="45.78587" lon="4.34513">
        <ele>604.81</ele>
        <time>2016-08-04T10:52:37Z</time>
      </trkpt>
      <trkpt lat="45.78588" lon="4.34512">
        <ele>605.77</ele>
        <time>2016-08-04T10:52:59Z</time>
      </trkpt>
      <trkpt lat="45.78588" lon="4.34513">
        <ele>605.29</ele>
        <time>2016-08-04T10:53:21Z</time>
      </trkpt>
      <trkpt lat="45.78588" lon="4.34513">
        <ele>604.81</ele>
        <time>2016-08-04T10:53:53Z</time>
      </trkpt>
      <trkpt lat="45.78588" lon="4.34513">
        <ele>605.29</ele>
        <time>2016-08-04T10:54:23Z</time>
      </trkpt>
      <trkpt lat="45.78587" lon="4.34513">
        <ele>605.29</ele>
        <time>2016-08-04T10:54:56Z</time>
      </trkpt>
      <trkpt lat="45.78589" lon="4.34514">
        <ele>605.29</ele>
        <time>2016-08-04T10:55:27Z</time>
      </trkpt>
      <trkpt lat="45.78588" lon="4.34513">
        <ele>605.29</ele>
        <time>2016-08-04T10:56:02Z</time>
      </trkpt>
      <trkpt lat="45.78588" lon="4.34514">
        <ele>605.77</ele>
        <time>2016-08-04T10:56:27Z</time>
      </trkpt>
      <trkpt lat="45.78588" lon="4.34513">
        <ele>605.77</ele>
        <time>2016-08-04T10:56:44Z</time>
      </trkpt>
      <trkpt lat="45.78588" lon="4.34512">
        <ele>605.29</ele>
        <time>2016-08-04T10:57:18Z</time>
      </trkpt>
      <trkpt lat="45.78588" lon="4.34511">
        <ele>604.81</ele>
        <time>2016-08-04T10:57:51Z</time>
      </trkpt>
      <trkpt lat="45.78588" lon="4.34511">
        <ele>604.81</ele>
        <time>2016-08-04T10:58:26Z</time>
      </trkpt>
      <trkpt lat="45.78589" lon="4.34512">
        <ele>605.29</ele>
        <time>2016-08-04T10:59:05Z</time>
      </trkpt>
      <trkpt lat="45.7859" lon="4.34513">
        <ele>605.29</ele>
        <time>2016-08-04T10:59:43Z</time>
      </trkpt>
      <trkpt lat="45.78589" lon="4.34513">
        <ele>604.33</ele>
        <time>2016-08-04T11:00:11Z</time>
      </trkpt>
      <trkpt lat="45.78589" lon="4.34514">
        <ele>606.25</ele>
        <time>2016-08-04T11:00:43Z</time>
      </trkpt>
      <trkpt lat="45.78589" lon="4.34514">
        <ele>605.29</ele>
        <time>2016-08-04T11:01:16Z</time>
      </trkpt>
      <trkpt lat="45.78589" lon="4.34513">
        <ele>605.77</ele>
        <time>2016-08-04T11:01:51Z</time>
      </trkpt>
      <trkpt lat="45.78588" lon="4.34515">
        <ele>606.25</ele>
        <time>2016-08-04T11:02:25Z</time>
      </trkpt>
      <trkpt lat="45.78588" lon="4.34513">
        <ele>605.77</ele>
        <time>2016-08-04T11:03:00Z</time>
      </trkpt>
      <trkpt lat="45.78588" lon="4.34513">
        <ele>605.77</ele>
        <time>2016-08-04T11:03:45Z</time>
      </trkpt>
      <trkpt lat="45.78588" lon="4.34514">
        <ele>606.25</ele>
        <time>2016-08-04T11:04:13Z</time>
      </trkpt>
      <trkpt lat="45.78588" lon="4.34515">
        <ele>606.25</ele>
        <time>2016-08-04T11:04:54Z</time>
      </trkpt>
      <trkpt lat="45.78587" lon="4.34514">
        <ele>606.25</ele>
        <time>2016-08-04T11:05:30Z</time>
      </trkpt>
      <trkpt lat="45.78588" lon="4.34514">
        <ele>605.77</ele>
        <time>2016-08-04T11:05:57Z</time>
      </trkpt>
      <trkpt lat="45.78588" lon="4.34513">
        <ele>605.77</ele>
        <time>2016-08-04T11:06:21Z</time>
      </trkpt>
      <trkpt lat="45.78588" lon="4.34513">
        <ele>605.77</ele>
        <time>2016-08-04T11:06:48Z</time>
      </trkpt>
      <trkpt lat="45.78587" lon="4.34512">
        <ele>604.81</ele>
        <time>2016-08-04T11:07:14Z</time>
      </trkpt>
      <trkpt lat="45.78587" lon="4.34511">
        <ele>604.33</ele>
        <time>2016-08-04T11:07:28Z</time>
      </trkpt>
      <trkpt lat="45.78588" lon="4.34511">
        <ele>604.81</ele>
        <time>2016-08-04T11:07:39Z</time>
      </trkpt>
      <trkpt lat="45.78589" lon="4.34511">
        <ele>604.81</ele>
        <time>2016-08-04T11:07:48Z</time>
      </trkpt>
      <trkpt lat="45.78603" lon="4.34519">
        <ele>603.36</ele>
        <time>2016-08-04T11:08:05Z</time>
      </trkpt>
      <trkpt lat="45.78605" lon="4.34521">
        <ele>603.36</ele>
        <time>2016-08-04T11:08:15Z</time>
      </trkpt>
      <trkpt lat="45.78604" lon="4.3452">
        <ele>603.85</ele>
        <time>2016-08-04T11:08:17Z</time>
      </trkpt>
      <trkpt lat="45.78601" lon="4.34519">
        <ele>604.33</ele>
        <time>2016-08-04T11:08:20Z</time>
      </trkpt>
      <trkpt lat="45.78593" lon="4.34513">
        <ele>606.25</ele>
        <time>2016-08-04T11:08:33Z</time>
      </trkpt>
      <trkpt lat="45.78589" lon="4.34514">
        <ele>606.73</ele>
        <time>2016-08-04T11:08:47Z</time>
      </trkpt>
      <trkpt lat="45.78585" lon="4.34516">
        <ele>606.73</ele>
        <time>2016-08-04T11:09:08Z</time>
      </trkpt>
      <trkpt lat="45.78586" lon="4.34515">
        <ele>606.73</ele>
        <time>2016-08-04T11:09:31Z</time>
      </trkpt>
      <trkpt lat="45.78589" lon="4.34513">
        <ele>607.21</ele>
        <time>2016-08-04T11:09:45Z</time>
      </trkpt>
      <trkpt lat="45.7859" lon="4.34508">
        <ele>606.73</ele>
        <time>2016-08-04T11:09:56Z</time>
      </trkpt>
      <trkpt lat="45.78589" lon="4.34505">
        <ele>606.25</ele>
        <time>2016-08-04T11:10:15Z</time>
      </trkpt>
      <trkpt lat="45.78589" lon="4.34505">
        <ele>606.73</ele>
        <time>2016-08-04T11:10:46Z</time>
      </trkpt>
      <trkpt lat="45.78589" lon="4.34505">
        <ele>606.25</ele>
        <time>2016-08-04T11:11:09Z</time>
      </trkpt>
      <trkpt lat="45.78589" lon="4.34504">
        <ele>606.25</ele>
        <time>2016-08-04T11:11:28Z</time>
      </trkpt>
      <trkpt lat="45.78589" lon="4.34503">
        <ele>605.29</ele>
        <time>2016-08-04T11:11:42Z</time>
      </trkpt>
      <trkpt lat="45.78589" lon="4.34504">
        <ele>604.81</ele>
        <time>2016-08-04T11:11:54Z</time>
      </trkpt>
      <trkpt lat="45.78589" lon="4.345">
        <ele>605.29</ele>
        <time>2016-08-04T11:11:58Z</time>
      </trkpt>
      <trkpt lat="45.78593" lon="4.34471">
        <ele>605.29</ele>
        <time>2016-08-04T11:12:15Z</time>
      </trkpt>
      <trkpt lat="45.78598" lon="4.34459">
        <ele>605.29</ele>
        <time>2016-08-04T11:12:22Z</time>
      </trkpt>
      <trkpt lat="45.78599" lon="4.34453">
        <ele>605.29</ele>
        <time>2016-08-04T11:12:26Z</time>
      </trkpt>
      <trkpt lat="45.78605" lon="4.34419">
        <ele>604.81</ele>
        <time>2016-08-04T11:12:47Z</time>
      </trkpt>
      <trkpt lat="45.78608" lon="4.34393">
        <ele>605.29</ele>
        <time>2016-08-04T11:13:05Z</time>
      </trkpt>
      <trkpt lat="45.78608" lon="4.34377">
        <ele>605.77</ele>
        <time>2016-08-04T11:13:18Z</time>
      </trkpt>
      <trkpt lat="45.78613" lon="4.34356">
        <ele>603.85</ele>
        <time>2016-08-04T11:13:33Z</time>
      </trkpt>
      <trkpt lat="45.7862" lon="4.34325">
        <ele>602.4</ele>
        <time>2016-08-04T11:13:50Z</time>
      </trkpt>
      <trkpt lat="45.78625" lon="4.34294">
        <ele>601.92</ele>
        <time>2016-08-04T11:14:08Z</time>
      </trkpt>
      <trkpt lat="45.78627" lon="4.34277">
        <ele>600</ele>
        <time>2016-08-04T11:14:19Z</time>
      </trkpt>
      <trkpt lat="45.7863" lon="4.34253">
        <ele>598.56</ele>
        <time>2016-08-04T11:14:33Z</time>
      </trkpt>
      <trkpt lat="45.78632" lon="4.34229">
        <ele>598.56</ele>
        <time>2016-08-04T11:14:50Z</time>
      </trkpt>
      <trkpt lat="45.78633" lon="4.34223">
        <ele>598.56</ele>
        <time>2016-08-04T11:14:54Z</time>
      </trkpt>
      <trkpt lat="45.78633" lon="4.34212">
        <ele>598.56</ele>
        <time>2016-08-04T11:15:03Z</time>
      </trkpt>
      <trkpt lat="45.78634" lon="4.342">
        <ele>599.04</ele>
        <time>2016-08-04T11:15:14Z</time>
      </trkpt>
      <trkpt lat="45.78643" lon="4.34196">
        <ele>597.12</ele>
        <time>2016-08-04T11:15:29Z</time>
      </trkpt>
      <trkpt lat="45.78644" lon="4.34197">
        <ele>597.12</ele>
        <time>2016-08-04T11:15:30Z</time>
      </trkpt>
      <trkpt lat="45.78648" lon="4.34199">
        <ele>597.12</ele>
        <time>2016-08-04T11:15:36Z</time>
      </trkpt>
      <trkpt lat="45.78665" lon="4.34204">
        <ele>596.15</ele>
        <time>2016-08-04T11:15:53Z</time>
      </trkpt>
      <trkpt lat="45.78689" lon="4.34208">
        <ele>595.67</ele>
        <time>2016-08-04T11:16:11Z</time>
      </trkpt>
      <trkpt lat="45.78705" lon="4.34218">
        <ele>594.71</ele>
        <time>2016-08-04T11:16:27Z</time>
      </trkpt>
      <trkpt lat="45.78717" lon="4.34231">
        <ele>595.67</ele>
        <time>2016-08-04T11:16:40Z</time>
      </trkpt>
      <trkpt lat="45.7873" lon="4.34248">
        <ele>597.6</ele>
        <time>2016-08-04T11:16:57Z</time>
      </trkpt>
      <trkpt lat="45.78739" lon="4.34259">
        <ele>598.08</ele>
        <time>2016-08-04T11:17:11Z</time>
      </trkpt>
      <trkpt lat="45.78753" lon="4.34274">
        <ele>600</ele>
        <time>2016-08-04T11:17:27Z</time>
      </trkpt>
      <trkpt lat="45.78754" lon="4.34275">
        <ele>600</ele>
        <time>2016-08-04T11:17:28Z</time>
      </trkpt>
      <trkpt lat="45.78764" lon="4.34283">
        <ele>600.96</ele>
        <time>2016-08-04T11:17:37Z</time>
      </trkpt>
      <trkpt lat="45.78781" lon="4.34301">
        <ele>603.36</ele>
        <time>2016-08-04T11:17:56Z</time>
      </trkpt>
      <trkpt lat="45.78791" lon="4.34313">
        <ele>605.77</ele>
        <time>2016-08-04T11:18:09Z</time>
      </trkpt>
      <trkpt lat="45.78804" lon="4.34328">
        <ele>607.69</ele>
        <time>2016-08-04T11:18:26Z</time>
      </trkpt>
      <trkpt lat="45.78815" lon="4.34336">
        <ele>608.65</ele>
        <time>2016-08-04T11:18:41Z</time>
      </trkpt>
      <trkpt lat="45.78829" lon="4.34353">
        <ele>611.54</ele>
        <time>2016-08-04T11:18:57Z</time>
      </trkpt>
      <trkpt lat="45.7884" lon="4.34363">
        <ele>613.46</ele>
        <time>2016-08-04T11:19:11Z</time>
      </trkpt>
      <trkpt lat="45.78852" lon="4.34373">
        <ele>616.82</ele>
        <time>2016-08-04T11:19:26Z</time>
      </trkpt>
      <trkpt lat="45.78864" lon="4.34388">
        <ele>618.75</ele>
        <time>2016-08-04T11:19:41Z</time>
      </trkpt>
      <trkpt lat="45.78874" lon="4.34398">
        <ele>619.71</ele>
        <time>2016-08-04T11:19:54Z</time>
      </trkpt>
      <trkpt lat="45.78885" lon="4.34417">
        <ele>621.63</ele>
        <time>2016-08-04T11:20:09Z</time>
      </trkpt>
      <trkpt lat="45.78895" lon="4.3444">
        <ele>622.11</ele>
        <time>2016-08-04T11:20:26Z</time>
      </trkpt>
      <trkpt lat="45.78906" lon="4.34462">
        <ele>625.96</ele>
        <time>2016-08-04T11:20:43Z</time>
      </trkpt>
      <trkpt lat="45.78916" lon="4.34481">
        <ele>629.8</ele>
        <time>2016-08-04T11:20:57Z</time>
      </trkpt>
      <trkpt lat="45.78922" lon="4.34498">
        <ele>632.68</ele>
        <time>2016-08-04T11:21:08Z</time>
      </trkpt>
      <trkpt lat="45.78932" lon="4.34519">
        <ele>635.09</ele>
        <time>2016-08-04T11:21:24Z</time>
      </trkpt>
      <trkpt lat="45.78938" lon="4.3453">
        <ele>636.53</ele>
        <time>2016-08-04T11:21:33Z</time>
      </trkpt>
      <trkpt lat="45.78946" lon="4.34547">
        <ele>637.49</ele>
        <time>2016-08-04T11:21:48Z</time>
      </trkpt>
      <trkpt lat="45.78955" lon="4.34563">
        <ele>642.78</ele>
        <time>2016-08-04T11:22:04Z</time>
      </trkpt>
      <trkpt lat="45.78961" lon="4.34579">
        <ele>648.55</ele>
        <time>2016-08-04T11:22:17Z</time>
      </trkpt>
      <trkpt lat="45.7897" lon="4.34596">
        <ele>649.99</ele>
        <time>2016-08-04T11:22:30Z</time>
      </trkpt>
      <trkpt lat="45.78973" lon="4.34607">
        <ele>650.47</ele>
        <time>2016-08-04T11:22:36Z</time>
      </trkpt>
      <trkpt lat="45.78982" lon="4.34612">
        <ele>649.99</ele>
        <time>2016-08-04T11:22:43Z</time>
      </trkpt>
      <trkpt lat="45.79006" lon="4.34605">
        <ele>647.1</ele>
        <time>2016-08-04T11:22:58Z</time>
      </trkpt>
      <trkpt lat="45.79024" lon="4.34597">
        <ele>642.78</ele>
        <time>2016-08-04T11:23:14Z</time>
      </trkpt>
      <trkpt lat="45.79047" lon="4.34591">
        <ele>640.86</ele>
        <time>2016-08-04T11:23:31Z</time>
      </trkpt>
      <trkpt lat="45.79067" lon="4.34584">
        <ele>638.45</ele>
        <time>2016-08-04T11:23:49Z</time>
      </trkpt>
      <trkpt lat="45.79086" lon="4.34578">
        <ele>638.93</ele>
        <time>2016-08-04T11:24:05Z</time>
      </trkpt>
      <trkpt lat="45.79108" lon="4.34569">
        <ele>636.53</ele>
        <time>2016-08-04T11:24:22Z</time>
      </trkpt>
      <trkpt lat="45.79126" lon="4.34563">
        <ele>635.09</ele>
        <time>2016-08-04T11:24:38Z</time>
      </trkpt>
      <trkpt lat="45.79128" lon="4.34563">
        <ele>635.57</ele>
        <time>2016-08-04T11:24:40Z</time>
      </trkpt>
      <trkpt lat="45.79135" lon="4.34562">
        <ele>636.53</ele>
        <time>2016-08-04T11:24:47Z</time>
      </trkpt>
      <trkpt lat="45.79153" lon="4.34555">
        <ele>638.93</ele>
        <time>2016-08-04T11:25:04Z</time>
      </trkpt>
      <trkpt lat="45.79162" lon="4.34561">
        <ele>639.41</ele>
        <time>2016-08-04T11:25:18Z</time>
      </trkpt>
      <trkpt lat="45.79168" lon="4.34564">
        <ele>638.45</ele>
        <time>2016-08-04T11:25:33Z</time>
      </trkpt>
      <trkpt lat="45.79167" lon="4.34563">
        <ele>637.01</ele>
        <time>2016-08-04T11:25:59Z</time>
      </trkpt>
      <trkpt lat="45.79166" lon="4.34564">
        <ele>634.61</ele>
        <time>2016-08-04T11:26:32Z</time>
      </trkpt>
      <trkpt lat="45.79168" lon="4.34564">
        <ele>635.57</ele>
        <time>2016-08-04T11:27:07Z</time>
      </trkpt>
      <trkpt lat="45.79168" lon="4.34564">
        <ele>635.57</ele>
        <time>2016-08-04T11:27:24Z</time>
      </trkpt>
      <trkpt lat="45.79168" lon="4.34562">
        <ele>636.05</ele>
        <time>2016-08-04T11:27:47Z</time>
      </trkpt>
      <trkpt lat="45.79167" lon="4.3456">
        <ele>636.05</ele>
        <time>2016-08-04T11:28:09Z</time>
      </trkpt>
      <trkpt lat="45.79166" lon="4.34564">
        <ele>637.01</ele>
        <time>2016-08-04T11:28:23Z</time>
      </trkpt>
      <trkpt lat="45.79168" lon="4.34567">
        <ele>636.53</ele>
        <time>2016-08-04T11:28:44Z</time>
      </trkpt>
      <trkpt lat="45.79168" lon="4.34568">
        <ele>637.01</ele>
        <time>2016-08-04T11:29:03Z</time>
      </trkpt>
      <trkpt lat="45.79167" lon="4.34568">
        <ele>637.01</ele>
        <time>2016-08-04T11:29:37Z</time>
      </trkpt>
      <trkpt lat="45.79168" lon="4.34568">
        <ele>636.53</ele>
        <time>2016-08-04T11:29:54Z</time>
      </trkpt>
      <trkpt lat="45.7917" lon="4.34569">
        <ele>636.53</ele>
        <time>2016-08-04T11:30:08Z</time>
      </trkpt>
      <trkpt lat="45.79168" lon="4.34568">
        <ele>636.53</ele>
        <time>2016-08-04T11:30:22Z</time>
      </trkpt>
      <trkpt lat="45.79168" lon="4.34568">
        <ele>636.05</ele>
        <time>2016-08-04T11:30:40Z</time>
      </trkpt>
      <trkpt lat="45.79167" lon="4.34567">
        <ele>637.49</ele>
        <time>2016-08-04T11:30:59Z</time>
      </trkpt>
      <trkpt lat="45.79167" lon="4.34568">
        <ele>637.49</ele>
        <time>2016-08-04T11:31:18Z</time>
      </trkpt>
      <trkpt lat="45.79166" lon="4.34566">
        <ele>637.01</ele>
        <time>2016-08-04T11:31:27Z</time>
      </trkpt>
      <trkpt lat="45.79164" lon="4.34562">
        <ele>636.53</ele>
        <time>2016-08-04T11:31:30Z</time>
      </trkpt>
      <trkpt lat="45.7917" lon="4.34542">
        <ele>636.53</ele>
        <time>2016-08-04T11:31:45Z</time>
      </trkpt>
      <trkpt lat="45.79178" lon="4.34521">
        <ele>636.05</ele>
        <time>2016-08-04T11:32:02Z</time>
      </trkpt>
      <trkpt lat="45.79187" lon="4.345">
        <ele>633.17</ele>
        <time>2016-08-04T11:32:20Z</time>
      </trkpt>
      <trkpt lat="45.7919" lon="4.34472">
        <ele>634.13</ele>
        <time>2016-08-04T11:32:38Z</time>
      </trkpt>
      <trkpt lat="45.7919" lon="4.34455">
        <ele>632.2</ele>
        <time>2016-08-04T11:32:53Z</time>
      </trkpt>
      <trkpt lat="45.79196" lon="4.34443">
        <ele>635.57</ele>
        <time>2016-08-04T11:33:06Z</time>
      </trkpt>
      <trkpt lat="45.79205" lon="4.3443">
        <ele>639.89</ele>
        <time>2016-08-04T11:33:21Z</time>
      </trkpt>
      <trkpt lat="45.79218" lon="4.34403">
        <ele>641.34</ele>
        <time>2016-08-04T11:33:39Z</time>
      </trkpt>
      <trkpt lat="45.79227" lon="4.34387">
        <ele>640.38</ele>
        <time>2016-08-04T11:33:53Z</time>
      </trkpt>
      <trkpt lat="45.79233" lon="4.34366">
        <ele>639.41</ele>
        <time>2016-08-04T11:34:08Z</time>
      </trkpt>
      <trkpt lat="45.79236" lon="4.3436">
        <ele>639.41</ele>
        <time>2016-08-04T11:34:13Z</time>
      </trkpt>
      <trkpt lat="45.79239" lon="4.34356">
        <ele>639.41</ele>
        <time>2016-08-04T11:34:17Z</time>
      </trkpt>
      <trkpt lat="45.79241" lon="4.34326">
        <ele>637.97</ele>
        <time>2016-08-04T11:34:34Z</time>
      </trkpt>
      <trkpt lat="45.79246" lon="4.34315">
        <ele>641.34</ele>
        <time>2016-08-04T11:34:48Z</time>
      </trkpt>
      <trkpt lat="45.79252" lon="4.34307">
        <ele>652.39</ele>
        <time>2016-08-04T11:35:03Z</time>
      </trkpt>
      <trkpt lat="45.79255" lon="4.34305">
        <ele>655.28</ele>
        <time>2016-08-04T11:35:08Z</time>
      </trkpt>
      <trkpt lat="45.79261" lon="4.34291">
        <ele>664.41</ele>
        <time>2016-08-04T11:35:20Z</time>
      </trkpt>
      <trkpt lat="45.79267" lon="4.34267">
        <ele>667.29</ele>
        <time>2016-08-04T11:35:32Z</time>
      </trkpt>
      <trkpt lat="45.79277" lon="4.34248">
        <ele>669.22</ele>
        <time>2016-08-04T11:35:46Z</time>
      </trkpt>
      <trkpt lat="45.79277" lon="4.34231">
        <ele>659.12</ele>
        <time>2016-08-04T11:35:58Z</time>
      </trkpt>
      <trkpt lat="45.79284" lon="4.34199">
        <ele>654.31</ele>
        <time>2016-08-04T11:36:13Z</time>
      </trkpt>
      <trkpt lat="45.79289" lon="4.34186">
        <ele>656.24</ele>
        <time>2016-08-04T11:36:25Z</time>
      </trkpt>
      <trkpt lat="45.79294" lon="4.34163">
        <ele>661.04</ele>
        <time>2016-08-04T11:36:39Z</time>
      </trkpt>
      <trkpt lat="45.79297" lon="4.34132">
        <ele>659.6</ele>
        <time>2016-08-04T11:36:52Z</time>
      </trkpt>
      <trkpt lat="45.79304" lon="4.34097">
        <ele>651.91</ele>
        <time>2016-08-04T11:37:09Z</time>
      </trkpt>
      <trkpt lat="45.79306" lon="4.34087">
        <ele>651.91</ele>
        <time>2016-08-04T11:37:15Z</time>
      </trkpt>
      <trkpt lat="45.79309" lon="4.34061">
        <ele>651.43</ele>
        <time>2016-08-04T11:37:32Z</time>
      </trkpt>
      <trkpt lat="45.79306" lon="4.34042">
        <ele>649.03</ele>
        <time>2016-08-04T11:37:43Z</time>
      </trkpt>
      <trkpt lat="45.79294" lon="4.34023">
        <ele>643.74</ele>
        <time>2016-08-04T11:37:58Z</time>
      </trkpt>
      <trkpt lat="45.79276" lon="4.34">
        <ele>637.49</ele>
        <time>2016-08-04T11:38:16Z</time>
      </trkpt>
      <trkpt lat="45.79257" lon="4.33994">
        <ele>632.68</ele>
        <time>2016-08-04T11:38:32Z</time>
      </trkpt>
      <trkpt lat="45.7924" lon="4.33979">
        <ele>630.28</ele>
        <time>2016-08-04T11:38:49Z</time>
      </trkpt>
      <trkpt lat="45.79222" lon="4.33961">
        <ele>628.36</ele>
        <time>2016-08-04T11:39:08Z</time>
      </trkpt>
      <trkpt lat="45.79207" lon="4.33939">
        <ele>622.59</ele>
        <time>2016-08-04T11:39:23Z</time>
      </trkpt>
      <trkpt lat="45.79203" lon="4.33927">
        <ele>622.11</ele>
        <time>2016-08-04T11:39:31Z</time>
      </trkpt>
      <trkpt lat="45.79197" lon="4.33906">
        <ele>620.67</ele>
        <time>2016-08-04T11:39:45Z</time>
      </trkpt>
      <trkpt lat="45.79196" lon="4.33902">
        <ele>620.67</ele>
        <time>2016-08-04T11:39:48Z</time>
      </trkpt>
      <trkpt lat="45.79197" lon="4.33897">
        <ele>620.19</ele>
        <time>2016-08-04T11:39:51Z</time>
      </trkpt>
      <trkpt lat="45.79195" lon="4.33879">
        <ele>619.23</ele>
        <time>2016-08-04T11:40:02Z</time>
      </trkpt>
      <trkpt lat="45.79192" lon="4.33866">
        <ele>618.75</ele>
        <time>2016-08-04T11:40:13Z</time>
      </trkpt>
      <trkpt lat="45.79185" lon="4.33855">
        <ele>622.59</ele>
        <time>2016-08-04T11:40:29Z</time>
      </trkpt>
      <trkpt lat="45.79179" lon="4.33847">
        <ele>622.59</ele>
        <time>2016-08-04T11:40:40Z</time>
      </trkpt>
      <trkpt lat="45.79177" lon="4.33835">
        <ele>618.75</ele>
        <time>2016-08-04T11:40:53Z</time>
      </trkpt>
      <trkpt lat="45.7917" lon="4.33821">
        <ele>619.23</ele>
        <time>2016-08-04T11:41:05Z</time>
      </trkpt>
      <trkpt lat="45.7916" lon="4.33795">
        <ele>614.42</ele>
        <time>2016-08-04T11:41:22Z</time>
      </trkpt>
      <trkpt lat="45.79149" lon="4.33766">
        <ele>607.21</ele>
        <time>2016-08-04T11:41:41Z</time>
      </trkpt>
      <trkpt lat="45.79142" lon="4.33747">
        <ele>606.25</ele>
        <time>2016-08-04T11:41:54Z</time>
      </trkpt>
      <trkpt lat="45.79134" lon="4.33732">
        <ele>603.85</ele>
        <time>2016-08-04T11:42:04Z</time>
      </trkpt>
      <trkpt lat="45.79125" lon="4.33703">
        <ele>597.12</ele>
        <time>2016-08-04T11:42:21Z</time>
      </trkpt>
      <trkpt lat="45.79116" lon="4.33682">
        <ele>593.27</ele>
        <time>2016-08-04T11:42:34Z</time>
      </trkpt>
      <trkpt lat="45.79112" lon="4.33672">
        <ele>592.31</ele>
        <time>2016-08-04T11:42:40Z</time>
      </trkpt>
      <trkpt lat="45.79101" lon="4.33646">
        <ele>588.95</ele>
        <time>2016-08-04T11:42:56Z</time>
      </trkpt>
      <trkpt lat="45.79089" lon="4.33622">
        <ele>586.06</ele>
        <time>2016-08-04T11:43:12Z</time>
      </trkpt>
      <trkpt lat="45.79075" lon="4.33595">
        <ele>578.85</ele>
        <time>2016-08-04T11:43:32Z</time>
      </trkpt>
      <trkpt lat="45.79069" lon="4.33586">
        <ele>578.37</ele>
        <time>2016-08-04T11:43:45Z</time>
      </trkpt>
      <trkpt lat="45.79051" lon="4.33569">
        <ele>576.45</ele>
        <time>2016-08-04T11:44:02Z</time>
      </trkpt>
      <trkpt lat="45.79034" lon="4.33545">
        <ele>575.01</ele>
        <time>2016-08-04T11:44:20Z</time>
      </trkpt>
      <trkpt lat="45.79022" lon="4.3352">
        <ele>573.56</ele>
        <time>2016-08-04T11:44:35Z</time>
      </trkpt>
      <trkpt lat="45.79009" lon="4.33487">
        <ele>571.64</ele>
        <time>2016-08-04T11:44:54Z</time>
      </trkpt>
      <trkpt lat="45.78995" lon="4.3346">
        <ele>567.32</ele>
        <time>2016-08-04T11:45:12Z</time>
      </trkpt>
      <trkpt lat="45.78986" lon="4.33438">
        <ele>566.35</ele>
        <time>2016-08-04T11:45:27Z</time>
      </trkpt>
      <trkpt lat="45.7898" lon="4.33412">
        <ele>565.39</ele>
        <time>2016-08-04T11:45:41Z</time>
      </trkpt>
      <trkpt lat="45.78977" lon="4.33379">
        <ele>570.2</ele>
        <time>2016-08-04T11:45:58Z</time>
      </trkpt>
      <trkpt lat="45.78978" lon="4.33374">
        <ele>569.72</ele>
        <time>2016-08-04T11:46:02Z</time>
      </trkpt>
      <trkpt lat="45.78993" lon="4.33369">
        <ele>567.32</ele>
        <time>2016-08-04T11:46:15Z</time>
      </trkpt>
      <trkpt lat="45.79019" lon="4.33361">
        <ele>562.99</ele>
        <time>2016-08-04T11:46:38Z</time>
      </trkpt>
      <trkpt lat="45.79043" lon="4.33358">
        <ele>562.51</ele>
        <time>2016-08-04T11:46:56Z</time>
      </trkpt>
      <trkpt lat="45.79062" lon="4.33353">
        <ele>563.47</ele>
        <time>2016-08-04T11:47:11Z</time>
      </trkpt>
      <trkpt lat="45.79076" lon="4.33338">
        <ele>562.99</ele>
        <time>2016-08-04T11:47:27Z</time>
      </trkpt>
      <trkpt lat="45.79087" lon="4.33318">
        <ele>562.51</ele>
        <time>2016-08-04T11:47:43Z</time>
      </trkpt>
      <trkpt lat="45.79088" lon="4.33314">
        <ele>563.95</ele>
        <time>2016-08-04T11:47:46Z</time>
      </trkpt>
      <trkpt lat="45.79103" lon="4.33293">
        <ele>569.24</ele>
        <time>2016-08-04T11:48:03Z</time>
      </trkpt>
      <trkpt lat="45.79115" lon="4.33281">
        <ele>574.53</ele>
        <time>2016-08-04T11:48:17Z</time>
      </trkpt>
      <trkpt lat="45.79133" lon="4.33273">
        <ele>576.93</ele>
        <time>2016-08-04T11:48:32Z</time>
      </trkpt>
      <trkpt lat="45.79151" lon="4.33263">
        <ele>576.93</ele>
        <time>2016-08-04T11:48:49Z</time>
      </trkpt>
      <trkpt lat="45.79172" lon="4.33255">
        <ele>577.41</ele>
        <time>2016-08-04T11:49:08Z</time>
      </trkpt>
      <trkpt lat="45.79175" lon="4.33253">
        <ele>577.41</ele>
        <time>2016-08-04T11:49:11Z</time>
      </trkpt>
      <trkpt lat="45.79179" lon="4.33244">
        <ele>575.01</ele>
        <time>2016-08-04T11:49:18Z</time>
      </trkpt>
      <trkpt lat="45.79176" lon="4.3322">
        <ele>574.04</ele>
        <time>2016-08-04T11:49:33Z</time>
      </trkpt>
      <trkpt lat="45.79171" lon="4.332">
        <ele>573.56</ele>
        <time>2016-08-04T11:49:48Z</time>
      </trkpt>
      <trkpt lat="45.79166" lon="4.3318">
        <ele>571.16</ele>
        <time>2016-08-04T11:50:03Z</time>
      </trkpt>
      <trkpt lat="45.79163" lon="4.33163">
        <ele>570.68</ele>
        <time>2016-08-04T11:50:15Z</time>
      </trkpt>
      <trkpt lat="45.79163" lon="4.33161">
        <ele>570.68</ele>
        <time>2016-08-04T11:50:16Z</time>
      </trkpt>
      <trkpt lat="45.79157" lon="4.33142">
        <ele>567.8</ele>
        <time>2016-08-04T11:50:30Z</time>
      </trkpt>
      <trkpt lat="45.79153" lon="4.33133">
        <ele>567.32</ele>
        <time>2016-08-04T11:50:35Z</time>
      </trkpt>
      <trkpt lat="45.79147" lon="4.33105">
        <ele>565.39</ele>
        <time>2016-08-04T11:50:51Z</time>
      </trkpt>
      <trkpt lat="45.79146" lon="4.33098">
        <ele>565.39</ele>
        <time>2016-08-04T11:50:55Z</time>
      </trkpt>
      <trkpt lat="45.79141" lon="4.33067">
        <ele>562.03</ele>
        <time>2016-08-04T11:51:13Z</time>
      </trkpt>
      <trkpt lat="45.79141" lon="4.33049">
        <ele>561.55</ele>
        <time>2016-08-04T11:51:26Z</time>
      </trkpt>
      <trkpt lat="45.79142" lon="4.33046">
        <ele>561.55</ele>
        <time>2016-08-04T11:51:40Z</time>
      </trkpt>
      <trkpt lat="45.79135" lon="4.33021">
        <ele>558.66</ele>
        <time>2016-08-04T11:51:56Z</time>
      </trkpt>
      <trkpt lat="45.79129" lon="4.32992">
        <ele>554.82</ele>
        <time>2016-08-04T11:52:13Z</time>
      </trkpt>
      <trkpt lat="45.79118" lon="4.32966">
        <ele>552.41</ele>
        <time>2016-08-04T11:52:30Z</time>
      </trkpt>
      <trkpt lat="45.79105" lon="4.32944">
        <ele>548.57</ele>
        <time>2016-08-04T11:52:47Z</time>
      </trkpt>
      <trkpt lat="45.7909" lon="4.3292">
        <ele>545.2</ele>
        <time>2016-08-04T11:53:05Z</time>
      </trkpt>
      <trkpt lat="45.79074" lon="4.329">
        <ele>541.84</ele>
        <time>2016-08-04T11:53:22Z</time>
      </trkpt>
      <trkpt lat="45.79068" lon="4.32891">
        <ele>540.4</ele>
        <time>2016-08-04T11:53:30Z</time>
      </trkpt>
      <trkpt lat="45.79064" lon="4.32883">
        <ele>538.96</ele>
        <time>2016-08-04T11:53:35Z</time>
      </trkpt>
      <trkpt lat="45.79063" lon="4.32858">
        <ele>535.59</ele>
        <time>2016-08-04T11:53:51Z</time>
      </trkpt>
      <trkpt lat="45.79069" lon="4.32835">
        <ele>536.07</ele>
        <time>2016-08-04T11:54:04Z</time>
      </trkpt>
      <trkpt lat="45.79071" lon="4.3281">
        <ele>536.55</ele>
        <time>2016-08-04T11:54:18Z</time>
      </trkpt>
      <trkpt lat="45.79067" lon="4.32781">
        <ele>536.55</ele>
        <time>2016-08-04T11:54:35Z</time>
      </trkpt>
      <trkpt lat="45.79062" lon="4.32759">
        <ele>537.51</ele>
        <time>2016-08-04T11:54:49Z</time>
      </trkpt>
      <trkpt lat="45.79059" lon="4.32754">
        <ele>537.99</ele>
        <time>2016-08-04T11:54:53Z</time>
      </trkpt>
      <trkpt lat="45.79054" lon="4.32745">
        <ele>537.99</ele>
        <time>2016-08-04T11:55:00Z</time>
      </trkpt>
      <trkpt lat="45.79039" lon="4.32727">
        <ele>538.96</ele>
        <time>2016-08-04T11:55:17Z</time>
      </trkpt>
      <trkpt lat="45.79035" lon="4.32723">
        <ele>540.88</ele>
        <time>2016-08-04T11:55:33Z</time>
      </trkpt>
      <trkpt lat="45.79034" lon="4.32723">
        <ele>540.4</ele>
        <time>2016-08-04T11:55:51Z</time>
      </trkpt>
      <trkpt lat="45.79037" lon="4.32727">
        <ele>539.44</ele>
        <time>2016-08-04T11:56:09Z</time>
      </trkpt>
      <trkpt lat="45.79037" lon="4.32728">
        <ele>539.92</ele>
        <time>2016-08-04T11:56:29Z</time>
      </trkpt>
      <trkpt lat="45.79035" lon="4.32728">
        <ele>539.92</ele>
        <time>2016-08-04T11:56:35Z</time>
      </trkpt>
      <trkpt lat="45.79024" lon="4.32724">
        <ele>542.32</ele>
        <time>2016-08-04T11:56:49Z</time>
      </trkpt>
      <trkpt lat="45.79004" lon="4.32713">
        <ele>540.88</ele>
        <time>2016-08-04T11:57:03Z</time>
      </trkpt>
      <trkpt lat="45.78983" lon="4.32696">
        <ele>541.84</ele>
        <time>2016-08-04T11:57:21Z</time>
      </trkpt>
      <trkpt lat="45.78978" lon="4.32693">
        <ele>541.84</ele>
        <time>2016-08-04T11:57:25Z</time>
      </trkpt>
      <trkpt lat="45.78972" lon="4.32688">
        <ele>541.36</ele>
        <time>2016-08-04T11:57:31Z</time>
      </trkpt>
      <trkpt lat="45.78953" lon="4.3267">
        <ele>539.92</ele>
        <time>2016-08-04T11:57:48Z</time>
      </trkpt>
      <trkpt lat="45.78934" lon="4.32655">
        <ele>537.03</ele>
        <time>2016-08-04T11:58:05Z</time>
      </trkpt>
      <trkpt lat="45.78909" lon="4.32641">
        <ele>532.23</ele>
        <time>2016-08-04T11:58:24Z</time>
      </trkpt>
      <trkpt lat="45.78898" lon="4.32635">
        <ele>532.71</ele>
        <time>2016-08-04T11:58:33Z</time>
      </trkpt>
      <trkpt lat="45.78893" lon="4.32632">
        <ele>532.71</ele>
        <time>2016-08-04T11:58:37Z</time>
      </trkpt>
      <trkpt lat="45.78868" lon="4.3262">
        <ele>531.27</ele>
        <time>2016-08-04T11:58:56Z</time>
      </trkpt>
      <trkpt lat="45.78844" lon="4.32607">
        <ele>530.3</ele>
        <time>2016-08-04T11:59:14Z</time>
      </trkpt>
      <trkpt lat="45.78819" lon="4.32596">
        <ele>530.3</ele>
        <time>2016-08-04T11:59:34Z</time>
      </trkpt>
      <trkpt lat="45.78793" lon="4.32588">
        <ele>529.34</ele>
        <time>2016-08-04T11:59:54Z</time>
      </trkpt>
      <trkpt lat="45.78767" lon="4.32581">
        <ele>530.3</ele>
        <time>2016-08-04T12:00:14Z</time>
      </trkpt>
      <trkpt lat="45.78744" lon="4.32569">
        <ele>530.3</ele>
        <time>2016-08-04T12:00:32Z</time>
      </trkpt>
      <trkpt lat="45.7872" lon="4.32555">
        <ele>530.3</ele>
        <time>2016-08-04T12:00:52Z</time>
      </trkpt>
      <trkpt lat="45.78702" lon="4.32535">
        <ele>529.34</ele>
        <time>2016-08-04T12:01:10Z</time>
      </trkpt>
      <trkpt lat="45.78686" lon="4.32509">
        <ele>529.34</ele>
        <time>2016-08-04T12:01:27Z</time>
      </trkpt>
      <trkpt lat="45.7867" lon="4.3248">
        <ele>527.42</ele>
        <time>2016-08-04T12:01:46Z</time>
      </trkpt>
      <trkpt lat="45.78657" lon="4.32443">
        <ele>526.46</ele>
        <time>2016-08-04T12:02:07Z</time>
      </trkpt>
      <trkpt lat="45.78649" lon="4.32406">
        <ele>525.98</ele>
        <time>2016-08-04T12:02:27Z</time>
      </trkpt>
      <trkpt lat="45.78649" lon="4.32371">
        <ele>523.09</ele>
        <time>2016-08-04T12:02:46Z</time>
      </trkpt>
      <trkpt lat="45.78644" lon="4.32339">
        <ele>522.13</ele>
        <time>2016-08-04T12:03:04Z</time>
      </trkpt>
      <trkpt lat="45.78634" lon="4.32313">
        <ele>520.69</ele>
        <time>2016-08-04T12:03:21Z</time>
      </trkpt>
      <trkpt lat="45.78622" lon="4.32287">
        <ele>519.25</ele>
        <time>2016-08-04T12:03:38Z</time>
      </trkpt>
      <trkpt lat="45.78613" lon="4.32261">
        <ele>516.85</ele>
        <time>2016-08-04T12:03:55Z</time>
      </trkpt>
      <trkpt lat="45.78604" lon="4.32231">
        <ele>516.85</ele>
        <time>2016-08-04T12:04:13Z</time>
      </trkpt>
      <trkpt lat="45.78601" lon="4.32209">
        <ele>517.33</ele>
        <time>2016-08-04T12:04:27Z</time>
      </trkpt>
      <trkpt lat="45.78589" lon="4.32179">
        <ele>512.52</ele>
        <time>2016-08-04T12:04:44Z</time>
      </trkpt>
      <trkpt lat="45.78589" lon="4.32145">
        <ele>513</ele>
        <time>2016-08-04T12:05:02Z</time>
      </trkpt>
      <trkpt lat="45.78589" lon="4.32143">
        <ele>513</ele>
        <time>2016-08-04T12:05:03Z</time>
      </trkpt>
      <trkpt lat="45.78588" lon="4.32129">
        <ele>511.56</ele>
        <time>2016-08-04T12:05:13Z</time>
      </trkpt>
      <trkpt lat="45.78582" lon="4.32103">
        <ele>510.6</ele>
        <time>2016-08-04T12:05:30Z</time>
      </trkpt>
      <trkpt lat="45.78576" lon="4.32082">
        <ele>511.56</ele>
        <time>2016-08-04T12:05:45Z</time>
      </trkpt>
      <trkpt lat="45.78568" lon="4.32053">
        <ele>509.64</ele>
        <time>2016-08-04T12:06:02Z</time>
      </trkpt>
      <trkpt lat="45.78563" lon="4.3202">
        <ele>512.52</ele>
        <time>2016-08-04T12:06:20Z</time>
      </trkpt>
      <trkpt lat="45.7856" lon="4.32013">
        <ele>512.04</ele>
        <time>2016-08-04T12:06:25Z</time>
      </trkpt>
      <trkpt lat="45.78555" lon="4.31985">
        <ele>513.48</ele>
        <time>2016-08-04T12:06:41Z</time>
      </trkpt>
      <trkpt lat="45.78547" lon="4.31955">
        <ele>513</ele>
        <time>2016-08-04T12:06:57Z</time>
      </trkpt>
      <trkpt lat="45.78538" lon="4.31935">
        <ele>513.96</ele>
        <time>2016-08-04T12:07:13Z</time>
      </trkpt>
      <trkpt lat="45.78525" lon="4.31913">
        <ele>511.08</ele>
        <time>2016-08-04T12:07:29Z</time>
      </trkpt>
      <trkpt lat="45.78512" lon="4.319">
        <ele>509.64</ele>
        <time>2016-08-04T12:07:43Z</time>
      </trkpt>
      <trkpt lat="45.78497" lon="4.31889">
        <ele>511.56</ele>
        <time>2016-08-04T12:07:57Z</time>
      </trkpt>
      <trkpt lat="45.78478" lon="4.31879">
        <ele>511.56</ele>
        <time>2016-08-04T12:08:12Z</time>
      </trkpt>
      <trkpt lat="45.78463" lon="4.31872">
        <ele>510.6</ele>
        <time>2016-08-04T12:08:26Z</time>
      </trkpt>
      <trkpt lat="45.78444" lon="4.31867">
        <ele>506.75</ele>
        <time>2016-08-04T12:08:41Z</time>
      </trkpt>
      <trkpt lat="45.78426" lon="4.31861">
        <ele>506.75</ele>
        <time>2016-08-04T12:08:57Z</time>
      </trkpt>
      <trkpt lat="45.78405" lon="4.31853">
        <ele>508.19</ele>
        <time>2016-08-04T12:09:12Z</time>
      </trkpt>
      <trkpt lat="45.78404" lon="4.31854">
        <ele>508.67</ele>
        <time>2016-08-04T12:09:44Z</time>
      </trkpt>
      <trkpt lat="45.78403" lon="4.31854">
        <ele>508.19</ele>
        <time>2016-08-04T12:10:07Z</time>
      </trkpt>
      <trkpt lat="45.78401" lon="4.31853">
        <ele>507.23</ele>
        <time>2016-08-04T12:10:35Z</time>
      </trkpt>
      <trkpt lat="45.78401" lon="4.31853">
        <ele>507.23</ele>
        <time>2016-08-04T12:11:01Z</time>
      </trkpt>
      <trkpt lat="45.78401" lon="4.31854">
        <ele>507.71</ele>
        <time>2016-08-04T12:11:21Z</time>
      </trkpt>
      <trkpt lat="45.78401" lon="4.31854">
        <ele>507.71</ele>
        <time>2016-08-04T12:11:49Z</time>
      </trkpt>
      <trkpt lat="45.78402" lon="4.31853">
        <ele>507.23</ele>
        <time>2016-08-04T12:12:09Z</time>
      </trkpt>
      <trkpt lat="45.78402" lon="4.31852">
        <ele>507.23</ele>
        <time>2016-08-04T12:12:31Z</time>
      </trkpt>
      <trkpt lat="45.78403" lon="4.3185">
        <ele>507.23</ele>
        <time>2016-08-04T12:12:49Z</time>
      </trkpt>
      <trkpt lat="45.78404" lon="4.31849">
        <ele>507.71</ele>
        <time>2016-08-04T12:13:13Z</time>
      </trkpt>
      <trkpt lat="45.78404" lon="4.3185">
        <ele>507.71</ele>
        <time>2016-08-04T12:13:31Z</time>
      </trkpt>
      <trkpt lat="45.78404" lon="4.3185">
        <ele>508.67</ele>
        <time>2016-08-04T12:13:48Z</time>
      </trkpt>
      <trkpt lat="45.78404" lon="4.3185">
        <ele>509.64</ele>
        <time>2016-08-04T12:14:06Z</time>
      </trkpt>
      <trkpt lat="45.78404" lon="4.31848">
        <ele>509.64</ele>
        <time>2016-08-04T12:14:24Z</time>
      </trkpt>
      <trkpt lat="45.78403" lon="4.31851">
        <ele>510.6</ele>
        <time>2016-08-04T12:14:39Z</time>
      </trkpt>
      <trkpt lat="45.78405" lon="4.31849">
        <ele>510.6</ele>
        <time>2016-08-04T12:14:58Z</time>
      </trkpt>
      <trkpt lat="45.78407" lon="4.3185">
        <ele>510.12</ele>
        <time>2016-08-04T12:15:03Z</time>
      </trkpt>
      <trkpt lat="45.78408" lon="4.3185">
        <ele>510.12</ele>
        <time>2016-08-04T12:15:13Z</time>
      </trkpt>
      <trkpt lat="45.78409" lon="4.31849">
        <ele>509.64</ele>
        <time>2016-08-04T12:15:25Z</time>
      </trkpt>
      <trkpt lat="45.78409" lon="4.31848">
        <ele>509.64</ele>
        <time>2016-08-04T12:15:28Z</time>
      </trkpt>
      <trkpt lat="45.78412" lon="4.31846">
        <ele>510.12</ele>
        <time>2016-08-04T12:15:31Z</time>
      </trkpt>
      <trkpt lat="45.78417" lon="4.31844">
        <ele>513.48</ele>
        <time>2016-08-04T12:15:38Z</time>
      </trkpt>
      <trkpt lat="45.78425" lon="4.31837">
        <ele>517.33</ele>
        <time>2016-08-04T12:15:52Z</time>
      </trkpt>
      <trkpt lat="45.7843" lon="4.31834">
        <ele>518.29</ele>
        <time>2016-08-04T12:15:56Z</time>
      </trkpt>
      <trkpt lat="45.7844" lon="4.31829">
        <ele>519.73</ele>
        <time>2016-08-04T12:16:04Z</time>
      </trkpt>
      <trkpt lat="45.78462" lon="4.31819">
        <ele>520.21</ele>
        <time>2016-08-04T12:16:20Z</time>
      </trkpt>
      <trkpt lat="45.7848" lon="4.31813">
        <ele>520.69</ele>
        <time>2016-08-04T12:16:33Z</time>
      </trkpt>
      <trkpt lat="45.78498" lon="4.31808">
        <ele>523.09</ele>
        <time>2016-08-04T12:16:46Z</time>
      </trkpt>
      <trkpt lat="45.78499" lon="4.31808">
        <ele>523.09</ele>
        <time>2016-08-04T12:16:49Z</time>
      </trkpt>
      <trkpt lat="45.78503" lon="4.31806">
        <ele>523.58</ele>
        <time>2016-08-04T12:16:58Z</time>
      </trkpt>
      <trkpt lat="45.7851" lon="4.31797">
        <ele>525.02</ele>
        <time>2016-08-04T12:17:05Z</time>
      </trkpt>
      <trkpt lat="45.78532" lon="4.31766">
        <ele>525.02</ele>
        <time>2016-08-04T12:17:26Z</time>
      </trkpt>
      <trkpt lat="45.78551" lon="4.3175">
        <ele>524.54</ele>
        <time>2016-08-04T12:17:41Z</time>
      </trkpt>
      <trkpt lat="45.78576" lon="4.31734">
        <ele>523.58</ele>
        <time>2016-08-04T12:17:59Z</time>
      </trkpt>
      <trkpt lat="45.78602" lon="4.31716">
        <ele>523.58</ele>
        <time>2016-08-04T12:18:19Z</time>
      </trkpt>
      <trkpt lat="45.7862" lon="4.31704">
        <ele>523.58</ele>
        <time>2016-08-04T12:18:34Z</time>
      </trkpt>
      <trkpt lat="45.78641" lon="4.31693">
        <ele>522.61</ele>
        <time>2016-08-04T12:18:50Z</time>
      </trkpt>
      <trkpt lat="45.78663" lon="4.31681">
        <ele>523.09</ele>
        <time>2016-08-04T12:19:08Z</time>
      </trkpt>
      <trkpt lat="45.78683" lon="4.31675">
        <ele>523.58</ele>
        <time>2016-08-04T12:19:27Z</time>
      </trkpt>
      <trkpt lat="45.78688" lon="4.31673">
        <ele>523.09</ele>
        <time>2016-08-04T12:19:43Z</time>
      </trkpt>
      <trkpt lat="45.78703" lon="4.31669">
        <ele>523.58</ele>
        <time>2016-08-04T12:19:56Z</time>
      </trkpt>
      <trkpt lat="45.7872" lon="4.31672">
        <ele>524.54</ele>
        <time>2016-08-04T12:20:10Z</time>
      </trkpt>
      <trkpt lat="45.78738" lon="4.31675">
        <ele>524.06</ele>
        <time>2016-08-04T12:20:25Z</time>
      </trkpt>
      <trkpt lat="45.7876" lon="4.31676">
        <ele>522.13</ele>
        <time>2016-08-04T12:20:43Z</time>
      </trkpt>
      <trkpt lat="45.78777" lon="4.3167">
        <ele>522.13</ele>
        <time>2016-08-04T12:20:57Z</time>
      </trkpt>
      <trkpt lat="45.78783" lon="4.31663">
        <ele>523.58</ele>
        <time>2016-08-04T12:21:05Z</time>
      </trkpt>
      <trkpt lat="45.78787" lon="4.31659">
        <ele>524.06</ele>
        <time>2016-08-04T12:21:08Z</time>
      </trkpt>
      <trkpt lat="45.788" lon="4.31648">
        <ele>526.94</ele>
        <time>2016-08-04T12:21:22Z</time>
      </trkpt>
      <trkpt lat="45.78818" lon="4.31631">
        <ele>525.5</ele>
        <time>2016-08-04T12:21:36Z</time>
      </trkpt>
      <trkpt lat="45.78832" lon="4.31624">
        <ele>525.02</ele>
        <time>2016-08-04T12:21:48Z</time>
      </trkpt>
      <trkpt lat="45.78845" lon="4.31617">
        <ele>526.94</ele>
        <time>2016-08-04T12:22:01Z</time>
      </trkpt>
      <trkpt lat="45.78858" lon="4.31612">
        <ele>527.9</ele>
        <time>2016-08-04T12:22:13Z</time>
      </trkpt>
      <trkpt lat="45.78871" lon="4.31607">
        <ele>528.86</ele>
        <time>2016-08-04T12:22:25Z</time>
      </trkpt>
      <trkpt lat="45.78882" lon="4.31605">
        <ele>529.34</ele>
        <time>2016-08-04T12:22:37Z</time>
      </trkpt>
      <trkpt lat="45.78892" lon="4.31603">
        <ele>529.82</ele>
        <time>2016-08-04T12:22:48Z</time>
      </trkpt>
      <trkpt lat="45.78913" lon="4.31599">
        <ele>529.82</ele>
        <time>2016-08-04T12:23:02Z</time>
      </trkpt>
      <trkpt lat="45.78937" lon="4.31596">
        <ele>528.86</ele>
        <time>2016-08-04T12:23:16Z</time>
      </trkpt>
      <trkpt lat="45.78956" lon="4.31596">
        <ele>527.9</ele>
        <time>2016-08-04T12:23:30Z</time>
      </trkpt>
      <trkpt lat="45.78975" lon="4.31591">
        <ele>526.46</ele>
        <time>2016-08-04T12:23:43Z</time>
      </trkpt>
      <trkpt lat="45.7899" lon="4.31589">
        <ele>525.98</ele>
        <time>2016-08-04T12:23:55Z</time>
      </trkpt>
      <trkpt lat="45.78996" lon="4.31587">
        <ele>525.5</ele>
        <time>2016-08-04T12:24:12Z</time>
      </trkpt>
      <trkpt lat="45.78999" lon="4.31587">
        <ele>523.58</ele>
        <time>2016-08-04T12:24:30Z</time>
      </trkpt>
      <trkpt lat="45.79007" lon="4.31579">
        <ele>522.61</ele>
        <time>2016-08-04T12:24:49Z</time>
      </trkpt>
      <trkpt lat="45.79007" lon="4.31576">
        <ele>522.13</ele>
        <time>2016-08-04T12:24:51Z</time>
      </trkpt>
      <trkpt lat="45.79012" lon="4.31556">
        <ele>520.69</ele>
        <time>2016-08-04T12:25:06Z</time>
      </trkpt>
      <trkpt lat="45.79014" lon="4.31547">
        <ele>513.96</ele>
        <time>2016-08-04T12:25:21Z</time>
      </trkpt>
      <trkpt lat="45.79016" lon="4.31545">
        <ele>513.48</ele>
        <time>2016-08-04T12:25:24Z</time>
      </trkpt>
      <trkpt lat="45.79031" lon="4.31541">
        <ele>510.12</ele>
        <time>2016-08-04T12:25:37Z</time>
      </trkpt>
      <trkpt lat="45.79043" lon="4.31538">
        <ele>508.19</ele>
        <time>2016-08-04T12:25:52Z</time>
      </trkpt>
      <trkpt lat="45.79059" lon="4.31536">
        <ele>510.6</ele>
        <time>2016-08-04T12:26:07Z</time>
      </trkpt>
      <trkpt lat="45.79071" lon="4.31533">
        <ele>509.64</ele>
        <time>2016-08-04T12:26:19Z</time>
      </trkpt>
      <trkpt lat="45.79086" lon="4.31531">
        <ele>508.19</ele>
        <time>2016-08-04T12:26:34Z</time>
      </trkpt>
      <trkpt lat="45.79098" lon="4.31528">
        <ele>506.75</ele>
        <time>2016-08-04T12:26:48Z</time>
      </trkpt>
      <trkpt lat="45.79113" lon="4.31523">
        <ele>508.67</ele>
        <time>2016-08-04T12:27:01Z</time>
      </trkpt>
      <trkpt lat="45.79136" lon="4.31516">
        <ele>510.6</ele>
        <time>2016-08-04T12:27:18Z</time>
      </trkpt>
      <trkpt lat="45.79143" lon="4.31513">
        <ele>511.08</ele>
        <time>2016-08-04T12:27:23Z</time>
      </trkpt>
      <trkpt lat="45.79165" lon="4.31508">
        <ele>509.64</ele>
        <time>2016-08-04T12:27:41Z</time>
      </trkpt>
      <trkpt lat="45.79183" lon="4.31508">
        <ele>509.64</ele>
        <time>2016-08-04T12:27:58Z</time>
      </trkpt>
      <trkpt lat="45.79191" lon="4.31508">
        <ele>510.12</ele>
        <time>2016-08-04T12:28:13Z</time>
      </trkpt>
      <trkpt lat="45.792" lon="4.31511">
        <ele>510.12</ele>
        <time>2016-08-04T12:28:26Z</time>
      </trkpt>
      <trkpt lat="45.79211" lon="4.31508">
        <ele>511.08</ele>
        <time>2016-08-04T12:28:37Z</time>
      </trkpt>
      <trkpt lat="45.79221" lon="4.31486">
        <ele>511.08</ele>
        <time>2016-08-04T12:28:52Z</time>
      </trkpt>
      <trkpt lat="45.79225" lon="4.31461">
        <ele>510.6</ele>
        <time>2016-08-04T12:29:05Z</time>
      </trkpt>
      <trkpt lat="45.79223" lon="4.31452">
        <ele>509.16</ele>
        <time>2016-08-04T12:29:12Z</time>
      </trkpt>
      <trkpt lat="45.79223" lon="4.31446">
        <ele>509.16</ele>
        <time>2016-08-04T12:29:16Z</time>
      </trkpt>
      <trkpt lat="45.79223" lon="4.31429">
        <ele>509.16</ele>
        <time>2016-08-04T12:29:33Z</time>
      </trkpt>
      <trkpt lat="45.79223" lon="4.31426">
        <ele>509.16</ele>
        <time>2016-08-04T12:29:35Z</time>
      </trkpt>
      <trkpt lat="45.79219" lon="4.31415">
        <ele>508.67</ele>
        <time>2016-08-04T12:29:46Z</time>
      </trkpt>
      <trkpt lat="45.79215" lon="4.31415">
        <ele>509.16</ele>
        <time>2016-08-04T12:29:50Z</time>
      </trkpt>
      <trkpt lat="45.79203" lon="4.31416">
        <ele>509.64</ele>
        <time>2016-08-04T12:30:03Z</time>
      </trkpt>
      <trkpt lat="45.79186" lon="4.31409">
        <ele>513</ele>
        <time>2016-08-04T12:30:17Z</time>
      </trkpt>
      <trkpt lat="45.79174" lon="4.31401">
        <ele>516.85</ele>
        <time>2016-08-04T12:30:29Z</time>
      </trkpt>
      <trkpt lat="45.7916" lon="4.31399">
        <ele>520.21</ele>
        <time>2016-08-04T12:30:44Z</time>
      </trkpt>
      <trkpt lat="45.79142" lon="4.31393">
        <ele>521.17</ele>
        <time>2016-08-04T12:30:58Z</time>
      </trkpt>
      <trkpt lat="45.79134" lon="4.31393">
        <ele>522.61</ele>
        <time>2016-08-04T12:31:06Z</time>
      </trkpt>
      <trkpt lat="45.79118" lon="4.31397">
        <ele>525.02</ele>
        <time>2016-08-04T12:31:18Z</time>
      </trkpt>
      <trkpt lat="45.791" lon="4.31406">
        <ele>528.38</ele>
        <time>2016-08-04T12:31:31Z</time>
      </trkpt>
      <trkpt lat="45.7909" lon="4.31409">
        <ele>528.86</ele>
        <time>2016-08-04T12:31:40Z</time>
      </trkpt>
      <trkpt lat="45.79069" lon="4.31414">
        <ele>525.98</ele>
        <time>2016-08-04T12:31:55Z</time>
      </trkpt>
      <trkpt lat="45.7905" lon="4.3142">
        <ele>526.46</ele>
        <time>2016-08-04T12:32:11Z</time>
      </trkpt>
      <trkpt lat="45.79044" lon="4.31421">
        <ele>525.98</ele>
        <time>2016-08-04T12:32:18Z</time>
      </trkpt>
      <trkpt lat="45.79038" lon="4.31423">
        <ele>526.46</ele>
        <time>2016-08-04T12:32:22Z</time>
      </trkpt>
      <trkpt lat="45.79025" lon="4.31424">
        <ele>524.54</ele>
        <time>2016-08-04T12:32:34Z</time>
      </trkpt>
      <trkpt lat="45.79009" lon="4.31429">
        <ele>526.46</ele>
        <time>2016-08-04T12:32:46Z</time>
      </trkpt>
      <trkpt lat="45.7899" lon="4.31437">
        <ele>526.46</ele>
        <time>2016-08-04T12:33:01Z</time>
      </trkpt>
      <trkpt lat="45.78982" lon="4.31437">
        <ele>526.46</ele>
        <time>2016-08-04T12:33:08Z</time>
      </trkpt>
      <trkpt lat="45.7896" lon="4.3144">
        <ele>529.34</ele>
        <time>2016-08-04T12:33:23Z</time>
      </trkpt>
      <trkpt lat="45.78955" lon="4.31441">
        <ele>528.86</ele>
        <time>2016-08-04T12:33:26Z</time>
      </trkpt>
      <trkpt lat="45.78943" lon="4.31441">
        <ele>528.38</ele>
        <time>2016-08-04T12:33:34Z</time>
      </trkpt>
      <trkpt lat="45.78927" lon="4.31437">
        <ele>526.94</ele>
        <time>2016-08-04T12:33:44Z</time>
      </trkpt>
      <trkpt lat="45.78907" lon="4.31431">
        <ele>524.06</ele>
        <time>2016-08-04T12:33:59Z</time>
      </trkpt>
      <trkpt lat="45.78897" lon="4.31425">
        <ele>521.65</ele>
        <time>2016-08-04T12:34:07Z</time>
      </trkpt>
      <trkpt lat="45.78883" lon="4.31416">
        <ele>523.09</ele>
        <time>2016-08-04T12:34:20Z</time>
      </trkpt>
      <trkpt lat="45.78871" lon="4.31412">
        <ele>524.06</ele>
        <time>2016-08-04T12:34:33Z</time>
      </trkpt>
      <trkpt lat="45.78861" lon="4.31412">
        <ele>527.9</ele>
        <time>2016-08-04T12:34:47Z</time>
      </trkpt>
      <trkpt lat="45.78853" lon="4.3141">
        <ele>528.86</ele>
        <time>2016-08-04T12:34:57Z</time>
      </trkpt>
      <trkpt lat="45.7884" lon="4.3141">
        <ele>532.23</ele>
        <time>2016-08-04T12:35:06Z</time>
      </trkpt>
      <trkpt lat="45.78837" lon="4.31409">
        <ele>532.71</ele>
        <time>2016-08-04T12:35:08Z</time>
      </trkpt>
      <trkpt lat="45.78821" lon="4.31407">
        <ele>537.99</ele>
        <time>2016-08-04T12:35:22Z</time>
      </trkpt>
      <trkpt lat="45.78799" lon="4.3141">
        <ele>537.03</ele>
        <time>2016-08-04T12:35:35Z</time>
      </trkpt>
      <trkpt lat="45.78784" lon="4.31413">
        <ele>535.11</ele>
        <time>2016-08-04T12:35:47Z</time>
      </trkpt>
      <trkpt lat="45.78766" lon="4.31414">
        <ele>534.63</ele>
        <time>2016-08-04T12:36:01Z</time>
      </trkpt>
      <trkpt lat="45.78742" lon="4.3141">
        <ele>529.34</ele>
        <time>2016-08-04T12:36:17Z</time>
      </trkpt>
      <trkpt lat="45.78726" lon="4.31402">
        <ele>526.94</ele>
        <time>2016-08-04T12:36:31Z</time>
      </trkpt>
      <trkpt lat="45.78711" lon="4.31395">
        <ele>525.98</ele>
        <time>2016-08-04T12:36:45Z</time>
      </trkpt>
      <trkpt lat="45.78691" lon="4.31384">
        <ele>525.02</ele>
        <time>2016-08-04T12:37:01Z</time>
      </trkpt>
      <trkpt lat="45.78676" lon="4.31381">
        <ele>523.58</ele>
        <time>2016-08-04T12:37:14Z</time>
      </trkpt>
      <trkpt lat="45.78664" lon="4.31378">
        <ele>523.58</ele>
        <time>2016-08-04T12:37:23Z</time>
      </trkpt>
      <trkpt lat="45.78659" lon="4.31376">
        <ele>523.58</ele>
        <time>2016-08-04T12:37:28Z</time>
      </trkpt>
      <trkpt lat="45.78637" lon="4.31379">
        <ele>524.54</ele>
        <time>2016-08-04T12:37:43Z</time>
      </trkpt>
      <trkpt lat="45.78617" lon="4.31389">
        <ele>526.46</ele>
        <time>2016-08-04T12:37:58Z</time>
      </trkpt>
      <trkpt lat="45.78598" lon="4.31396">
        <ele>527.42</ele>
        <time>2016-08-04T12:38:11Z</time>
      </trkpt>
      <trkpt lat="45.78581" lon="4.31407">
        <ele>527.9</ele>
        <time>2016-08-04T12:38:26Z</time>
      </trkpt>
      <trkpt lat="45.78566" lon="4.31414">
        <ele>528.86</ele>
        <time>2016-08-04T12:38:39Z</time>
      </trkpt>
      <trkpt lat="45.78547" lon="4.3143">
        <ele>530.3</ele>
        <time>2016-08-04T12:38:55Z</time>
      </trkpt>
      <trkpt lat="45.78525" lon="4.31442">
        <ele>528.38</ele>
        <time>2016-08-04T12:39:11Z</time>
      </trkpt>
      <trkpt lat="45.78507" lon="4.31453">
        <ele>529.34</ele>
        <time>2016-08-04T12:39:27Z</time>
      </trkpt>
      <trkpt lat="45.78493" lon="4.3146">
        <ele>533.19</ele>
        <time>2016-08-04T12:39:39Z</time>
      </trkpt>
      <trkpt lat="45.78479" lon="4.31466">
        <ele>534.15</ele>
        <time>2016-08-04T12:39:50Z</time>
      </trkpt>
      <trkpt lat="45.78461" lon="4.31475">
        <ele>532.71</ele>
        <time>2016-08-04T12:40:04Z</time>
      </trkpt>
      <trkpt lat="45.78444" lon="4.31483">
        <ele>532.23</ele>
        <time>2016-08-04T12:40:18Z</time>
      </trkpt>
      <trkpt lat="45.7843" lon="4.31489">
        <ele>535.11</ele>
        <time>2016-08-04T12:40:29Z</time>
      </trkpt>
      <trkpt lat="45.7841" lon="4.315">
        <ele>533.19</ele>
        <time>2016-08-04T12:40:43Z</time>
      </trkpt>
      <trkpt lat="45.78399" lon="4.3151">
        <ele>525.98</ele>
        <time>2016-08-04T12:40:55Z</time>
      </trkpt>
      <trkpt lat="45.78383" lon="4.31529">
        <ele>524.06</ele>
        <time>2016-08-04T12:41:10Z</time>
      </trkpt>
      <trkpt lat="45.7837" lon="4.31547">
        <ele>526.94</ele>
        <time>2016-08-04T12:41:25Z</time>
      </trkpt>
      <trkpt lat="45.78351" lon="4.31563">
        <ele>526.94</ele>
        <time>2016-08-04T12:41:39Z</time>
      </trkpt>
      <trkpt lat="45.7834" lon="4.31568">
        <ele>528.38</ele>
        <time>2016-08-04T12:41:53Z</time>
      </trkpt>
      <trkpt lat="45.78325" lon="4.31567">
        <ele>526.46</ele>
        <time>2016-08-04T12:42:09Z</time>
      </trkpt>
      <trkpt lat="45.78316" lon="4.31568">
        <ele>513.96</ele>
        <time>2016-08-04T12:42:23Z</time>
      </trkpt>
      <trkpt lat="45.78315" lon="4.31568">
        <ele>508.67</ele>
        <time>2016-08-04T12:42:39Z</time>
      </trkpt>
      <trkpt lat="45.78315" lon="4.31567">
        <ele>505.31</ele>
        <time>2016-08-04T12:43:05Z</time>
      </trkpt>
      <trkpt lat="45.78315" lon="4.31563">
        <ele>502.91</ele>
        <time>2016-08-04T12:43:23Z</time>
      </trkpt>
      <trkpt lat="45.78315" lon="4.31558">
        <ele>500.5</ele>
        <time>2016-08-04T12:43:50Z</time>
      </trkpt>
      <trkpt lat="45.78315" lon="4.31559">
        <ele>500.02</ele>
        <time>2016-08-04T12:44:09Z</time>
      </trkpt>
      <trkpt lat="45.78317" lon="4.31555">
        <ele>500.5</ele>
        <time>2016-08-04T12:44:27Z</time>
      </trkpt>
      <trkpt lat="45.78317" lon="4.31551">
        <ele>500.98</ele>
        <time>2016-08-04T12:44:31Z</time>
      </trkpt>
      <trkpt lat="45.78313" lon="4.3153">
        <ele>501.46</ele>
        <time>2016-08-04T12:44:45Z</time>
      </trkpt>
      <trkpt lat="45.783" lon="4.31511">
        <ele>504.35</ele>
        <time>2016-08-04T12:45:02Z</time>
      </trkpt>
      <trkpt lat="45.78282" lon="4.31495">
        <ele>506.75</ele>
        <time>2016-08-04T12:45:19Z</time>
      </trkpt>
      <trkpt lat="45.78264" lon="4.31476">
        <ele>507.23</ele>
        <time>2016-08-04T12:45:37Z</time>
      </trkpt>
      <trkpt lat="45.78252" lon="4.31459">
        <ele>507.71</ele>
        <time>2016-08-04T12:45:53Z</time>
      </trkpt>
      <trkpt lat="45.7824" lon="4.31437">
        <ele>508.67</ele>
        <time>2016-08-04T12:46:10Z</time>
      </trkpt>
      <trkpt lat="45.78232" lon="4.31411">
        <ele>507.71</ele>
        <time>2016-08-04T12:46:27Z</time>
      </trkpt>
      <trkpt lat="45.78228" lon="4.31383">
        <ele>508.19</ele>
        <time>2016-08-04T12:46:44Z</time>
      </trkpt>
      <trkpt lat="45.78225" lon="4.31361">
        <ele>504.83</ele>
        <time>2016-08-04T12:46:59Z</time>
      </trkpt>
      <trkpt lat="45.78225" lon="4.31355">
        <ele>503.39</ele>
        <time>2016-08-04T12:47:03Z</time>
      </trkpt>
      <trkpt lat="45.78225" lon="4.31334">
        <ele>502.43</ele>
        <time>2016-08-04T12:47:17Z</time>
      </trkpt>
      <trkpt lat="45.78226" lon="4.31313">
        <ele>500.98</ele>
        <time>2016-08-04T12:47:30Z</time>
      </trkpt>
      <trkpt lat="45.78227" lon="4.31291">
        <ele>501.46</ele>
        <time>2016-08-04T12:47:44Z</time>
      </trkpt>
      <trkpt lat="45.78227" lon="4.3127">
        <ele>500.5</ele>
        <time>2016-08-04T12:47:56Z</time>
      </trkpt>
      <trkpt lat="45.78227" lon="4.31268">
        <ele>500.5</ele>
        <time>2016-08-04T12:47:57Z</time>
      </trkpt>
      <trkpt lat="45.78237" lon="4.31242">
        <ele>499.06</ele>
        <time>2016-08-04T12:48:14Z</time>
      </trkpt>
      <trkpt lat="45.7825" lon="4.31213">
        <ele>497.14</ele>
        <time>2016-08-04T12:48:33Z</time>
      </trkpt>
      <trkpt lat="45.78253" lon="4.31202">
        <ele>497.14</ele>
        <time>2016-08-04T12:48:40Z</time>
      </trkpt>
      <trkpt lat="45.78261" lon="4.31179">
        <ele>498.1</ele>
        <time>2016-08-04T12:48:54Z</time>
      </trkpt>
      <trkpt lat="45.78268" lon="4.31154">
        <ele>498.1</ele>
        <time>2016-08-04T12:49:08Z</time>
      </trkpt>
      <trkpt lat="45.78274" lon="4.31131">
        <ele>494.74</ele>
        <time>2016-08-04T12:49:22Z</time>
      </trkpt>
      <trkpt lat="45.78279" lon="4.31102">
        <ele>493.77</ele>
        <time>2016-08-04T12:49:37Z</time>
      </trkpt>
      <trkpt lat="45.7828" lon="4.31081">
        <ele>495.7</ele>
        <time>2016-08-04T12:49:47Z</time>
      </trkpt>
      <trkpt lat="45.78281" lon="4.31073">
        <ele>495.7</ele>
        <time>2016-08-04T12:49:51Z</time>
      </trkpt>
      <trkpt lat="45.78288" lon="4.31047">
        <ele>498.1</ele>
        <time>2016-08-04T12:50:05Z</time>
      </trkpt>
      <trkpt lat="45.78289" lon="4.31043">
        <ele>498.1</ele>
        <time>2016-08-04T12:50:07Z</time>
      </trkpt>
      <trkpt lat="45.78295" lon="4.31017">
        <ele>497.14</ele>
        <time>2016-08-04T12:50:20Z</time>
      </trkpt>
      <trkpt lat="45.78299" lon="4.3099">
        <ele>498.58</ele>
        <time>2016-08-04T12:50:35Z</time>
      </trkpt>
      <trkpt lat="45.78302" lon="4.30981">
        <ele>498.58</ele>
        <time>2016-08-04T12:50:40Z</time>
      </trkpt>
      <trkpt lat="45.78308" lon="4.30954">
        <ele>499.06</ele>
        <time>2016-08-04T12:50:56Z</time>
      </trkpt>
      <trkpt lat="45.78309" lon="4.30938">
        <ele>496.18</ele>
        <time>2016-08-04T12:51:05Z</time>
      </trkpt>
      <trkpt lat="45.78306" lon="4.30934">
        <ele>495.7</ele>
        <time>2016-08-04T12:51:09Z</time>
      </trkpt>
      <trkpt lat="45.78292" lon="4.30939">
        <ele>497.14</ele>
        <time>2016-08-04T12:51:23Z</time>
      </trkpt>
      <trkpt lat="45.78294" lon="4.30942">
        <ele>499.06</ele>
        <time>2016-08-04T12:51:30Z</time>
      </trkpt>
      <trkpt lat="45.78302" lon="4.30929">
        <ele>500.5</ele>
        <time>2016-08-04T12:51:44Z</time>
      </trkpt>
      <trkpt lat="45.78303" lon="4.30928">
        <ele>500.5</ele>
        <time>2016-08-04T12:52:04Z</time>
      </trkpt>
      <trkpt lat="45.78304" lon="4.30928">
        <ele>500.5</ele>
        <time>2016-08-04T12:52:22Z</time>
      </trkpt>
      <trkpt lat="45.78304" lon="4.30925">
        <ele>500.5</ele>
        <time>2016-08-04T12:52:35Z</time>
      </trkpt>
      <trkpt lat="45.78303" lon="4.30921">
        <ele>500.02</ele>
        <time>2016-08-04T12:52:40Z</time>
      </trkpt>
      <trkpt lat="45.78302" lon="4.30917">
        <ele>499.06</ele>
        <time>2016-08-04T12:52:42Z</time>
      </trkpt>
      <trkpt lat="45.78301" lon="4.3091">
        <ele>497.14</ele>
        <time>2016-08-04T12:52:46Z</time>
      </trkpt>
      <trkpt lat="45.78299" lon="4.30909">
        <ele>496.66</ele>
        <time>2016-08-04T12:52:48Z</time>
      </trkpt>
      <trkpt lat="45.7829" lon="4.30894">
        <ele>495.7</ele>
        <time>2016-08-04T12:53:01Z</time>
      </trkpt>
      <trkpt lat="45.78288" lon="4.30894">
        <ele>494.26</ele>
        <time>2016-08-04T12:53:24Z</time>
      </trkpt>
      <trkpt lat="45.78288" lon="4.30894">
        <ele>494.26</ele>
        <time>2016-08-04T12:53:25Z</time>
      </trkpt>
      <trkpt lat="45.78286" lon="4.30888">
        <ele>494.74</ele>
        <time>2016-08-04T12:53:31Z</time>
      </trkpt>
      <trkpt lat="45.78283" lon="4.3088">
        <ele>493.29</ele>
        <time>2016-08-04T12:53:36Z</time>
      </trkpt>
      <trkpt lat="45.78274" lon="4.30847">
        <ele>488.49</ele>
        <time>2016-08-04T12:53:55Z</time>
      </trkpt>
      <trkpt lat="45.78272" lon="4.30843">
        <ele>488.01</ele>
        <time>2016-08-04T12:53:58Z</time>
      </trkpt>
      <trkpt lat="45.78259" lon="4.3082">
        <ele>488.49</ele>
        <time>2016-08-04T12:54:13Z</time>
      </trkpt>
      <trkpt lat="45.78241" lon="4.30808">
        <ele>492.81</ele>
        <time>2016-08-04T12:54:28Z</time>
      </trkpt>
      <trkpt lat="45.78232" lon="4.3081">
        <ele>496.18</ele>
        <time>2016-08-04T12:54:37Z</time>
      </trkpt>
      <trkpt lat="45.78223" lon="4.30814">
        <ele>498.58</ele>
        <time>2016-08-04T12:54:46Z</time>
      </trkpt>
      <trkpt lat="45.782" lon="4.3082">
        <ele>494.74</ele>
        <time>2016-08-04T12:55:00Z</time>
      </trkpt>
      <trkpt lat="45.78178" lon="4.30818">
        <ele>489.93</ele>
        <time>2016-08-04T12:55:14Z</time>
      </trkpt>
      <trkpt lat="45.78157" lon="4.3081">
        <ele>488.01</ele>
        <time>2016-08-04T12:55:28Z</time>
      </trkpt>
      <trkpt lat="45.78134" lon="4.30802">
        <ele>485.6</ele>
        <time>2016-08-04T12:55:45Z</time>
      </trkpt>
      <trkpt lat="45.78116" lon="4.30795">
        <ele>485.6</ele>
        <time>2016-08-04T12:56:00Z</time>
      </trkpt>
      <trkpt lat="45.78102" lon="4.30782">
        <ele>483.68</ele>
        <time>2016-08-04T12:56:15Z</time>
      </trkpt>
      <trkpt lat="45.78092" lon="4.30767">
        <ele>481.76</ele>
        <time>2016-08-04T12:56:29Z</time>
      </trkpt>
      <trkpt lat="45.78086" lon="4.3076">
        <ele>479.35</ele>
        <time>2016-08-04T12:56:36Z</time>
      </trkpt>
      <trkpt lat="45.78073" lon="4.30742">
        <ele>478.39</ele>
        <time>2016-08-04T12:56:51Z</time>
      </trkpt>
      <trkpt lat="45.78064" lon="4.30727">
        <ele>477.91</ele>
        <time>2016-08-04T12:57:05Z</time>
      </trkpt>
      <trkpt lat="45.78053" lon="4.3071">
        <ele>479.35</ele>
        <time>2016-08-04T12:57:21Z</time>
      </trkpt>
      <trkpt lat="45.78041" lon="4.30697">
        <ele>479.35</ele>
        <time>2016-08-04T12:57:36Z</time>
      </trkpt>
      <trkpt lat="45.78026" lon="4.30682">
        <ele>479.35</ele>
        <time>2016-08-04T12:57:53Z</time>
      </trkpt>
      <trkpt lat="45.78012" lon="4.30668">
        <ele>478.39</ele>
        <time>2016-08-04T12:58:08Z</time>
      </trkpt>
      <trkpt lat="45.78011" lon="4.30668">
        <ele>478.39</ele>
        <time>2016-08-04T12:58:09Z</time>
      </trkpt>
      <trkpt lat="45.78003" lon="4.30657">
        <ele>477.43</ele>
        <time>2016-08-04T12:58:22Z</time>
      </trkpt>
      <trkpt lat="45.78002" lon="4.30655">
        <ele>476.95</ele>
        <time>2016-08-04T12:58:26Z</time>
      </trkpt>
      <trkpt lat="45.78" lon="4.30655">
        <ele>476.95</ele>
        <time>2016-08-04T12:58:28Z</time>
      </trkpt>
      <trkpt lat="45.77991" lon="4.30645">
        <ele>477.43</ele>
        <time>2016-08-04T12:58:42Z</time>
      </trkpt>
      <trkpt lat="45.77989" lon="4.30641">
        <ele>477.91</ele>
        <time>2016-08-04T12:58:55Z</time>
      </trkpt>
      <trkpt lat="45.77981" lon="4.30618">
        <ele>475.99</ele>
        <time>2016-08-04T12:59:11Z</time>
      </trkpt>
      <trkpt lat="45.77974" lon="4.30598">
        <ele>477.91</ele>
        <time>2016-08-04T12:59:27Z</time>
      </trkpt>
      <trkpt lat="45.77974" lon="4.30596">
        <ele>478.87</ele>
        <time>2016-08-04T12:59:32Z</time>
      </trkpt>
      <trkpt lat="45.77971" lon="4.30583">
        <ele>479.84</ele>
        <time>2016-08-04T12:59:47Z</time>
      </trkpt>
      <trkpt lat="45.77973" lon="4.30564">
        <ele>480.32</ele>
        <time>2016-08-04T13:00:00Z</time>
      </trkpt>
      <trkpt lat="45.77981" lon="4.30544">
        <ele>483.2</ele>
        <time>2016-08-04T13:00:15Z</time>
      </trkpt>
      <trkpt lat="45.77992" lon="4.30526">
        <ele>483.68</ele>
        <time>2016-08-04T13:00:28Z</time>
      </trkpt>
      <trkpt lat="45.77999" lon="4.30513">
        <ele>484.64</ele>
        <time>2016-08-04T13:00:39Z</time>
      </trkpt>
      <trkpt lat="45.78009" lon="4.30501">
        <ele>483.68</ele>
        <time>2016-08-04T13:00:51Z</time>
      </trkpt>
      <trkpt lat="45.78027" lon="4.30487">
        <ele>483.2</ele>
        <time>2016-08-04T13:01:08Z</time>
      </trkpt>
      <trkpt lat="45.7804" lon="4.30477">
        <ele>486.08</ele>
        <time>2016-08-04T13:01:21Z</time>
      </trkpt>
      <trkpt lat="45.78054" lon="4.30463">
        <ele>489.45</ele>
        <time>2016-08-04T13:01:36Z</time>
      </trkpt>
      <trkpt lat="45.78061" lon="4.30457">
        <ele>491.37</ele>
        <time>2016-08-04T13:01:45Z</time>
      </trkpt>
      <trkpt lat="45.7807" lon="4.30446">
        <ele>489.45</ele>
        <time>2016-08-04T13:01:58Z</time>
      </trkpt>
      <trkpt lat="45.78076" lon="4.3044">
        <ele>488.01</ele>
        <time>2016-08-04T13:02:14Z</time>
      </trkpt>
      <trkpt lat="45.78087" lon="4.30428">
        <ele>486.56</ele>
        <time>2016-08-04T13:02:28Z</time>
      </trkpt>
      <trkpt lat="45.78095" lon="4.30423">
        <ele>485.6</ele>
        <time>2016-08-04T13:02:35Z</time>
      </trkpt>
      <trkpt lat="45.78106" lon="4.30413">
        <ele>484.64</ele>
        <time>2016-08-04T13:02:51Z</time>
      </trkpt>
      <trkpt lat="45.78118" lon="4.30404">
        <ele>484.64</ele>
        <time>2016-08-04T13:03:07Z</time>
      </trkpt>
      <trkpt lat="45.78132" lon="4.30394">
        <ele>487.05</ele>
        <time>2016-08-04T13:03:20Z</time>
      </trkpt>
      <trkpt lat="45.78145" lon="4.30381">
        <ele>487.05</ele>
        <time>2016-08-04T13:03:34Z</time>
      </trkpt>
      <trkpt lat="45.78154" lon="4.30373">
        <ele>488.97</ele>
        <time>2016-08-04T13:03:47Z</time>
      </trkpt>
      <trkpt lat="45.7817" lon="4.30364">
        <ele>493.29</ele>
        <time>2016-08-04T13:04:02Z</time>
      </trkpt>
      <trkpt lat="45.78178" lon="4.30358">
        <ele>493.29</ele>
        <time>2016-08-04T13:04:16Z</time>
      </trkpt>
      <trkpt lat="45.78191" lon="4.30351">
        <ele>499.06</ele>
        <time>2016-08-04T13:04:28Z</time>
      </trkpt>
      <trkpt lat="45.78198" lon="4.30346">
        <ele>500.02</ele>
        <time>2016-08-04T13:04:33Z</time>
      </trkpt>
      <trkpt lat="45.78201" lon="4.30346">
        <ele>500.02</ele>
        <time>2016-08-04T13:04:37Z</time>
      </trkpt>
      <trkpt lat="45.78216" lon="4.30344">
        <ele>500.98</ele>
        <time>2016-08-04T13:04:50Z</time>
      </trkpt>
      <trkpt lat="45.78235" lon="4.30337">
        <ele>497.62</ele>
        <time>2016-08-04T13:05:06Z</time>
      </trkpt>
      <trkpt lat="45.78252" lon="4.30328">
        <ele>488.49</ele>
        <time>2016-08-04T13:05:20Z</time>
      </trkpt>
      <trkpt lat="45.78271" lon="4.3032">
        <ele>482.72</ele>
        <time>2016-08-04T13:05:34Z</time>
      </trkpt>
      <trkpt lat="45.78286" lon="4.30314">
        <ele>480.8</ele>
        <time>2016-08-04T13:05:48Z</time>
      </trkpt>
      <trkpt lat="45.78297" lon="4.30307">
        <ele>476.47</ele>
        <time>2016-08-04T13:05:59Z</time>
      </trkpt>
      <trkpt lat="45.78306" lon="4.30291">
        <ele>474.55</ele>
        <time>2016-08-04T13:06:13Z</time>
      </trkpt>
      <trkpt lat="45.78318" lon="4.3027">
        <ele>473.59</ele>
        <time>2016-08-04T13:06:30Z</time>
      </trkpt>
      <trkpt lat="45.78324" lon="4.30243">
        <ele>471.66</ele>
        <time>2016-08-04T13:06:47Z</time>
      </trkpt>
      <trkpt lat="45.78325" lon="4.30229">
        <ele>471.66</ele>
        <time>2016-08-04T13:06:57Z</time>
      </trkpt>
      <trkpt lat="45.78329" lon="4.30213">
        <ele>470.7</ele>
        <time>2016-08-04T13:07:11Z</time>
      </trkpt>
      <trkpt lat="45.7833" lon="4.3021">
        <ele>470.7</ele>
        <time>2016-08-04T13:07:25Z</time>
      </trkpt>
      <trkpt lat="45.7833" lon="4.30208">
        <ele>470.22</ele>
        <time>2016-08-04T13:07:27Z</time>
      </trkpt>
      <trkpt lat="45.78334" lon="4.30194">
        <ele>469.26</ele>
        <time>2016-08-04T13:07:34Z</time>
      </trkpt>
      <trkpt lat="45.78347" lon="4.30165">
        <ele>468.78</ele>
        <time>2016-08-04T13:07:49Z</time>
      </trkpt>
      <trkpt lat="45.78348" lon="4.30161">
        <ele>468.78</ele>
        <time>2016-08-04T13:07:51Z</time>
      </trkpt>
      <trkpt lat="45.78359" lon="4.30137">
        <ele>466.86</ele>
        <time>2016-08-04T13:08:07Z</time>
      </trkpt>
      <trkpt lat="45.78367" lon="4.3012">
        <ele>470.7</ele>
        <time>2016-08-04T13:08:21Z</time>
      </trkpt>
      <trkpt lat="45.78375" lon="4.30106">
        <ele>473.11</ele>
        <time>2016-08-04T13:08:31Z</time>
      </trkpt>
      <trkpt lat="45.78383" lon="4.3009">
        <ele>473.11</ele>
        <time>2016-08-04T13:08:42Z</time>
      </trkpt>
      <trkpt lat="45.78394" lon="4.30068">
        <ele>472.14</ele>
        <time>2016-08-04T13:08:57Z</time>
      </trkpt>
      <trkpt lat="45.78395" lon="4.30066">
        <ele>472.14</ele>
        <time>2016-08-04T13:08:59Z</time>
      </trkpt>
      <trkpt lat="45.78406" lon="4.30038">
        <ele>465.9</ele>
        <time>2016-08-04T13:09:17Z</time>
      </trkpt>
      <trkpt lat="45.78406" lon="4.30037">
        <ele>464.45</ele>
        <time>2016-08-04T13:09:28Z</time>
      </trkpt>
      <trkpt lat="45.78407" lon="4.30032">
        <ele>463.49</ele>
        <time>2016-08-04T13:09:43Z</time>
      </trkpt>
      <trkpt lat="45.78407" lon="4.30024">
        <ele>463.49</ele>
        <time>2016-08-04T13:09:54Z</time>
      </trkpt>
      <trkpt lat="45.78406" lon="4.30022">
        <ele>463.97</ele>
        <time>2016-08-04T13:10:10Z</time>
      </trkpt>
      <trkpt lat="45.78404" lon="4.30021">
        <ele>463.49</ele>
        <time>2016-08-04T13:10:24Z</time>
      </trkpt>
      <trkpt lat="45.78404" lon="4.3002">
        <ele>463.01</ele>
        <time>2016-08-04T13:10:39Z</time>
      </trkpt>
      <trkpt lat="45.78404" lon="4.30019">
        <ele>463.01</ele>
        <time>2016-08-04T13:10:56Z</time>
      </trkpt>
      <trkpt lat="45.78404" lon="4.30019">
        <ele>463.49</ele>
        <time>2016-08-04T13:11:18Z</time>
      </trkpt>
      <trkpt lat="45.78404" lon="4.30018">
        <ele>463.97</ele>
        <time>2016-08-04T13:11:41Z</time>
      </trkpt>
      <trkpt lat="45.78404" lon="4.30018">
        <ele>464.45</ele>
        <time>2016-08-04T13:12:04Z</time>
      </trkpt>
      <trkpt lat="45.78403" lon="4.30018">
        <ele>465.42</ele>
        <time>2016-08-04T13:12:24Z</time>
      </trkpt>
      <trkpt lat="45.78403" lon="4.30017">
        <ele>465.42</ele>
        <time>2016-08-04T13:12:50Z</time>
      </trkpt>
      <trkpt lat="45.78403" lon="4.30017">
        <ele>465.42</ele>
        <time>2016-08-04T13:13:09Z</time>
      </trkpt>
      <trkpt lat="45.78402" lon="4.30013">
        <ele>466.38</ele>
        <time>2016-08-04T13:13:26Z</time>
      </trkpt>
      <trkpt lat="45.78402" lon="4.30004">
        <ele>466.86</ele>
        <time>2016-08-04T13:13:39Z</time>
      </trkpt>
      <trkpt lat="45.78402" lon="4.3">
        <ele>465.9</ele>
        <time>2016-08-04T13:13:56Z</time>
      </trkpt>
      <trkpt lat="45.78401" lon="4.29997">
        <ele>465.42</ele>
        <time>2016-08-04T13:14:01Z</time>
      </trkpt>
      <trkpt lat="45.78398" lon="4.29984">
        <ele>464.45</ele>
        <time>2016-08-04T13:14:07Z</time>
      </trkpt>
      <trkpt lat="45.78398" lon="4.29977">
        <ele>463.97</ele>
        <time>2016-08-04T13:14:12Z</time>
      </trkpt>
      <trkpt lat="45.78389" lon="4.29952">
        <ele>460.61</ele>
        <time>2016-08-04T13:14:30Z</time>
      </trkpt>
      <trkpt lat="45.78383" lon="4.29935">
        <ele>459.17</ele>
        <time>2016-08-04T13:14:41Z</time>
      </trkpt>
      <trkpt lat="45.78377" lon="4.29922">
        <ele>458.21</ele>
        <time>2016-08-04T13:14:51Z</time>
      </trkpt>
      <trkpt lat="45.78373" lon="4.29914">
        <ele>457.24</ele>
        <time>2016-08-04T13:14:57Z</time>
      </trkpt>
      <trkpt lat="45.78358" lon="4.29897">
        <ele>455.8</ele>
        <time>2016-08-04T13:15:12Z</time>
      </trkpt>
      <trkpt lat="45.78344" lon="4.29879">
        <ele>456.76</ele>
        <time>2016-08-04T13:15:28Z</time>
      </trkpt>
      <trkpt lat="45.78331" lon="4.29863">
        <ele>456.76</ele>
        <time>2016-08-04T13:15:42Z</time>
      </trkpt>
      <trkpt lat="45.78318" lon="4.29837">
        <ele>455.32</ele>
        <time>2016-08-04T13:16:00Z</time>
      </trkpt>
      <trkpt lat="45.78313" lon="4.29825">
        <ele>455.32</ele>
        <time>2016-08-04T13:16:09Z</time>
      </trkpt>
      <trkpt lat="45.78311" lon="4.29817">
        <ele>455.32</ele>
        <time>2016-08-04T13:16:14Z</time>
      </trkpt>
      <trkpt lat="45.78298" lon="4.29801">
        <ele>451.96</ele>
        <time>2016-08-04T13:16:31Z</time>
      </trkpt>
      <trkpt lat="45.78294" lon="4.29769">
        <ele>451</ele>
        <time>2016-08-04T13:16:48Z</time>
      </trkpt>
      <trkpt lat="45.78294" lon="4.29767">
        <ele>451</ele>
        <time>2016-08-04T13:16:49Z</time>
      </trkpt>
      <trkpt lat="45.78295" lon="4.29744">
        <ele>452.92</ele>
        <time>2016-08-04T13:17:01Z</time>
      </trkpt>
      <trkpt lat="45.783" lon="4.29725">
        <ele>456.28</ele>
        <time>2016-08-04T13:17:13Z</time>
      </trkpt>
      <trkpt lat="45.78304" lon="4.29701">
        <ele>459.17</ele>
        <time>2016-08-04T13:17:28Z</time>
      </trkpt>
      <trkpt lat="45.78304" lon="4.29676">
        <ele>460.13</ele>
        <time>2016-08-04T13:17:42Z</time>
      </trkpt>
      <trkpt lat="45.78301" lon="4.29657">
        <ele>462.05</ele>
        <time>2016-08-04T13:17:53Z</time>
      </trkpt>
      <trkpt lat="45.78298" lon="4.29637">
        <ele>464.93</ele>
        <time>2016-08-04T13:18:05Z</time>
      </trkpt>
      <trkpt lat="45.78298" lon="4.29631">
        <ele>465.9</ele>
        <time>2016-08-04T13:18:08Z</time>
      </trkpt>
      <trkpt lat="45.78299" lon="4.29618">
        <ele>467.34</ele>
        <time>2016-08-04T13:18:15Z</time>
      </trkpt>
      <trkpt lat="45.78298" lon="4.29593">
        <ele>470.7</ele>
        <time>2016-08-04T13:18:29Z</time>
      </trkpt>
      <trkpt lat="45.78299" lon="4.29587">
        <ele>471.18</ele>
        <time>2016-08-04T13:18:33Z</time>
      </trkpt>
      <trkpt lat="45.78311" lon="4.29555">
        <ele>471.18</ele>
        <time>2016-08-04T13:18:49Z</time>
      </trkpt>
      <trkpt lat="45.78323" lon="4.29531">
        <ele>463.49</ele>
        <time>2016-08-04T13:19:05Z</time>
      </trkpt>
      <trkpt lat="45.78322" lon="4.29529">
        <ele>462.05</ele>
        <time>2016-08-04T13:19:07Z</time>
      </trkpt>
      <trkpt lat="45.78313" lon="4.295">
        <ele>455.8</ele>
        <time>2016-08-04T13:19:24Z</time>
      </trkpt>
      <trkpt lat="45.78303" lon="4.29477">
        <ele>451.96</ele>
        <time>2016-08-04T13:19:39Z</time>
      </trkpt>
      <trkpt lat="45.78291" lon="4.29451">
        <ele>451.96</ele>
        <time>2016-08-04T13:19:55Z</time>
      </trkpt>
      <trkpt lat="45.78283" lon="4.29426">
        <ele>452.44</ele>
        <time>2016-08-04T13:20:09Z</time>
      </trkpt>
      <trkpt lat="45.78271" lon="4.294">
        <ele>451.48</ele>
        <time>2016-08-04T13:20:24Z</time>
      </trkpt>
      <trkpt lat="45.78263" lon="4.2938">
        <ele>451</ele>
        <time>2016-08-04T13:20:37Z</time>
      </trkpt>
      <trkpt lat="45.78254" lon="4.29354">
        <ele>445.71</ele>
        <time>2016-08-04T13:20:51Z</time>
      </trkpt>
      <trkpt lat="45.78246" lon="4.29333">
        <ele>440.42</ele>
        <time>2016-08-04T13:21:04Z</time>
      </trkpt>
      <trkpt lat="45.78239" lon="4.29305">
        <ele>438.98</ele>
        <time>2016-08-04T13:21:20Z</time>
      </trkpt>
      <trkpt lat="45.78238" lon="4.29303">
        <ele>438.98</ele>
        <time>2016-08-04T13:21:21Z</time>
      </trkpt>
      <trkpt lat="45.78235" lon="4.29286">
        <ele>440.9</ele>
        <time>2016-08-04T13:21:34Z</time>
      </trkpt>
      <trkpt lat="45.78236" lon="4.29281">
        <ele>441.38</ele>
        <time>2016-08-04T13:21:37Z</time>
      </trkpt>
      <trkpt lat="45.78241" lon="4.29256">
        <ele>442.82</ele>
        <time>2016-08-04T13:21:52Z</time>
      </trkpt>
      <trkpt lat="45.78241" lon="4.29255">
        <ele>442.34</ele>
        <time>2016-08-04T13:21:53Z</time>
      </trkpt>
      <trkpt lat="45.78246" lon="4.29235">
        <ele>440.9</ele>
        <time>2016-08-04T13:22:06Z</time>
      </trkpt>
      <trkpt lat="45.78251" lon="4.29213">
        <ele>438.5</ele>
        <time>2016-08-04T13:22:18Z</time>
      </trkpt>
      <trkpt lat="45.78257" lon="4.29201">
        <ele>436.58</ele>
        <time>2016-08-04T13:22:27Z</time>
      </trkpt>
      <trkpt lat="45.78266" lon="4.29185">
        <ele>434.65</ele>
        <time>2016-08-04T13:22:41Z</time>
      </trkpt>
      <trkpt lat="45.78267" lon="4.29183">
        <ele>434.65</ele>
        <time>2016-08-04T13:22:42Z</time>
      </trkpt>
      <trkpt lat="45.78274" lon="4.29164">
        <ele>432.73</ele>
        <time>2016-08-04T13:22:55Z</time>
      </trkpt>
      <trkpt lat="45.7828" lon="4.29144">
        <ele>434.65</ele>
        <time>2016-08-04T13:23:10Z</time>
      </trkpt>
      <trkpt lat="45.78282" lon="4.29127">
        <ele>436.58</ele>
        <time>2016-08-04T13:23:20Z</time>
      </trkpt>
      <trkpt lat="45.7829" lon="4.29098">
        <ele>434.17</ele>
        <time>2016-08-04T13:23:34Z</time>
      </trkpt>
      <trkpt lat="45.78291" lon="4.29077">
        <ele>430.81</ele>
        <time>2016-08-04T13:23:49Z</time>
      </trkpt>
      <trkpt lat="45.7829" lon="4.29075">
        <ele>429.85</ele>
        <time>2016-08-04T13:23:51Z</time>
      </trkpt>
      <trkpt lat="45.78289" lon="4.29072">
        <ele>429.37</ele>
        <time>2016-08-04T13:23:53Z</time>
      </trkpt>
      <trkpt lat="45.78283" lon="4.29057">
        <ele>427.92</ele>
        <time>2016-08-04T13:24:08Z</time>
      </trkpt>
      <trkpt lat="45.78276" lon="4.29056">
        <ele>428.4</ele>
        <time>2016-08-04T13:24:14Z</time>
      </trkpt>
      <trkpt lat="45.78265" lon="4.29055">
        <ele>429.37</ele>
        <time>2016-08-04T13:24:27Z</time>
      </trkpt>
      <trkpt lat="45.78256" lon="4.29051">
        <ele>430.33</ele>
        <time>2016-08-04T13:24:40Z</time>
      </trkpt>
      <trkpt lat="45.7825" lon="4.29044">
        <ele>436.1</ele>
        <time>2016-08-04T13:24:53Z</time>
      </trkpt>
      <trkpt lat="45.78241" lon="4.29042">
        <ele>445.23</ele>
        <time>2016-08-04T13:25:05Z</time>
      </trkpt>
      <trkpt lat="45.7822" lon="4.29041">
        <ele>459.65</ele>
        <time>2016-08-04T13:25:20Z</time>
      </trkpt>
      <trkpt lat="45.78217" lon="4.29033">
        <ele>465.9</ele>
        <time>2016-08-04T13:25:32Z</time>
      </trkpt>
      <trkpt lat="45.78216" lon="4.29024">
        <ele>466.86</ele>
        <time>2016-08-04T13:25:38Z</time>
      </trkpt>
      <trkpt lat="45.78218" lon="4.29">
        <ele>464.45</ele>
        <time>2016-08-04T13:25:53Z</time>
      </trkpt>
      <trkpt lat="45.78219" lon="4.28983">
        <ele>457.72</ele>
        <time>2016-08-04T13:26:05Z</time>
      </trkpt>
      <trkpt lat="45.78219" lon="4.28977">
        <ele>455.8</ele>
        <time>2016-08-04T13:26:08Z</time>
      </trkpt>
      <trkpt lat="45.78218" lon="4.28973">
        <ele>455.32</ele>
        <time>2016-08-04T13:26:10Z</time>
      </trkpt>
      <trkpt lat="45.78219" lon="4.28959">
        <ele>452.44</ele>
        <time>2016-08-04T13:26:19Z</time>
      </trkpt>
      <trkpt lat="45.78217" lon="4.28934">
        <ele>449.55</ele>
        <time>2016-08-04T13:26:32Z</time>
      </trkpt>
      <trkpt lat="45.78217" lon="4.28915">
        <ele>447.15</ele>
        <time>2016-08-04T13:26:44Z</time>
      </trkpt>
      <trkpt lat="45.78218" lon="4.28901">
        <ele>448.11</ele>
        <time>2016-08-04T13:26:52Z</time>
      </trkpt>
      <trkpt lat="45.78218" lon="4.28888">
        <ele>448.59</ele>
        <time>2016-08-04T13:27:04Z</time>
      </trkpt>
      <trkpt lat="45.78226" lon="4.28865">
        <ele>445.71</ele>
        <time>2016-08-04T13:27:17Z</time>
      </trkpt>
      <trkpt lat="45.78232" lon="4.28846">
        <ele>439.46</ele>
        <time>2016-08-04T13:27:28Z</time>
      </trkpt>
      <trkpt lat="45.78236" lon="4.28828">
        <ele>438.5</ele>
        <time>2016-08-04T13:27:36Z</time>
      </trkpt>
      <trkpt lat="45.78239" lon="4.28814">
        <ele>438.5</ele>
        <time>2016-08-04T13:27:43Z</time>
      </trkpt>
      <trkpt lat="45.7824" lon="4.28808">
        <ele>437.54</ele>
        <time>2016-08-04T13:27:47Z</time>
      </trkpt>
      <trkpt lat="45.78241" lon="4.28803">
        <ele>436.58</ele>
        <time>2016-08-04T13:27:50Z</time>
      </trkpt>
      <trkpt lat="45.78242" lon="4.28795">
        <ele>435.61</ele>
        <time>2016-08-04T13:27:54Z</time>
      </trkpt>
      <trkpt lat="45.78244" lon="4.28766">
        <ele>433.21</ele>
        <time>2016-08-04T13:28:08Z</time>
      </trkpt>
      <trkpt lat="45.78244" lon="4.28754">
        <ele>432.25</ele>
        <time>2016-08-04T13:28:14Z</time>
      </trkpt>
      <trkpt lat="45.78239" lon="4.28733">
        <ele>431.77</ele>
        <time>2016-08-04T13:28:27Z</time>
      </trkpt>
      <trkpt lat="45.78237" lon="4.28723">
        <ele>432.73</ele>
        <time>2016-08-04T13:28:32Z</time>
      </trkpt>
      <trkpt lat="45.78228" lon="4.28708">
        <ele>437.54</ele>
        <time>2016-08-04T13:28:45Z</time>
      </trkpt>
      <trkpt lat="45.78217" lon="4.28696">
        <ele>440.42</ele>
        <time>2016-08-04T13:28:57Z</time>
      </trkpt>
      <trkpt lat="45.78205" lon="4.28683">
        <ele>437.06</ele>
        <time>2016-08-04T13:29:10Z</time>
      </trkpt>
      <trkpt lat="45.78202" lon="4.28681">
        <ele>436.58</ele>
        <time>2016-08-04T13:29:13Z</time>
      </trkpt>
      <trkpt lat="45.78186" lon="4.2867">
        <ele>434.17</ele>
        <time>2016-08-04T13:29:28Z</time>
      </trkpt>
      <trkpt lat="45.78168" lon="4.28659">
        <ele>433.69</ele>
        <time>2016-08-04T13:29:43Z</time>
      </trkpt>
      <trkpt lat="45.78144" lon="4.28651">
        <ele>430.33</ele>
        <time>2016-08-04T13:29:58Z</time>
      </trkpt>
      <trkpt lat="45.78123" lon="4.2865">
        <ele>429.37</ele>
        <time>2016-08-04T13:30:14Z</time>
      </trkpt>
      <trkpt lat="45.78103" lon="4.28647">
        <ele>428.89</ele>
        <time>2016-08-04T13:30:29Z</time>
      </trkpt>
      <trkpt lat="45.78082" lon="4.28644">
        <ele>427.44</ele>
        <time>2016-08-04T13:30:46Z</time>
      </trkpt>
      <trkpt lat="45.78067" lon="4.28643">
        <ele>427.92</ele>
        <time>2016-08-04T13:30:59Z</time>
      </trkpt>
      <trkpt lat="45.78059" lon="4.28642">
        <ele>428.4</ele>
        <time>2016-08-04T13:31:06Z</time>
      </trkpt>
      <trkpt lat="45.78037" lon="4.28645">
        <ele>430.81</ele>
        <time>2016-08-04T13:31:22Z</time>
      </trkpt>
      <trkpt lat="45.78021" lon="4.2865">
        <ele>432.25</ele>
        <time>2016-08-04T13:31:33Z</time>
      </trkpt>
      <trkpt lat="45.78004" lon="4.2866">
        <ele>434.17</ele>
        <time>2016-08-04T13:31:50Z</time>
      </trkpt>
      <trkpt lat="45.77986" lon="4.2867">
        <ele>435.61</ele>
        <time>2016-08-04T13:32:06Z</time>
      </trkpt>
      <trkpt lat="45.77963" lon="4.28679">
        <ele>435.13</ele>
        <time>2016-08-04T13:32:20Z</time>
      </trkpt>
      <trkpt lat="45.77941" lon="4.28689">
        <ele>433.21</ele>
        <time>2016-08-04T13:32:37Z</time>
      </trkpt>
      <trkpt lat="45.77922" lon="4.28697">
        <ele>432.25</ele>
        <time>2016-08-04T13:32:53Z</time>
      </trkpt>
      <trkpt lat="45.77906" lon="4.28701">
        <ele>433.21</ele>
        <time>2016-08-04T13:33:07Z</time>
      </trkpt>
      <trkpt lat="45.77883" lon="4.287">
        <ele>433.69</ele>
        <time>2016-08-04T13:33:23Z</time>
      </trkpt>
      <trkpt lat="45.7786" lon="4.28704">
        <ele>432.73</ele>
        <time>2016-08-04T13:33:38Z</time>
      </trkpt>
      <trkpt lat="45.7784" lon="4.2871">
        <ele>429.85</ele>
        <time>2016-08-04T13:33:53Z</time>
      </trkpt>
      <trkpt lat="45.77819" lon="4.28717">
        <ele>428.4</ele>
        <time>2016-08-04T13:34:09Z</time>
      </trkpt>
      <trkpt lat="45.77799" lon="4.28725">
        <ele>427.44</ele>
        <time>2016-08-04T13:34:24Z</time>
      </trkpt>
      <trkpt lat="45.77776" lon="4.28738">
        <ele>424.56</ele>
        <time>2016-08-04T13:34:41Z</time>
      </trkpt>
      <trkpt lat="45.77753" lon="4.28752">
        <ele>422.64</ele>
        <time>2016-08-04T13:34:59Z</time>
      </trkpt>
      <trkpt lat="45.77734" lon="4.28764">
        <ele>424.08</ele>
        <time>2016-08-04T13:35:14Z</time>
      </trkpt>
      <trkpt lat="45.77714" lon="4.28784">
        <ele>423.6</ele>
        <time>2016-08-04T13:35:32Z</time>
      </trkpt>
      <trkpt lat="45.77697" lon="4.28803">
        <ele>422.16</ele>
        <time>2016-08-04T13:35:49Z</time>
      </trkpt>
      <trkpt lat="45.77679" lon="4.28818">
        <ele>422.16</ele>
        <time>2016-08-04T13:36:06Z</time>
      </trkpt>
      <trkpt lat="45.77665" lon="4.28828">
        <ele>422.16</ele>
        <time>2016-08-04T13:36:19Z</time>
      </trkpt>
      <trkpt lat="45.77659" lon="4.28832">
        <ele>422.16</ele>
        <time>2016-08-04T13:36:24Z</time>
      </trkpt>
      <trkpt lat="45.7764" lon="4.2884">
        <ele>425.04</ele>
        <time>2016-08-04T13:36:39Z</time>
      </trkpt>
      <trkpt lat="45.77635" lon="4.28843">
        <ele>426.48</ele>
        <time>2016-08-04T13:36:43Z</time>
      </trkpt>
      <trkpt lat="45.7762" lon="4.28853">
        <ele>428.89</ele>
        <time>2016-08-04T13:36:59Z</time>
      </trkpt>
      <trkpt lat="45.77602" lon="4.28858">
        <ele>431.77</ele>
        <time>2016-08-04T13:37:12Z</time>
      </trkpt>
      <trkpt lat="45.77577" lon="4.28869">
        <ele>433.21</ele>
        <time>2016-08-04T13:37:30Z</time>
      </trkpt>
      <trkpt lat="45.77555" lon="4.28874">
        <ele>428.89</ele>
        <time>2016-08-04T13:37:47Z</time>
      </trkpt>
      <trkpt lat="45.77532" lon="4.28866">
        <ele>424.08</ele>
        <time>2016-08-04T13:38:05Z</time>
      </trkpt>
      <trkpt lat="45.77518" lon="4.28858">
        <ele>422.64</ele>
        <time>2016-08-04T13:38:18Z</time>
      </trkpt>
      <trkpt lat="45.77494" lon="4.28843">
        <ele>420.71</ele>
        <time>2016-08-04T13:38:37Z</time>
      </trkpt>
      <trkpt lat="45.77476" lon="4.28832">
        <ele>419.27</ele>
        <time>2016-08-04T13:38:52Z</time>
      </trkpt>
      <trkpt lat="45.77456" lon="4.2882">
        <ele>417.83</ele>
        <time>2016-08-04T13:39:09Z</time>
      </trkpt>
      <trkpt lat="45.77435" lon="4.28808">
        <ele>416.87</ele>
        <time>2016-08-04T13:39:26Z</time>
      </trkpt>
      <trkpt lat="45.77416" lon="4.288">
        <ele>419.27</ele>
        <time>2016-08-04T13:39:40Z</time>
      </trkpt>
      <trkpt lat="45.77405" lon="4.28799">
        <ele>419.75</ele>
        <time>2016-08-04T13:39:49Z</time>
      </trkpt>
      <trkpt lat="45.7738" lon="4.28801">
        <ele>422.64</ele>
        <time>2016-08-04T13:40:06Z</time>
      </trkpt>
      <trkpt lat="45.7736" lon="4.28805">
        <ele>423.12</ele>
        <time>2016-08-04T13:40:19Z</time>
      </trkpt>
      <trkpt lat="45.77348" lon="4.28811">
        <ele>422.16</ele>
        <time>2016-08-04T13:40:29Z</time>
      </trkpt>
      <trkpt lat="45.77333" lon="4.2882">
        <ele>423.6</ele>
        <time>2016-08-04T13:40:40Z</time>
      </trkpt>
      <trkpt lat="45.7733" lon="4.28821">
        <ele>424.08</ele>
        <time>2016-08-04T13:40:43Z</time>
      </trkpt>
      <trkpt lat="45.77321" lon="4.28829">
        <ele>424.08</ele>
        <time>2016-08-04T13:40:50Z</time>
      </trkpt>
      <trkpt lat="45.77317" lon="4.28835">
        <ele>425.04</ele>
        <time>2016-08-04T13:40:55Z</time>
      </trkpt>
      <trkpt lat="45.77302" lon="4.28854">
        <ele>430.81</ele>
        <time>2016-08-04T13:41:11Z</time>
      </trkpt>
      <trkpt lat="45.77291" lon="4.28868">
        <ele>436.1</ele>
        <time>2016-08-04T13:41:24Z</time>
      </trkpt>
      <trkpt lat="45.77288" lon="4.28872">
        <ele>436.58</ele>
        <time>2016-08-04T13:41:27Z</time>
      </trkpt>
      <trkpt lat="45.77278" lon="4.28887">
        <ele>438.5</ele>
        <time>2016-08-04T13:41:40Z</time>
      </trkpt>
      <trkpt lat="45.77273" lon="4.28889">
        <ele>437.54</ele>
        <time>2016-08-04T13:41:44Z</time>
      </trkpt>
      <trkpt lat="45.77268" lon="4.28889">
        <ele>436.58</ele>
        <time>2016-08-04T13:41:49Z</time>
      </trkpt>
      <trkpt lat="45.77258" lon="4.28892">
        <ele>435.13</ele>
        <time>2016-08-04T13:41:54Z</time>
      </trkpt>
      <trkpt lat="45.77235" lon="4.28895">
        <ele>431.29</ele>
        <time>2016-08-04T13:42:09Z</time>
      </trkpt>
      <trkpt lat="45.77216" lon="4.28902">
        <ele>425.04</ele>
        <time>2016-08-04T13:42:24Z</time>
      </trkpt>
      <trkpt lat="45.77195" lon="4.28913">
        <ele>420.23</ele>
        <time>2016-08-04T13:42:42Z</time>
      </trkpt>
      <trkpt lat="45.77179" lon="4.28916">
        <ele>419.27</ele>
        <time>2016-08-04T13:42:54Z</time>
      </trkpt>
      <trkpt lat="45.77169" lon="4.2892">
        <ele>417.83</ele>
        <time>2016-08-04T13:43:02Z</time>
      </trkpt>
      <trkpt lat="45.77144" lon="4.28927">
        <ele>414.47</ele>
        <time>2016-08-04T13:43:22Z</time>
      </trkpt>
      <trkpt lat="45.77124" lon="4.28932">
        <ele>413.5</ele>
        <time>2016-08-04T13:43:39Z</time>
      </trkpt>
      <trkpt lat="45.77117" lon="4.28936">
        <ele>413.02</ele>
        <time>2016-08-04T13:43:45Z</time>
      </trkpt>
      <trkpt lat="45.77096" lon="4.28943">
        <ele>412.54</ele>
        <time>2016-08-04T13:44:01Z</time>
      </trkpt>
      <trkpt lat="45.77074" lon="4.28952">
        <ele>412.06</ele>
        <time>2016-08-04T13:44:18Z</time>
      </trkpt>
      <trkpt lat="45.77055" lon="4.28962">
        <ele>411.58</ele>
        <time>2016-08-04T13:44:35Z</time>
      </trkpt>
      <trkpt lat="45.77037" lon="4.28969">
        <ele>413.02</ele>
        <time>2016-08-04T13:44:49Z</time>
      </trkpt>
      <trkpt lat="45.77015" lon="4.28979">
        <ele>412.54</ele>
        <time>2016-08-04T13:45:06Z</time>
      </trkpt>
      <trkpt lat="45.76995" lon="4.28989">
        <ele>411.58</ele>
        <time>2016-08-04T13:45:24Z</time>
      </trkpt>
      <trkpt lat="45.76988" lon="4.28994">
        <ele>412.54</ele>
        <time>2016-08-04T13:45:35Z</time>
      </trkpt>
      <trkpt lat="45.76987" lon="4.28996">
        <ele>411.58</ele>
        <time>2016-08-04T13:45:50Z</time>
      </trkpt>
      <trkpt lat="45.76974" lon="4.29004">
        <ele>411.1</ele>
        <time>2016-08-04T13:46:05Z</time>
      </trkpt>
      <trkpt lat="45.76954" lon="4.29016">
        <ele>411.1</ele>
        <time>2016-08-04T13:46:22Z</time>
      </trkpt>
      <trkpt lat="45.76936" lon="4.29028">
        <ele>411.1</ele>
        <time>2016-08-04T13:46:38Z</time>
      </trkpt>
      <trkpt lat="45.76918" lon="4.29037">
        <ele>412.06</ele>
        <time>2016-08-04T13:46:51Z</time>
      </trkpt>
      <trkpt lat="45.76914" lon="4.29041">
        <ele>410.62</ele>
        <time>2016-08-04T13:47:01Z</time>
      </trkpt>
      <trkpt lat="45.76912" lon="4.29039">
        <ele>410.14</ele>
        <time>2016-08-04T13:47:15Z</time>
      </trkpt>
      <trkpt lat="45.76891" lon="4.29056">
        <ele>411.1</ele>
        <time>2016-08-04T13:47:31Z</time>
      </trkpt>
      <trkpt lat="45.76866" lon="4.29073">
        <ele>410.62</ele>
        <time>2016-08-04T13:47:50Z</time>
      </trkpt>
      <trkpt lat="45.76845" lon="4.29088">
        <ele>411.1</ele>
        <time>2016-08-04T13:48:06Z</time>
      </trkpt>
      <trkpt lat="45.76834" lon="4.29096">
        <ele>410.62</ele>
        <time>2016-08-04T13:48:15Z</time>
      </trkpt>
      <trkpt lat="45.76826" lon="4.29102">
        <ele>410.62</ele>
        <time>2016-08-04T13:48:22Z</time>
      </trkpt>
      <trkpt lat="45.76801" lon="4.29116">
        <ele>410.62</ele>
        <time>2016-08-04T13:48:41Z</time>
      </trkpt>
      <trkpt lat="45.76778" lon="4.29123">
        <ele>409.18</ele>
        <time>2016-08-04T13:48:58Z</time>
      </trkpt>
      <trkpt lat="45.7677" lon="4.29125">
        <ele>408.22</ele>
        <time>2016-08-04T13:49:02Z</time>
      </trkpt>
      <trkpt lat="45.76751" lon="4.29126">
        <ele>405.33</ele>
        <time>2016-08-04T13:49:15Z</time>
      </trkpt>
      <trkpt lat="45.76723" lon="4.2913">
        <ele>404.37</ele>
        <time>2016-08-04T13:49:34Z</time>
      </trkpt>
      <trkpt lat="45.767" lon="4.2913">
        <ele>405.81</ele>
        <time>2016-08-04T13:49:50Z</time>
      </trkpt>
      <trkpt lat="45.76697" lon="4.2913">
        <ele>405.81</ele>
        <time>2016-08-04T13:49:52Z</time>
      </trkpt>
      <trkpt lat="45.76668" lon="4.29133">
        <ele>405.33</ele>
        <time>2016-08-04T13:50:12Z</time>
      </trkpt>
      <trkpt lat="45.76642" lon="4.29133">
        <ele>407.26</ele>
        <time>2016-08-04T13:50:30Z</time>
      </trkpt>
      <trkpt lat="45.7661" lon="4.29133">
        <ele>408.7</ele>
        <time>2016-08-04T13:50:51Z</time>
      </trkpt>
      <trkpt lat="45.76586" lon="4.29131">
        <ele>409.66</ele>
        <time>2016-08-04T13:51:08Z</time>
      </trkpt>
      <trkpt lat="45.76561" lon="4.29136">
        <ele>412.06</ele>
        <time>2016-08-04T13:51:25Z</time>
      </trkpt>
      <trkpt lat="45.76545" lon="4.2915">
        <ele>414.95</ele>
        <time>2016-08-04T13:51:40Z</time>
      </trkpt>
      <trkpt lat="45.76537" lon="4.29154">
        <ele>415.91</ele>
        <time>2016-08-04T13:51:56Z</time>
      </trkpt>
      <trkpt lat="45.76537" lon="4.29153">
        <ele>415.43</ele>
        <time>2016-08-04T13:52:10Z</time>
      </trkpt>
      <trkpt lat="45.76535" lon="4.29152">
        <ele>413.98</ele>
        <time>2016-08-04T13:52:27Z</time>
      </trkpt>
      <trkpt lat="45.76534" lon="4.29151">
        <ele>413.02</ele>
        <time>2016-08-04T13:52:40Z</time>
      </trkpt>
      <trkpt lat="45.76534" lon="4.29151">
        <ele>412.54</ele>
        <time>2016-08-04T13:52:58Z</time>
      </trkpt>
      <trkpt lat="45.76534" lon="4.2915">
        <ele>413.5</ele>
        <time>2016-08-04T13:53:23Z</time>
      </trkpt>
      <trkpt lat="45.76533" lon="4.29151">
        <ele>413.5</ele>
        <time>2016-08-04T13:53:41Z</time>
      </trkpt>
      <trkpt lat="45.76531" lon="4.29157">
        <ele>413.98</ele>
        <time>2016-08-04T13:53:48Z</time>
      </trkpt>
      <trkpt lat="45.76525" lon="4.29177">
        <ele>415.43</ele>
        <time>2016-08-04T13:54:05Z</time>
      </trkpt>
      <trkpt lat="45.76509" lon="4.29185">
        <ele>412.54</ele>
        <time>2016-08-04T13:54:20Z</time>
      </trkpt>
      <trkpt lat="45.76507" lon="4.29185">
        <ele>412.54</ele>
        <time>2016-08-04T13:54:21Z</time>
      </trkpt>
      <trkpt lat="45.76486" lon="4.29189">
        <ele>412.06</ele>
        <time>2016-08-04T13:54:38Z</time>
      </trkpt>
      <trkpt lat="45.76463" lon="4.29191">
        <ele>410.62</ele>
        <time>2016-08-04T13:54:55Z</time>
      </trkpt>
      <trkpt lat="45.76447" lon="4.29193">
        <ele>411.58</ele>
        <time>2016-08-04T13:55:10Z</time>
      </trkpt>
      <trkpt lat="45.76427" lon="4.2919">
        <ele>412.06</ele>
        <time>2016-08-04T13:55:25Z</time>
      </trkpt>
      <trkpt lat="45.76407" lon="4.29185">
        <ele>412.06</ele>
        <time>2016-08-04T13:55:41Z</time>
      </trkpt>
      <trkpt lat="45.76387" lon="4.29181">
        <ele>412.06</ele>
        <time>2016-08-04T13:55:55Z</time>
      </trkpt>
      <trkpt lat="45.76363" lon="4.29174">
        <ele>412.06</ele>
        <time>2016-08-04T13:56:13Z</time>
      </trkpt>
      <trkpt lat="45.76346" lon="4.29169">
        <ele>413.02</ele>
        <time>2016-08-04T13:56:26Z</time>
      </trkpt>
      <trkpt lat="45.76341" lon="4.29163">
        <ele>413.98</ele>
        <time>2016-08-04T13:56:32Z</time>
      </trkpt>
      <trkpt lat="45.76325" lon="4.29139">
        <ele>413.98</ele>
        <time>2016-08-04T13:56:48Z</time>
      </trkpt>
      <trkpt lat="45.76324" lon="4.29135">
        <ele>412.06</ele>
        <time>2016-08-04T13:57:02Z</time>
      </trkpt>
      <trkpt lat="45.76324" lon="4.29134">
        <ele>411.1</ele>
        <time>2016-08-04T13:57:17Z</time>
      </trkpt>
      <trkpt lat="45.76322" lon="4.29132">
        <ele>410.62</ele>
        <time>2016-08-04T13:57:34Z</time>
      </trkpt>
      <trkpt lat="45.76321" lon="4.2913">
        <ele>410.14</ele>
        <time>2016-08-04T13:57:55Z</time>
      </trkpt>
      <trkpt lat="45.76318" lon="4.29124">
        <ele>410.62</ele>
        <time>2016-08-04T13:58:11Z</time>
      </trkpt>
      <trkpt lat="45.76311" lon="4.29103">
        <ele>411.1</ele>
        <time>2016-08-04T13:58:26Z</time>
      </trkpt>
      <trkpt lat="45.76308" lon="4.29098">
        <ele>411.58</ele>
        <time>2016-08-04T13:58:30Z</time>
      </trkpt>
      <trkpt lat="45.76296" lon="4.29069">
        <ele>413.5</ele>
        <time>2016-08-04T13:58:49Z</time>
      </trkpt>
      <trkpt lat="45.76283" lon="4.29044">
        <ele>414.95</ele>
        <time>2016-08-04T13:59:07Z</time>
      </trkpt>
      <trkpt lat="45.76278" lon="4.29018">
        <ele>418.31</ele>
        <time>2016-08-04T13:59:22Z</time>
      </trkpt>
      <trkpt lat="45.76274" lon="4.29009">
        <ele>419.75</ele>
        <time>2016-08-04T13:59:29Z</time>
      </trkpt>
      <trkpt lat="45.76253" lon="4.28984">
        <ele>416.87</ele>
        <time>2016-08-04T13:59:46Z</time>
      </trkpt>
      <trkpt lat="45.76228" lon="4.28966">
        <ele>409.66</ele>
        <time>2016-08-04T14:00:06Z</time>
      </trkpt>
      <trkpt lat="45.76203" lon="4.28954">
        <ele>407.26</ele>
        <time>2016-08-04T14:00:26Z</time>
      </trkpt>
      <trkpt lat="45.76183" lon="4.28949">
        <ele>407.26</ele>
        <time>2016-08-04T14:00:42Z</time>
      </trkpt>
      <trkpt lat="45.7616" lon="4.28946">
        <ele>406.77</ele>
        <time>2016-08-04T14:01:01Z</time>
      </trkpt>
      <trkpt lat="45.76141" lon="4.28945">
        <ele>407.26</ele>
        <time>2016-08-04T14:01:17Z</time>
      </trkpt>
      <trkpt lat="45.76122" lon="4.28951">
        <ele>407.26</ele>
        <time>2016-08-04T14:01:32Z</time>
      </trkpt>
      <trkpt lat="45.76114" lon="4.28951">
        <ele>406.77</ele>
        <time>2016-08-04T14:01:38Z</time>
      </trkpt>
      <trkpt lat="45.7609" lon="4.28952">
        <ele>404.85</ele>
        <time>2016-08-04T14:01:55Z</time>
      </trkpt>
      <trkpt lat="45.7607" lon="4.28953">
        <ele>403.89</ele>
        <time>2016-08-04T14:02:10Z</time>
      </trkpt>
      <trkpt lat="45.76045" lon="4.28955">
        <ele>403.41</ele>
        <time>2016-08-04T14:02:29Z</time>
      </trkpt>
      <trkpt lat="45.7603" lon="4.28954">
        <ele>404.85</ele>
        <time>2016-08-04T14:02:42Z</time>
      </trkpt>
      <trkpt lat="45.76008" lon="4.28953">
        <ele>406.77</ele>
        <time>2016-08-04T14:02:58Z</time>
      </trkpt>
      <trkpt lat="45.75991" lon="4.28953">
        <ele>407.74</ele>
        <time>2016-08-04T14:03:11Z</time>
      </trkpt>
      <trkpt lat="45.75973" lon="4.2895">
        <ele>406.29</ele>
        <time>2016-08-04T14:03:28Z</time>
      </trkpt>
      <trkpt lat="45.7597" lon="4.28948">
        <ele>406.29</ele>
        <time>2016-08-04T14:03:31Z</time>
      </trkpt>
      <trkpt lat="45.75949" lon="4.28937">
        <ele>405.33</ele>
        <time>2016-08-04T14:03:45Z</time>
      </trkpt>
      <trkpt lat="45.75938" lon="4.28921">
        <ele>408.22</ele>
        <time>2016-08-04T14:03:59Z</time>
      </trkpt>
      <trkpt lat="45.75926" lon="4.28907">
        <ele>411.58</ele>
        <time>2016-08-04T14:04:12Z</time>
      </trkpt>
      <trkpt lat="45.75907" lon="4.28887">
        <ele>412.54</ele>
        <time>2016-08-04T14:04:27Z</time>
      </trkpt>
      <trkpt lat="45.75901" lon="4.28879">
        <ele>413.02</ele>
        <time>2016-08-04T14:04:34Z</time>
      </trkpt>
      <trkpt lat="45.75886" lon="4.28862">
        <ele>411.1</ele>
        <time>2016-08-04T14:04:49Z</time>
      </trkpt>
      <trkpt lat="45.75865" lon="4.28839">
        <ele>407.74</ele>
        <time>2016-08-04T14:05:07Z</time>
      </trkpt>
      <trkpt lat="45.75851" lon="4.28821">
        <ele>404.85</ele>
        <time>2016-08-04T14:05:22Z</time>
      </trkpt>
      <trkpt lat="45.75836" lon="4.28803">
        <ele>405.33</ele>
        <time>2016-08-04T14:05:37Z</time>
      </trkpt>
      <trkpt lat="45.75819" lon="4.28781">
        <ele>404.85</ele>
        <time>2016-08-04T14:05:54Z</time>
      </trkpt>
      <trkpt lat="45.75815" lon="4.28772">
        <ele>405.33</ele>
        <time>2016-08-04T14:06:07Z</time>
      </trkpt>
      <trkpt lat="45.75814" lon="4.28769">
        <ele>405.81</ele>
        <time>2016-08-04T14:06:26Z</time>
      </trkpt>
      <trkpt lat="45.75807" lon="4.28753">
        <ele>410.14</ele>
        <time>2016-08-04T14:06:41Z</time>
      </trkpt>
      <trkpt lat="45.75803" lon="4.28725">
        <ele>417.35</ele>
        <time>2016-08-04T14:06:57Z</time>
      </trkpt>
      <trkpt lat="45.75805" lon="4.2871">
        <ele>420.71</ele>
        <time>2016-08-04T14:07:08Z</time>
      </trkpt>
      <trkpt lat="45.75803" lon="4.28691">
        <ele>426</ele>
        <time>2016-08-04T14:07:20Z</time>
      </trkpt>
      <trkpt lat="45.75801" lon="4.28679">
        <ele>429.37</ele>
        <time>2016-08-04T14:07:29Z</time>
      </trkpt>
      <trkpt lat="45.75799" lon="4.2867">
        <ele>431.29</ele>
        <time>2016-08-04T14:07:34Z</time>
      </trkpt>
      <trkpt lat="45.75794" lon="4.28654">
        <ele>437.06</ele>
        <time>2016-08-04T14:07:47Z</time>
      </trkpt>
      <trkpt lat="45.75783" lon="4.28622">
        <ele>429.85</ele>
        <time>2016-08-04T14:08:01Z</time>
      </trkpt>
      <trkpt lat="45.75775" lon="4.28609">
        <ele>422.64</ele>
        <time>2016-08-04T14:08:17Z</time>
      </trkpt>
      <trkpt lat="45.75743" lon="4.28597">
        <ele>419.27</ele>
        <time>2016-08-04T14:08:33Z</time>
      </trkpt>
      <trkpt lat="45.75721" lon="4.28597">
        <ele>417.35</ele>
        <time>2016-08-04T14:08:43Z</time>
      </trkpt>
      <trkpt lat="45.75704" lon="4.28594">
        <ele>417.35</ele>
        <time>2016-08-04T14:08:57Z</time>
      </trkpt>
      <trkpt lat="45.75688" lon="4.2859">
        <ele>416.87</ele>
        <time>2016-08-04T14:09:09Z</time>
      </trkpt>
      <trkpt lat="45.75686" lon="4.2859">
        <ele>416.39</ele>
        <time>2016-08-04T14:09:11Z</time>
      </trkpt>
      <trkpt lat="45.75674" lon="4.28584">
        <ele>417.83</ele>
        <time>2016-08-04T14:09:24Z</time>
      </trkpt>
      <trkpt lat="45.75655" lon="4.28578">
        <ele>417.35</ele>
        <time>2016-08-04T14:09:39Z</time>
      </trkpt>
      <trkpt lat="45.75643" lon="4.28579">
        <ele>419.27</ele>
        <time>2016-08-04T14:09:50Z</time>
      </trkpt>
      <trkpt lat="45.75636" lon="4.28578">
        <ele>419.27</ele>
        <time>2016-08-04T14:09:58Z</time>
      </trkpt>
      <trkpt lat="45.75615" lon="4.28574">
        <ele>414.47</ele>
        <time>2016-08-04T14:10:12Z</time>
      </trkpt>
      <trkpt lat="45.75589" lon="4.28569">
        <ele>407.74</ele>
        <time>2016-08-04T14:10:25Z</time>
      </trkpt>
      <trkpt lat="45.75569" lon="4.28563">
        <ele>404.37</ele>
        <time>2016-08-04T14:10:39Z</time>
      </trkpt>
      <trkpt lat="45.75553" lon="4.28554">
        <ele>401.97</ele>
        <time>2016-08-04T14:10:53Z</time>
      </trkpt>
      <trkpt lat="45.75543" lon="4.28546">
        <ele>401.97</ele>
        <time>2016-08-04T14:11:04Z</time>
      </trkpt>
      <trkpt lat="45.75533" lon="4.28544">
        <ele>404.37</ele>
        <time>2016-08-04T14:11:17Z</time>
      </trkpt>
      <trkpt lat="45.75513" lon="4.28538">
        <ele>408.7</ele>
        <time>2016-08-04T14:11:31Z</time>
      </trkpt>
      <trkpt lat="45.75496" lon="4.28534">
        <ele>409.18</ele>
        <time>2016-08-04T14:11:45Z</time>
      </trkpt>
      <trkpt lat="45.75476" lon="4.28524">
        <ele>409.66</ele>
        <time>2016-08-04T14:12:00Z</time>
      </trkpt>
      <trkpt lat="45.75469" lon="4.2852">
        <ele>407.74</ele>
        <time>2016-08-04T14:12:15Z</time>
      </trkpt>
      <trkpt lat="45.75436" lon="4.28504">
        <ele>407.74</ele>
        <time>2016-08-04T14:12:31Z</time>
      </trkpt>
      <trkpt lat="45.75436" lon="4.28512">
        <ele>408.7</ele>
        <time>2016-08-04T14:12:53Z</time>
      </trkpt>
      <trkpt lat="45.75432" lon="4.28509">
        <ele>412.54</ele>
        <time>2016-08-04T14:13:16Z</time>
      </trkpt>
      <trkpt lat="45.75431" lon="4.28513">
        <ele>412.06</ele>
        <time>2016-08-04T14:13:38Z</time>
      </trkpt>
      <trkpt lat="45.7543" lon="4.28512">
        <ele>410.62</ele>
        <time>2016-08-04T14:14:04Z</time>
      </trkpt>
      <trkpt lat="45.75429" lon="4.28514">
        <ele>409.18</ele>
        <time>2016-08-04T14:14:29Z</time>
      </trkpt>
      <trkpt lat="45.75428" lon="4.28519">
        <ele>405.33</ele>
        <time>2016-08-04T14:14:52Z</time>
      </trkpt>
      <trkpt lat="45.75434" lon="4.28522">
        <ele>401.01</ele>
        <time>2016-08-04T14:15:17Z</time>
      </trkpt>
      <trkpt lat="45.75434" lon="4.2852">
        <ele>398.6</ele>
        <time>2016-08-04T14:15:43Z</time>
      </trkpt>
      <trkpt lat="45.75435" lon="4.28519">
        <ele>396.68</ele>
        <time>2016-08-04T14:16:07Z</time>
      </trkpt>
      <trkpt lat="45.75436" lon="4.28528">
        <ele>394.28</ele>
        <time>2016-08-04T14:16:32Z</time>
      </trkpt>
      <trkpt lat="45.75439" lon="4.28523">
        <ele>391.39</ele>
        <time>2016-08-04T14:17:01Z</time>
      </trkpt>
      <trkpt lat="45.75438" lon="4.28523">
        <ele>390.91</ele>
        <time>2016-08-04T14:17:27Z</time>
      </trkpt>
      <trkpt lat="45.75437" lon="4.28523">
        <ele>389.95</ele>
        <time>2016-08-04T14:17:57Z</time>
      </trkpt>
      <trkpt lat="45.75438" lon="4.28524">
        <ele>388.99</ele>
        <time>2016-08-04T14:18:25Z</time>
      </trkpt>
      <trkpt lat="45.75438" lon="4.28524">
        <ele>388.03</ele>
        <time>2016-08-04T14:18:50Z</time>
      </trkpt>
      <trkpt lat="45.75438" lon="4.28524">
        <ele>387.55</ele>
        <time>2016-08-04T14:19:17Z</time>
      </trkpt>
      <trkpt lat="45.75439" lon="4.28524">
        <ele>387.55</ele>
        <time>2016-08-04T14:19:45Z</time>
      </trkpt>
      <trkpt lat="45.75438" lon="4.28524">
        <ele>387.07</ele>
        <time>2016-08-04T14:20:11Z</time>
      </trkpt>
      <trkpt lat="45.75439" lon="4.28523">
        <ele>387.07</ele>
        <time>2016-08-04T14:20:38Z</time>
      </trkpt>
      <trkpt lat="45.75444" lon="4.28523">
        <ele>385.15</ele>
        <time>2016-08-04T14:21:02Z</time>
      </trkpt>
      <trkpt lat="45.75447" lon="4.28525">
        <ele>385.15</ele>
        <time>2016-08-04T14:21:24Z</time>
      </trkpt>
      <trkpt lat="45.75444" lon="4.28522">
        <ele>384.66</ele>
        <time>2016-08-04T14:21:48Z</time>
      </trkpt>
      <trkpt lat="45.75438" lon="4.28521">
        <ele>384.18</ele>
        <time>2016-08-04T14:22:20Z</time>
      </trkpt>
      <trkpt lat="45.75436" lon="4.28519">
        <ele>383.22</ele>
        <time>2016-08-04T14:22:51Z</time>
      </trkpt>
      <trkpt lat="45.75439" lon="4.28519">
        <ele>381.78</ele>
        <time>2016-08-04T14:23:20Z</time>
      </trkpt>
      <trkpt lat="45.75441" lon="4.28519">
        <ele>380.34</ele>
        <time>2016-08-04T14:23:51Z</time>
      </trkpt>
      <trkpt lat="45.75443" lon="4.28521">
        <ele>376.49</ele>
        <time>2016-08-04T14:24:24Z</time>
      </trkpt>
      <trkpt lat="45.75444" lon="4.28522">
        <ele>376.01</ele>
        <time>2016-08-04T14:24:53Z</time>
      </trkpt>
      <trkpt lat="45.75444" lon="4.28521">
        <ele>376.01</ele>
        <time>2016-08-04T14:25:25Z</time>
      </trkpt>
      <trkpt lat="45.75443" lon="4.2852">
        <ele>376.49</ele>
        <time>2016-08-04T14:25:48Z</time>
      </trkpt>
      <trkpt lat="45.75441" lon="4.28518">
        <ele>378.9</ele>
        <time>2016-08-04T14:26:15Z</time>
      </trkpt>
      <trkpt lat="45.75441" lon="4.28517">
        <ele>380.34</ele>
        <time>2016-08-04T14:26:16Z</time>
      </trkpt>
      <trkpt lat="45.75422" lon="4.28507">
        <ele>385.15</ele>
        <time>2016-08-04T14:26:33Z</time>
      </trkpt>
      <trkpt lat="45.75417" lon="4.28505">
        <ele>386.59</ele>
        <time>2016-08-04T14:26:38Z</time>
      </trkpt>
      <trkpt lat="45.75401" lon="4.28501">
        <ele>387.07</ele>
        <time>2016-08-04T14:26:54Z</time>
      </trkpt>
      <trkpt lat="45.75387" lon="4.28498">
        <ele>388.51</ele>
        <time>2016-08-04T14:27:07Z</time>
      </trkpt>
      <trkpt lat="45.75383" lon="4.28497">
        <ele>388.03</ele>
        <time>2016-08-04T14:27:10Z</time>
      </trkpt>
      <trkpt lat="45.75366" lon="4.28498">
        <ele>388.51</ele>
        <time>2016-08-04T14:27:24Z</time>
      </trkpt>
      <trkpt lat="45.75349" lon="4.28493">
        <ele>386.11</ele>
        <time>2016-08-04T14:27:39Z</time>
      </trkpt>
      <trkpt lat="45.75334" lon="4.28489">
        <ele>386.59</ele>
        <time>2016-08-04T14:27:54Z</time>
      </trkpt>
      <trkpt lat="45.75324" lon="4.28486">
        <ele>386.59</ele>
        <time>2016-08-04T14:28:03Z</time>
      </trkpt>
      <trkpt lat="45.75314" lon="4.28483">
        <ele>387.07</ele>
        <time>2016-08-04T14:28:11Z</time>
      </trkpt>
      <trkpt lat="45.75298" lon="4.2848">
        <ele>390.91</ele>
        <time>2016-08-04T14:28:26Z</time>
      </trkpt>
      <trkpt lat="45.75284" lon="4.28478">
        <ele>392.84</ele>
        <time>2016-08-04T14:28:37Z</time>
      </trkpt>
      <trkpt lat="45.75268" lon="4.28477">
        <ele>396.68</ele>
        <time>2016-08-04T14:28:47Z</time>
      </trkpt>
      <trkpt lat="45.75257" lon="4.28476">
        <ele>399.08</ele>
        <time>2016-08-04T14:28:54Z</time>
      </trkpt>
      <trkpt lat="45.7524" lon="4.28478">
        <ele>403.41</ele>
        <time>2016-08-04T14:29:07Z</time>
      </trkpt>
      <trkpt lat="45.75229" lon="4.28482">
        <ele>406.77</ele>
        <time>2016-08-04T14:29:16Z</time>
      </trkpt>
      <trkpt lat="45.75219" lon="4.2848">
        <ele>408.22</ele>
        <time>2016-08-04T14:29:24Z</time>
      </trkpt>
      <trkpt lat="45.75198" lon="4.28488">
        <ele>405.81</ele>
        <time>2016-08-04T14:29:39Z</time>
      </trkpt>
      <trkpt lat="45.75179" lon="4.28496">
        <ele>402.93</ele>
        <time>2016-08-04T14:29:50Z</time>
      </trkpt>
      <trkpt lat="45.75169" lon="4.28503">
        <ele>403.89</ele>
        <time>2016-08-04T14:30:01Z</time>
      </trkpt>
      <trkpt lat="45.75159" lon="4.28508">
        <ele>407.26</ele>
        <time>2016-08-04T14:30:12Z</time>
      </trkpt>
      <trkpt lat="45.75157" lon="4.28511">
        <ele>408.7</ele>
        <time>2016-08-04T14:30:15Z</time>
      </trkpt>
      <trkpt lat="45.75145" lon="4.28527">
        <ele>406.29</ele>
        <time>2016-08-04T14:30:27Z</time>
      </trkpt>
      <trkpt lat="45.75118" lon="4.28536">
        <ele>401.01</ele>
        <time>2016-08-04T14:30:41Z</time>
      </trkpt>
      <trkpt lat="45.75108" lon="4.28545">
        <ele>401.97</ele>
        <time>2016-08-04T14:30:52Z</time>
      </trkpt>
      <trkpt lat="45.75084" lon="4.28556">
        <ele>403.89</ele>
        <time>2016-08-04T14:31:08Z</time>
      </trkpt>
      <trkpt lat="45.75078" lon="4.28559">
        <ele>404.37</ele>
        <time>2016-08-04T14:31:13Z</time>
      </trkpt>
      <trkpt lat="45.75069" lon="4.28561">
        <ele>405.81</ele>
        <time>2016-08-04T14:31:27Z</time>
      </trkpt>
      <trkpt lat="45.75058" lon="4.28555">
        <ele>406.29</ele>
        <time>2016-08-04T14:31:37Z</time>
      </trkpt>
      <trkpt lat="45.75047" lon="4.28542">
        <ele>408.22</ele>
        <time>2016-08-04T14:31:44Z</time>
      </trkpt>
      <trkpt lat="45.75025" lon="4.28524">
        <ele>405.33</ele>
        <time>2016-08-04T14:31:56Z</time>
      </trkpt>
      <trkpt lat="45.74997" lon="4.2851">
        <ele>397.16</ele>
        <time>2016-08-04T14:32:10Z</time>
      </trkpt>
      <trkpt lat="45.74984" lon="4.285">
        <ele>396.68</ele>
        <time>2016-08-04T14:32:21Z</time>
      </trkpt>
      <trkpt lat="45.74971" lon="4.28487">
        <ele>400.53</ele>
        <time>2016-08-04T14:32:35Z</time>
      </trkpt>
      <trkpt lat="45.7497" lon="4.28487">
        <ele>401.49</ele>
        <time>2016-08-04T14:32:36Z</time>
      </trkpt>
      <trkpt lat="45.74966" lon="4.28483">
        <ele>401.49</ele>
        <time>2016-08-04T14:32:40Z</time>
      </trkpt>
      <trkpt lat="45.74956" lon="4.28478">
        <ele>400.05</ele>
        <time>2016-08-04T14:32:46Z</time>
      </trkpt>
      <trkpt lat="45.74938" lon="4.28472">
        <ele>399.08</ele>
        <time>2016-08-04T14:32:58Z</time>
      </trkpt>
      <trkpt lat="45.74936" lon="4.28469">
        <ele>398.6</ele>
        <time>2016-08-04T14:33:00Z</time>
      </trkpt>
      <trkpt lat="45.74918" lon="4.2846">
        <ele>396.68</ele>
        <time>2016-08-04T14:33:12Z</time>
      </trkpt>
      <trkpt lat="45.74907" lon="4.28455">
        <ele>397.16</ele>
        <time>2016-08-04T14:33:23Z</time>
      </trkpt>
      <trkpt lat="45.74895" lon="4.28449">
        <ele>398.12</ele>
        <time>2016-08-04T14:33:30Z</time>
      </trkpt>
      <trkpt lat="45.74888" lon="4.28446">
        <ele>399.08</ele>
        <time>2016-08-04T14:33:35Z</time>
      </trkpt>
      <trkpt lat="45.74878" lon="4.28439">
        <ele>401.01</ele>
        <time>2016-08-04T14:33:45Z</time>
      </trkpt>
      <trkpt lat="45.7486" lon="4.28423">
        <ele>399.08</ele>
        <time>2016-08-04T14:34:01Z</time>
      </trkpt>
      <trkpt lat="45.74844" lon="4.28415">
        <ele>398.12</ele>
        <time>2016-08-04T14:34:15Z</time>
      </trkpt>
      <trkpt lat="45.74831" lon="4.28406">
        <ele>398.6</ele>
        <time>2016-08-04T14:34:25Z</time>
      </trkpt>
      <trkpt lat="45.74814" lon="4.28394">
        <ele>398.6</ele>
        <time>2016-08-04T14:34:40Z</time>
      </trkpt>
      <trkpt lat="45.74809" lon="4.28385">
        <ele>400.05</ele>
        <time>2016-08-04T14:34:45Z</time>
      </trkpt>
      <trkpt lat="45.7481" lon="4.28369">
        <ele>406.29</ele>
        <time>2016-08-04T14:34:58Z</time>
      </trkpt>
      <trkpt lat="45.74815" lon="4.28355">
        <ele>410.14</ele>
        <time>2016-08-04T14:35:09Z</time>
      </trkpt>
      <trkpt lat="45.74814" lon="4.2834">
        <ele>410.62</ele>
        <time>2016-08-04T14:35:20Z</time>
      </trkpt>
      <trkpt lat="45.74814" lon="4.28336">
        <ele>411.1</ele>
        <time>2016-08-04T14:35:22Z</time>
      </trkpt>
      <trkpt lat="45.74811" lon="4.28325">
        <ele>407.74</ele>
        <time>2016-08-04T14:35:31Z</time>
      </trkpt>
      <trkpt lat="45.74814" lon="4.28318">
        <ele>404.85</ele>
        <time>2016-08-04T14:35:36Z</time>
      </trkpt>
      <trkpt lat="45.74821" lon="4.28309">
        <ele>397.64</ele>
        <time>2016-08-04T14:35:45Z</time>
      </trkpt>
      <trkpt lat="45.74828" lon="4.28289">
        <ele>392.36</ele>
        <time>2016-08-04T14:35:58Z</time>
      </trkpt>
      <trkpt lat="45.74828" lon="4.28288">
        <ele>392.36</ele>
        <time>2016-08-04T14:35:59Z</time>
      </trkpt>
      <trkpt lat="45.74821" lon="4.28271">
        <ele>389.95</ele>
        <time>2016-08-04T14:36:10Z</time>
      </trkpt>
      <trkpt lat="45.74814" lon="4.28256">
        <ele>388.51</ele>
        <time>2016-08-04T14:36:20Z</time>
      </trkpt>
      <trkpt lat="45.7481" lon="4.28249">
        <ele>387.07</ele>
        <time>2016-08-04T14:36:25Z</time>
      </trkpt>
      <trkpt lat="45.74789" lon="4.28232">
        <ele>382.74</ele>
        <time>2016-08-04T14:36:39Z</time>
      </trkpt>
      <trkpt lat="45.74777" lon="4.28218">
        <ele>382.74</ele>
        <time>2016-08-04T14:36:54Z</time>
      </trkpt>
      <trkpt lat="45.74762" lon="4.28203">
        <ele>380.34</ele>
        <time>2016-08-04T14:37:06Z</time>
      </trkpt>
      <trkpt lat="45.7475" lon="4.28184">
        <ele>379.86</ele>
        <time>2016-08-04T14:37:20Z</time>
      </trkpt>
      <trkpt lat="45.7475" lon="4.28183">
        <ele>380.34</ele>
        <time>2016-08-04T14:37:22Z</time>
      </trkpt>
      <trkpt lat="45.74746" lon="4.28161">
        <ele>379.86</ele>
        <time>2016-08-04T14:37:37Z</time>
      </trkpt>
      <trkpt lat="45.74744" lon="4.28148">
        <ele>376.49</ele>
        <time>2016-08-04T14:37:52Z</time>
      </trkpt>
      <trkpt lat="45.74743" lon="4.28144">
        <ele>375.53</ele>
        <time>2016-08-04T14:38:06Z</time>
      </trkpt>
      <trkpt lat="45.74742" lon="4.28139">
        <ele>369.28</ele>
        <time>2016-08-04T14:38:24Z</time>
      </trkpt>
      <trkpt lat="45.74741" lon="4.28137">
        <ele>366.4</ele>
        <time>2016-08-04T14:38:45Z</time>
      </trkpt>
      <trkpt lat="45.7474" lon="4.28136">
        <ele>365.92</ele>
        <time>2016-08-04T14:38:54Z</time>
      </trkpt>
      <trkpt lat="45.74731" lon="4.28119">
        <ele>368.32</ele>
        <time>2016-08-04T14:39:08Z</time>
      </trkpt>
      <trkpt lat="45.74723" lon="4.2811">
        <ele>367.36</ele>
        <time>2016-08-04T14:39:15Z</time>
      </trkpt>
      <trkpt lat="45.74716" lon="4.28101">
        <ele>366.88</ele>
        <time>2016-08-04T14:39:22Z</time>
      </trkpt>
      <trkpt lat="45.74703" lon="4.28086">
        <ele>369.28</ele>
        <time>2016-08-04T14:39:36Z</time>
      </trkpt>
      <trkpt lat="45.747" lon="4.28079">
        <ele>371.21</ele>
        <time>2016-08-04T14:39:41Z</time>
      </trkpt>
      <trkpt lat="45.74696" lon="4.28068">
        <ele>373.61</ele>
        <time>2016-08-04T14:39:48Z</time>
      </trkpt>
      <trkpt lat="45.74688" lon="4.28038">
        <ele>377.45</ele>
        <time>2016-08-04T14:40:04Z</time>
      </trkpt>
      <trkpt lat="45.74683" lon="4.28023">
        <ele>380.34</ele>
        <time>2016-08-04T14:40:17Z</time>
      </trkpt>
      <trkpt lat="45.74674" lon="4.28009">
        <ele>377.94</ele>
        <time>2016-08-04T14:40:28Z</time>
      </trkpt>
      <trkpt lat="45.74668" lon="4.2799">
        <ele>373.61</ele>
        <time>2016-08-04T14:40:45Z</time>
      </trkpt>
      <trkpt lat="45.74661" lon="4.2798">
        <ele>369.76</ele>
        <time>2016-08-04T14:41:01Z</time>
      </trkpt>
      <trkpt lat="45.74664" lon="4.27972">
        <ele>366.88</ele>
        <time>2016-08-04T14:41:17Z</time>
      </trkpt>
      <trkpt lat="45.74663" lon="4.2797">
        <ele>364.48</ele>
        <time>2016-08-04T14:41:35Z</time>
      </trkpt>
      <trkpt lat="45.74662" lon="4.27969">
        <ele>363.04</ele>
        <time>2016-08-04T14:41:49Z</time>
      </trkpt>
      <trkpt lat="45.74663" lon="4.27968">
        <ele>362.07</ele>
        <time>2016-08-04T14:42:02Z</time>
      </trkpt>
      <trkpt lat="45.74662" lon="4.27968">
        <ele>362.55</ele>
        <time>2016-08-04T14:42:14Z</time>
      </trkpt>
      <trkpt lat="45.74662" lon="4.27967">
        <ele>361.59</ele>
        <time>2016-08-04T14:42:27Z</time>
      </trkpt>
      <trkpt lat="45.74663" lon="4.2797">
        <ele>360.63</ele>
        <time>2016-08-04T14:42:43Z</time>
      </trkpt>
      <trkpt lat="45.74656" lon="4.27985">
        <ele>362.55</ele>
        <time>2016-08-04T14:43:00Z</time>
      </trkpt>
      <trkpt lat="45.74655" lon="4.27985">
        <ele>363.04</ele>
        <time>2016-08-04T14:43:02Z</time>
      </trkpt>
      <trkpt lat="45.74644" lon="4.27989">
        <ele>365.92</ele>
        <time>2016-08-04T14:43:13Z</time>
      </trkpt>
      <trkpt lat="45.74626" lon="4.27995">
        <ele>369.76</ele>
        <time>2016-08-04T14:43:28Z</time>
      </trkpt>
      <trkpt lat="45.74609" lon="4.27998">
        <ele>367.84</ele>
        <time>2016-08-04T14:43:44Z</time>
      </trkpt>
      <trkpt lat="45.74596" lon="4.27993">
        <ele>370.24</ele>
        <time>2016-08-04T14:43:56Z</time>
      </trkpt>
      <trkpt lat="45.74585" lon="4.27986">
        <ele>368.8</ele>
        <time>2016-08-04T14:44:09Z</time>
      </trkpt>
      <trkpt lat="45.74584" lon="4.27983">
        <ele>367.36</ele>
        <time>2016-08-04T14:44:20Z</time>
      </trkpt>
      <trkpt lat="45.7456" lon="4.27993">
        <ele>367.36</ele>
        <time>2016-08-04T14:44:39Z</time>
      </trkpt>
      <trkpt lat="45.74538" lon="4.28002">
        <ele>368.32</ele>
        <time>2016-08-04T14:44:55Z</time>
      </trkpt>
      <trkpt lat="45.74517" lon="4.28028">
        <ele>366.4</ele>
        <time>2016-08-04T14:45:13Z</time>
      </trkpt>
      <trkpt lat="45.74497" lon="4.28059">
        <ele>365.92</ele>
        <time>2016-08-04T14:45:33Z</time>
      </trkpt>
      <trkpt lat="45.7448" lon="4.28075">
        <ele>366.88</ele>
        <time>2016-08-04T14:45:49Z</time>
      </trkpt>
      <trkpt lat="45.74457" lon="4.28091">
        <ele>366.88</ele>
        <time>2016-08-04T14:46:08Z</time>
      </trkpt>
      <trkpt lat="45.74435" lon="4.28115">
        <ele>367.36</ele>
        <time>2016-08-04T14:46:29Z</time>
      </trkpt>
      <trkpt lat="45.74421" lon="4.28144">
        <ele>368.32</ele>
        <time>2016-08-04T14:46:49Z</time>
      </trkpt>
      <trkpt lat="45.74408" lon="4.28171">
        <ele>369.28</ele>
        <time>2016-08-04T14:47:08Z</time>
      </trkpt>
      <trkpt lat="45.7439" lon="4.28199">
        <ele>369.28</ele>
        <time>2016-08-04T14:47:29Z</time>
      </trkpt>
      <trkpt lat="45.74361" lon="4.28211">
        <ele>368.8</ele>
        <time>2016-08-04T14:47:52Z</time>
      </trkpt>
      <trkpt lat="45.74337" lon="4.28221">
        <ele>368.32</ele>
        <time>2016-08-04T14:48:12Z</time>
      </trkpt>
      <trkpt lat="45.74315" lon="4.28223">
        <ele>368.8</ele>
        <time>2016-08-04T14:48:30Z</time>
      </trkpt>
      <trkpt lat="45.74288" lon="4.28225">
        <ele>368.32</ele>
        <time>2016-08-04T14:48:51Z</time>
      </trkpt>
      <trkpt lat="45.74259" lon="4.28225">
        <ele>367.84</ele>
        <time>2016-08-04T14:49:13Z</time>
      </trkpt>
      <trkpt lat="45.74233" lon="4.28218">
        <ele>367.36</ele>
        <time>2016-08-04T14:49:32Z</time>
      </trkpt>
      <trkpt lat="45.74209" lon="4.28209">
        <ele>367.36</ele>
        <time>2016-08-04T14:49:50Z</time>
      </trkpt>
      <trkpt lat="45.74184" lon="4.28203">
        <ele>366.4</ele>
        <time>2016-08-04T14:50:08Z</time>
      </trkpt>
      <trkpt lat="45.74162" lon="4.28201">
        <ele>365.92</ele>
        <time>2016-08-04T14:50:26Z</time>
      </trkpt>
      <trkpt lat="45.74147" lon="4.28201">
        <ele>364.96</ele>
        <time>2016-08-04T14:50:43Z</time>
      </trkpt>
      <trkpt lat="45.74132" lon="4.28205">
        <ele>366.4</ele>
        <time>2016-08-04T14:50:58Z</time>
      </trkpt>
      <trkpt lat="45.74106" lon="4.28222">
        <ele>365.44</ele>
        <time>2016-08-04T14:51:20Z</time>
      </trkpt>
      <trkpt lat="45.74087" lon="4.28233">
        <ele>364.96</ele>
        <time>2016-08-04T14:51:36Z</time>
      </trkpt>
      <trkpt lat="45.74066" lon="4.28246">
        <ele>364.48</ele>
        <time>2016-08-04T14:51:55Z</time>
      </trkpt>
      <trkpt lat="45.74045" lon="4.28256">
        <ele>364.48</ele>
        <time>2016-08-04T14:52:15Z</time>
      </trkpt>
      <trkpt lat="45.74025" lon="4.28265">
        <ele>364.48</ele>
        <time>2016-08-04T14:52:33Z</time>
      </trkpt>
      <trkpt lat="45.74004" lon="4.28277">
        <ele>364</ele>
        <time>2016-08-04T14:52:52Z</time>
      </trkpt>
      <trkpt lat="45.74" lon="4.28298">
        <ele>363.52</ele>
        <time>2016-08-04T14:53:07Z</time>
      </trkpt>
      <trkpt lat="45.74" lon="4.283">
        <ele>363.52</ele>
        <time>2016-08-04T14:53:08Z</time>
      </trkpt>
      <trkpt lat="45.74008" lon="4.28327">
        <ele>368.32</ele>
        <time>2016-08-04T14:53:25Z</time>
      </trkpt>
      <trkpt lat="45.74015" lon="4.28354">
        <ele>372.17</ele>
        <time>2016-08-04T14:53:42Z</time>
      </trkpt>
      <trkpt lat="45.74024" lon="4.28379">
        <ele>374.57</ele>
        <time>2016-08-04T14:53:58Z</time>
      </trkpt>
      <trkpt lat="45.74037" lon="4.28404">
        <ele>376.01</ele>
        <time>2016-08-04T14:54:15Z</time>
      </trkpt>
      <trkpt lat="45.74047" lon="4.28427">
        <ele>376.97</ele>
        <time>2016-08-04T14:54:30Z</time>
      </trkpt>
      <trkpt lat="45.74049" lon="4.28444">
        <ele>377.94</ele>
        <time>2016-08-04T14:54:40Z</time>
      </trkpt>
      <trkpt lat="45.74049" lon="4.28451">
        <ele>378.42</ele>
        <time>2016-08-04T14:54:44Z</time>
      </trkpt>
      <trkpt lat="45.74047" lon="4.28481">
        <ele>380.34</ele>
        <time>2016-08-04T14:55:02Z</time>
      </trkpt>
      <trkpt lat="45.74043" lon="4.28513">
        <ele>380.82</ele>
        <time>2016-08-04T14:55:19Z</time>
      </trkpt>
      <trkpt lat="45.74041" lon="4.2855">
        <ele>379.86</ele>
        <time>2016-08-04T14:55:37Z</time>
      </trkpt>
      <trkpt lat="45.7405" lon="4.28584">
        <ele>381.3</ele>
        <time>2016-08-04T14:55:56Z</time>
      </trkpt>
      <trkpt lat="45.74055" lon="4.28596">
        <ele>381.3</ele>
        <time>2016-08-04T14:56:04Z</time>
      </trkpt>
      <trkpt lat="45.74043" lon="4.28619">
        <ele>380.34</ele>
        <time>2016-08-04T14:56:21Z</time>
      </trkpt>
      <trkpt lat="45.7404" lon="4.28621">
        <ele>379.86</ele>
        <time>2016-08-04T14:56:23Z</time>
      </trkpt>
      <trkpt lat="45.74037" lon="4.28627">
        <ele>379.86</ele>
        <time>2016-08-04T14:56:27Z</time>
      </trkpt>
      <trkpt lat="45.74016" lon="4.28647">
        <ele>377.45</ele>
        <time>2016-08-04T14:56:45Z</time>
      </trkpt>
      <trkpt lat="45.73994" lon="4.28661">
        <ele>374.09</ele>
        <time>2016-08-04T14:57:01Z</time>
      </trkpt>
      <trkpt lat="45.73971" lon="4.28677">
        <ele>371.21</ele>
        <time>2016-08-04T14:57:19Z</time>
      </trkpt>
      <trkpt lat="45.73954" lon="4.28698">
        <ele>371.69</ele>
        <time>2016-08-04T14:57:34Z</time>
      </trkpt>
      <trkpt lat="45.73941" lon="4.28725">
        <ele>374.09</ele>
        <time>2016-08-04T14:57:50Z</time>
      </trkpt>
      <trkpt lat="45.73929" lon="4.28752">
        <ele>379.86</ele>
        <time>2016-08-04T14:58:07Z</time>
      </trkpt>
      <trkpt lat="45.73914" lon="4.2878">
        <ele>385.63</ele>
        <time>2016-08-04T14:58:25Z</time>
      </trkpt>
      <trkpt lat="45.73903" lon="4.28807">
        <ele>377.45</ele>
        <time>2016-08-04T14:58:41Z</time>
      </trkpt>
      <trkpt lat="45.73883" lon="4.28817">
        <ele>371.21</ele>
        <time>2016-08-04T14:58:58Z</time>
      </trkpt>
      <trkpt lat="45.73867" lon="4.28828">
        <ele>369.76</ele>
        <time>2016-08-04T14:59:13Z</time>
      </trkpt>
      <trkpt lat="45.73864" lon="4.28829">
        <ele>369.76</ele>
        <time>2016-08-04T14:59:16Z</time>
      </trkpt>
      <trkpt lat="45.7386" lon="4.2884">
        <ele>368.8</ele>
        <time>2016-08-04T14:59:28Z</time>
      </trkpt>
      <trkpt lat="45.73858" lon="4.28852">
        <ele>367.84</ele>
        <time>2016-08-04T14:59:44Z</time>
      </trkpt>
      <trkpt lat="45.73859" lon="4.28853">
        <ele>368.32</ele>
        <time>2016-08-04T14:59:55Z</time>
      </trkpt>
      <trkpt lat="45.73859" lon="4.28854">
        <ele>369.28</ele>
        <time>2016-08-04T15:00:07Z</time>
      </trkpt>
      <trkpt lat="45.7386" lon="4.28845">
        <ele>367.36</ele>
        <time>2016-08-04T15:00:21Z</time>
      </trkpt>
      <trkpt lat="45.73858" lon="4.28841">
        <ele>371.21</ele>
        <time>2016-08-04T15:00:33Z</time>
      </trkpt>
      <trkpt lat="45.7386" lon="4.28841">
        <ele>372.65</ele>
        <time>2016-08-04T15:00:35Z</time>
      </trkpt>
      <trkpt lat="45.73864" lon="4.28839">
        <ele>374.57</ele>
        <time>2016-08-04T15:00:47Z</time>
      </trkpt>
      <trkpt lat="45.73865" lon="4.28834">
        <ele>371.21</ele>
        <time>2016-08-04T15:01:09Z</time>
      </trkpt>
      <trkpt lat="45.73866" lon="4.28832">
        <ele>369.28</ele>
        <time>2016-08-04T15:01:33Z</time>
      </trkpt>
      <trkpt lat="45.73866" lon="4.28831">
        <ele>368.8</ele>
        <time>2016-08-04T15:01:55Z</time>
      </trkpt>
      <trkpt lat="45.73865" lon="4.28831">
        <ele>368.8</ele>
        <time>2016-08-04T15:01:56Z</time>
      </trkpt>
      <trkpt lat="45.73859" lon="4.28841">
        <ele>369.76</ele>
        <time>2016-08-04T15:02:08Z</time>
      </trkpt>
      <trkpt lat="45.73858" lon="4.28844">
        <ele>369.28</ele>
        <time>2016-08-04T15:02:20Z</time>
      </trkpt>
      <trkpt lat="45.73859" lon="4.28853">
        <ele>369.76</ele>
        <time>2016-08-04T15:02:37Z</time>
      </trkpt>
      <trkpt lat="45.73859" lon="4.28863">
        <ele>368.32</ele>
        <time>2016-08-04T15:02:52Z</time>
      </trkpt>
      <trkpt lat="45.7386" lon="4.28865">
        <ele>367.36</ele>
        <time>2016-08-04T15:03:14Z</time>
      </trkpt>
      <trkpt lat="45.7386" lon="4.28864">
        <ele>366.4</ele>
        <time>2016-08-04T15:03:29Z</time>
      </trkpt>
      <trkpt lat="45.73861" lon="4.28863">
        <ele>365.92</ele>
        <time>2016-08-04T15:03:43Z</time>
      </trkpt>
      <trkpt lat="45.7386" lon="4.28863">
        <ele>365.44</ele>
        <time>2016-08-04T15:03:52Z</time>
      </trkpt>
      <trkpt lat="45.7386" lon="4.28855">
        <ele>365.44</ele>
        <time>2016-08-04T15:04:04Z</time>
      </trkpt>
      <trkpt lat="45.7386" lon="4.28856">
        <ele>365.44</ele>
        <time>2016-08-04T15:04:06Z</time>
      </trkpt>
      <trkpt lat="45.73861" lon="4.28866">
        <ele>365.44</ele>
        <time>2016-08-04T15:04:17Z</time>
      </trkpt>
      <trkpt lat="45.73861" lon="4.28866">
        <ele>364.96</ele>
        <time>2016-08-04T15:04:35Z</time>
      </trkpt>
      <trkpt lat="45.73861" lon="4.28866">
        <ele>364.48</ele>
        <time>2016-08-04T15:04:59Z</time>
      </trkpt>
    </trkseg>
  </trk>
</gpx>